     2.10           OBSERVATION DATA    G (GPS)             RINEX VERSION / TYPE
teqc 2006Apr5 Bo Madsen 20060516 08:17:23UTC                PGM / RUN BY / DATE
Solaris 5.9|UltraSparc IIi|cc -xarch=v9 SC5.5|=+-|*Sparc    COMMENT
BIT 2 OF LLI FLAGS DATA COLLECTED UNDER A/S CONDITION       COMMENT
SKAG                                                        MARKER NAME
Base                                                        MARKER NUMBER
HAUERBACH GFY                                               OBSERVER / AGENCY
00013705 TRIMBLE 4000SSI NP 7.29 / SP 3.07                  REC # / TYPE / VERS
06159 TRM22020.00+GP                                        ANT # / TYPE
  3356838.2011   626716.0243  5368971.0176                  APPROX POSITION XYZ
        0.0000        0.0000        0.0000                  ANTENNA: DELTA H/E/N
     1     1                                                WAVELENGTH FACT L1/2
     6    L1    L2    C1    P2    P1    D1                  # / TYPES OF OBSERV
SNR is mapped to RINEX snr flag value [1-9]                 COMMENT
L1: 3 -> 1; 8 -> 5; 40 -> 9                                 COMMENT
L2: 1 -> 1; 5 -> 5; 60 -> 9                                 COMMENT
  2006     4    29     0     0    0.0000000     GPS         TIME OF FIRST OBS
                                                            END OF HEADER
 06  4 29  0  0  0.0000000  0  7G 1G 9G 4G24G 2G 5G14
  -3296620.03246   -159930.73546  23421896.4684   23421901.7114
       195.6694
   2300437.36846   1548386.85046  22927567.7914   22927572.5644
     -5255.7394
  -1273925.12246   -930481.76946  23001947.6164   23001952.4234
     -1153.3984
   7750448.58145   6066742.74245  24413593.2764   24413597.5744
     -3174.4874
  -4326997.94346  -3258815.21146  23363719.6814   23363721.8874
      1018.9754
   2408159.06048   1911837.76147  20339251.4054   20339255.8884
     -2083.9264
   -622422.42446   3859805.43146  22273999.1474   22274002.8514
     -2637.3804
 06  4 29  0  0 15.0000000  0  7G 1G 9G 4G24G 2G 5G14
  -3299487.98246   -162165.49946  23421350.7074   23421354.8934
       186.8134
   2379304.58346   1609841.82046  22942575.7364   22942580.6484
     -5259.8004
  -1256545.72346   -916939.35946  23005254.8074   23005260.5104
     -1163.7714
   7798130.54145   6103897.49945  24422666.7994   24422671.8714
     -3183.0224
  -4342229.24446  -3270683.74346  23360821.2474   23360823.9404
      1011.9604
   2439478.85948   1936242.80647  20345211.3554   20345215.3854
     -2091.9524
   -582784.82346   3890691.87746  22281541.9304   22281545.0144
     -2647.5264
 06  4 29  0  0 30.0000000  0  7G 1G 9G 4G24G 2G 5G14
  -3302222.87446   -164296.56846  23420830.2614   23420835.6354
       177.9034
   2458232.80146   1671344.31546  22957595.2944   22957600.4394
     -5263.8724
  -1239010.78846   -903275.77346  23008591.6234   23008596.2884
     -1174.1664
   7845940.42645   6141151.94345  24431764.7084   24431772.1644
     -3191.5734
  -4357355.22246  -3282470.19346  23357942.8424   23357945.5154
      1004.8984
   2470919.14548   1960741.73447  20351194.2394   20351198.1264
     -2100.0224
   -542995.23546   3921696.74546  22289113.6264   22289117.0364
     -2657.6844
 06  4 29  0  0 45.0000000  0  7G 1G 9G 4G24G 2G 5G14
  -3304823.77446   -166323.25446  23420335.3244   23420340.6634
       168.9714
   2537222.17546   1732894.46346  22972626.5154   22972630.8514
     -5267.9394
  -1221319.59546   -889490.43346  23011958.1834   23011961.7464
     -1184.5834
   7893878.74645   6178506.46645  24440887.0944   24440893.6924
     -3200.1194
  -4372374.78946  -3294173.74846  23355084.7224   23355086.6164
       997.8014
   2502480.56548   1985335.05247  20357200.1744   20357204.1984
     -2108.0824
   -503053.08146   3952820.50746  22296714.3734   22296717.5244
     -2667.8384
 06  4 29  0  1  0.0000000  0  7G 1G 9G 4G24G 2G 5G14
  -3307292.45346   -168246.89646  23419865.5614   23419870.3794
       160.1254
   2616270.38846   1794490.47646  22987668.9304   22987673.1414
     -5271.8814
  -1203473.91746   -875584.70446  23015354.1214   23015358.0924
     -1194.9034
   7941943.29245   6215959.32445  24450033.4624   24450039.5244
     -3208.5484
  -4387289.64646  -3305795.68646  23352246.5164   23352248.7664
       990.7914
   2534161.08848   2010021.17247  20363228.7814   20363233.1234
     -2116.0474
   -462960.44246   3984061.52746  22304343.7434   22304346.8514
     -2677.8914
 06  4 29  0  1 15.0000000  0  7G 1G 9G 4G24G 2G 5G14
  -3309627.22646   -170066.20746  23419421.2814   23419425.9324
       151.1864
   2695378.84746   1856133.41546  23002722.8004   23002727.5114
     -5275.8974
  -1185472.25346   -861557.42346  23018779.7304   23018784.5364
     -1205.3204
   7990135.20445   6253511.44345  24459204.0974   24459210.2294
     -3217.0214
  -4402098.02746  -3317334.65546  23349428.5744   23349430.7084
       983.6684
   2565962.06848   2034801.15947  20369280.3164   20369284.7804
     -2124.0844
   -422716.09646   4015420.75746  22312001.9894   22312004.5684
     -2688.0154
 06  4 29  0  1 30.0000000  0  7G 1G 9G 4G24G 2G 5G14
  -3311828.21846   -171781.24846  23419002.4254   23419007.1644
       142.1684
   2774546.75046   1917822.67146  23017787.9664   23017792.2654
     -5279.9514
  -1167314.88046   -847408.79846  23022234.9544   23022239.7004
     -1215.7844
   8038453.88645   6291162.32545  24468398.8604   24468404.9644
     -3225.5924
  -4416799.87846  -3328790.62046  23346630.9014   23346632.2414
       976.4614
   2597883.10348   2059674.69447  20375354.6904   20375359.1744
     -2132.1814
   -382320.50746   4046897.83846  22319689.0094   22319691.9374
     -2698.1734
 06  4 29  0  1 45.0000000  0  7G 1G 9G 4G24G 2G 5G14
  -3313893.96646   -173390.91546  23418609.3224   23418614.5364
       133.2574
   2853775.32446   1979559.21846  23032864.6834   23032869.4014
     -5283.8694
  -1149000.44446   -833137.81546  23025720.0994   23025723.2274
     -1226.1364
   8086900.54245   6328912.93045  24477617.9474   24477623.5934
     -3233.9844
  -4431393.62546  -3340162.35346  23343853.8024   23343855.7484
       969.3524
   2629925.42648   2084642.73747  20381452.1484   20381456.5014
     -2140.1394
   -341772.61846   4078493.59446  22327405.0244   22327407.9154
     -2708.2204
 06  4 29  0  2  0.0000000  0  7G 1G 9G 4G24G 2G 5G14
  -3315825.89646   -174896.30746  23418241.6644   23418246.7404
       124.3054
   2933062.54946   2041341.44646  23047952.5504   23047957.4154
     -5287.7814
  -1130530.69946   -818745.79946  23029234.7614   23029237.7084
     -1236.5464
   8135473.14245   6366761.73145  24486861.0034   24486866.3944
     -3242.3814
  -4445880.54546  -3351450.85446  23341097.0094   23341099.0634
       962.1994
   2662087.26748   2109703.91247  20387572.3504   20387576.5054
     -2148.1324
   -301074.08546   4110206.72146  22335149.7114   22335152.9694
     -2718.2764
 06  4 29  0  2 15.0000000  0  7G 1G 9G 4G24G 2G 5G14
  -3317622.91346   -176296.57446  23417899.6954   23417905.1544
       115.2234
   3012408.90346   2103169.75346  23063051.6824   23063056.7994
     -5291.8034
  -1111904.53946   -804231.91646  23032779.1654   23032782.7954
     -1247.0394
   8184172.44844   6404709.22145  24496128.1474   24496133.5654
     -3250.9024
  -4460259.14046  -3362654.94946  23338360.8014   23338362.6904
       954.8934
   2694369.48948   2134858.88947  20393715.4644   20393719.5024
     -2156.2284
   -260224.34946   4142037.68946  22342923.1684   22342926.9954
     -2728.4274
 06  4 29  0  2 30.0000000  0  7G 1G 9G 4G24G 2G 5G14
  -3319285.06446   -177591.74546  23417583.4034   23417588.6244
       106.2834
   3091814.08346   2165043.89746  23078162.0094   23078166.5654
     -5295.6574
  -1093122.16746   -789596.28346  23036353.2794   23036356.9644
     -1257.4014
   8232997.96545   6442755.05245  24505419.3624   24505424.7124
     -3259.2794
  -4474529.61646  -3373774.78446  23335645.1734   23335647.1984
       947.7364
   2726771.73148   2160107.38647  20399881.4114   20399885.3624
     -2164.1854
   -219223.84146   4173986.12246  22350725.3444   22350728.4254
     -2738.4164
 06  4 29  0  2 45.0000000  0  7G 1G 9G 4G24G 2G 5G14
  -3320810.34246   -178780.28846  23417293.1694   23417298.3664
        97.1694
   3171279.53646   2226965.01346  23093283.8174   23093288.4144
     -5299.6414
  -1074181.72346   -774837.50046  23039957.4994   23039961.6604
     -1267.9184
   8281951.27945   6480900.46145  24514734.8994   24514739.1714
     -3267.7814
  -4488689.90846  -3384808.74546  23332950.5154   23332953.3054
       940.3894
   2759295.70448   2185450.74447  20406070.5274   20406074.8724
     -2172.2764
   -178070.97346   4206053.29346  22358556.5064   22358559.8364
     -2748.5524
 06  4 29  0  3  0.0000000  0  7G 1G 9G 4G24G 2G 5G14
  -3322200.47146   -179863.48446  23417028.6244   23417033.5854
        88.1814
   3250802.80646   2288931.20346  23108416.6144   23108421.1494
     -5303.4614
  -1055085.10146   -759957.02846  23043591.4804   23043595.3244
     -1278.2984
   8331030.21145   6519143.83045  24524074.3124   24524080.2574
     -3276.1034
  -4502741.58946  -3395758.06346  23330276.4974   23330278.9794
       933.1584
   2791939.39548   2210887.39047  20412282.4154   20412286.4924
     -2180.2254
   -136767.91946   4238237.49746  22366416.2284   22366418.9334
     -2758.5304
 06  4 29  0  3 15.0000000  0  7G 1G 9G 4G24G 2G 5G14
  -3323454.25746   -180840.45246  23416790.0204   23416795.5934
        79.0084
   3330384.79546   2350943.11746  23123560.5794   23123565.3394
     -5307.4394
  -1035831.37046   -744954.11246  23047255.3344   23047260.2004
     -1288.8374
   8380235.60444   6557485.69745  24533437.7854   24533443.7534
     -3284.5914
  -4516683.29946  -3406621.73546  23327623.4104   23327626.6214
       925.7594
   2824703.75448   2236418.05847  20418517.2594   20418521.5094
     -2188.3384
    -95313.86646   4270539.35846  22374304.6814   22374307.6594
     -2768.6574
 06  4 29  0  3 30.0000000  0  7G 1G 9G 4G24G 2G 5G14
  -3324571.73746   -181711.20946  23416577.3604   23416582.3724
        69.9594
   3410024.80346   2413000.25146  23138715.5914   23138720.1164
     -5311.2474
  -1016420.66646   -729828.87546  23050949.0504   23050953.2974
     -1299.2884
   8429566.96445   6595925.65245  24542825.2874   24542831.4794
     -3292.8984
  -4530514.94846  -3417399.62846  23324991.2824   23324994.4554
       918.4574
   2857588.42348   2262042.46947  20424775.0064   20424779.1914
     -2196.2944
    -53709.20146   4302958.58646  22382221.7924   22382224.8784
     -2778.6354
 06  4 29  0  3 45.0000000  0  7G 1G 9G 4G24G 2G 5G14
  -3325553.38446   -182476.11646  23416390.5564   23416395.3934
        60.8874
   3489721.97446   2475101.92946  23153881.4704   23153885.6344
     -5315.0554
   -996853.55646   -714581.76146  23054672.5194   23054676.4364
     -1309.7354
   8479023.24445   6634463.03445  24552236.5424   24552240.3384
     -3301.2814
  -4544236.78246  -3428091.95346  23322380.0554   23322382.3704
       911.0974
   2890592.60348   2287760.00147  20431055.4984   20431059.3664
     -2204.2854
    -11954.78946   4335494.48946  22390167.3984   22390170.7404
     -2788.6324
 06  4 29  0  4  0.0000000  0  7G 1G 9G 4G24G 2G 5G14
  -3326400.76346   -183136.40946  23416229.3154   23416234.6184
        51.9534
   3569474.04646   2537246.38646  23169057.7824   23169062.4114
     -5318.7064
   -977131.71146   -699214.09246  23058425.4604   23058429.6514
     -1320.0004
   8528602.48344   6673096.17945  24561671.1564   24561676.7934
     -3309.4414
  -4557850.17046  -3438699.77446  23319789.4884   23319791.7464
       903.8804
   2923714.47048   2313569.24947  20437358.3894   20437362.4174
     -2212.1114
     29947.32646   4368145.48146  22398141.1134   22398144.3404
     -2798.4564
 06  4 29  0  4 15.0000000  0  7G 1G 9G 4G24G 2G 5G14
  -3327111.57846   -183690.30046  23416094.0604   23416099.2974
        42.8244
   3649283.02546   2599435.18146  23184244.9204   23184249.5454
     -5322.4784
   -957253.10146   -683724.26246  23062208.2324   23062213.3724
     -1330.4824
   8578306.53443   6711826.60945  24571129.5144   24571136.5784
     -3317.7704
  -4571352.82046  -3449221.29746  23317220.0114   23317221.6214
       896.4634
   2956956.09148   2339471.81247  20443684.0654   20443688.0734
     -2220.0974
     71999.03846   4400913.05346  22406143.2934   22406145.6654
     -2808.4364
 06  4 29  0  4 30.0000000  0  7G 1G 9G 4G24G 2G 5G14
  -3327685.42746   -184137.42646  23415984.8494   23415990.1734
        33.6934
   3729148.88746   2661668.30446  23199442.9024   23199447.4534
     -5326.2874
   -937217.54746   -668112.11846  23066020.8394   23066026.7584
     -1340.9404
   8628135.35544   6750654.28745  24580611.6334   24580616.1354
     -3326.0924
  -4584744.13746  -3459656.07146  23314671.7324   23314674.2834
       889.0264
   2990317.53348   2365467.74647  20450032.5324   20450036.4604
     -2228.0924
    114200.58846   4433797.36346  22414173.9794   22414176.4214
     -2818.4364
 06  4 29  0  4 45.0000000  0  7G 1G 9G 4G24G 2G 5G14
  -3328121.97646   -184477.58546  23415901.7714   23415907.5864
        24.4614
   3809071.37046   2723945.54346  23214651.6384   23214656.1324
     -5330.1024
   -917024.79246   -652377.49246  23069863.3414   23069868.4054
     -1351.4914
   8678088.87644   6789579.11745  24590117.4684   24590122.1914
     -3334.4644
  -4598023.59746  -3470003.70446  23312144.7414   23312147.0554
       881.4994
   3023798.82648   2391557.05347  20456403.8084   20456407.7214
     -2236.1544
    156551.73246   4466798.25446  22422233.1244   22422236.1074
     -2828.4504
 06  4 29  0  5  0.0010000  0  7G 1G 9G 4G24G 2G 5G14
  -3328420.82346   -184710.46346  23415844.9054   23415849.7024
        15.4194
   3889055.63746   2786270.94046  23229872.1654   23229877.6204
     -5333.7184
   -896673.20146   -636519.11046  23073736.0974   23073739.6844
     -1361.8224
   8728170.38444   6828603.62145  24599647.6494   24599654.3724
     -3342.6144
  -4611191.67946  -3480264.54246  23309638.9384   23309641.1104
       874.1584
   3057402.39448   2417741.64347  20462798.3544   20462801.9744
     -2243.9994
    199055.28346   4499917.89446  22430321.2734   22430324.9044
     -2838.2724
 06  4 29  0  5 15.0010000  0  7G 1G 9G 4G24G 2G 5G14
  -3328582.00646   -184836.05246  23415814.2284   23415819.3304
         6.1384
   3969090.69346   2848635.90046  23245102.3714   23245107.0204
     -5337.5414
   -876165.64446   -620539.19246  23077638.5424   23077641.9064
     -1372.4104
   8778372.67543   6867722.29945  24609200.8144   24609207.7634
     -3350.9584
  -4624246.53346  -3490437.14646  23307154.6734   23307156.7204
       866.5624
   3091123.37948   2444017.72447  20469215.2594   20469219.1914
     -2252.0524
    241705.08546   4533151.50046  22438437.2434   22438441.1134
     -2848.2994
 06  4 29  0  5 30.0010000  0  7G 1G 9G 4G24G 2G 5G14
  -3328606.04546   -184854.76846  23415809.6514   23415814.7074
        -3.0034
   4049180.79946   2911043.76646  23260343.0364   23260347.5994
     -5341.1984
   -855501.62546   -604437.36846  23081570.7654   23081575.1194
     -1382.8384
   8828698.26743   6906937.06445  24618777.4604   24618783.9374
     -3359.1994
  -4637189.37346  -3500522.45546  23304691.7124   23304694.3904
       859.0844
   3124963.26048   2470386.45947  20475654.7834   20475658.5734
     -2259.9714
    284503.05646   4566500.56346  22446581.4254   22446584.3974
     -2858.1564
 06  4 29  0  5 45.0010000  0  7G 1G 9G 4G24G 2G 5G14
  -3328492.30246   -184766.13946  23415831.2874   23415836.2094
       -12.2544
   4129326.13646   2973494.66746  23275594.2044   23275598.4254
     -5344.9324
   -834680.59646   -588213.16346  23085532.8544   23085536.8004
     -1393.3844
   8879147.31543   6946248.00845  24628377.6064   24628382.3844
     -3367.4564
  -4650019.31646  -3510519.79446  23302250.2344   23302252.4444
       851.4844
   3158922.36748   2496848.09947  20482116.9854   20482121.0454
     -2267.9934
    327449.48146   4599965.31046  22454753.8424   22454756.7864
     -2868.1124
 06  4 29  0  6  0.0010000  0  7G 1G 9G 4G24G 2G 5G14
  -3328240.11146   -184569.61846  23415879.2774   23415884.1764
       -21.3954
   4209526.86046   3035988.72246  23290855.9224   23290860.7314
     -5348.5234
   -813701.95446   -571866.16846  23089524.9384   23089528.4314
     -1403.7884
   8929720.03643   6985655.30045  24638001.2604   24638006.9224
     -3375.5934
  -4662735.64046  -3520428.60346  23299830.3824   23299832.8514
       843.9994
   3193001.09648   2523402.93647  20488601.9504   20488606.0134
     -2275.8764
    370544.70746   4633546.01146  22462954.5864   22462957.0124
     -2877.9454
 06  4 29  0  6 15.0010000  0  7G 1G 9G 4G24G 2G 5G14
  -3327851.17146   -184266.53446  23415953.2754   23415959.1774
       -30.5314
   4289780.65846   3098524.13346  23306127.7474   23306131.9594
     -5352.0614
   -792567.59846   -555397.84946  23093546.6904   23093549.4314
     -1414.1854
   8980414.29243   7025157.38845  24647648.0574   24647652.7474
     -3383.7124
  -4675339.93746  -3530250.13246  23297431.8604   23297434.2554
       836.5064
   3227197.48048   2550049.45947  20495109.3124   20495113.4464
     -2283.7214
    413786.60846   4667240.99046  22471183.2454   22471185.8524
     -2887.7294
 06  4 29  0  6 30.0010000  0  7G 1G 9G 4G24G 2G 5G14
  -3327322.98446   -183854.96146  23416053.7864   23416059.2104
       -39.8664
   4370089.80846   3161102.67246  23321410.0824   23321414.3384
     -5355.7824
   -771275.22346   -538806.38446  23097598.4964   23097602.4354
     -1424.7574
   9031232.20943   7064755.71445  24657318.4174   24657325.8224
     -3391.9674
  -4687829.60346  -3539982.30646  23295055.1614   23295057.7714
       828.8094
   3261513.72048   2576789.37447  20501639.4914   20501643.4204
     -2291.7554
    457177.32646   4701051.93646  22479440.2074   22479442.9544
     -2897.6794
 06  4 29  0  6 45.0010000  0  7G 1G 9G 4G24G 2G 5G14
  -3326655.01846   -183334.46846  23416180.9014   23416186.2064
       -49.1364
   4450454.24146   3223724.29046  23336702.9384   23336707.8174
     -5359.3944
   -749824.48746   -522091.51446  23101680.3974   23101685.2254
     -1435.2754
   9082173.74043   7104450.40545  24667012.2724   24667017.2764
     -3400.1614
  -4700203.88546  -3549624.58746  23292700.4224   23292702.6244
       821.1654
   3295950.11948   2603622.92347  20508192.5384   20508196.6784
     -2299.7004
    500716.87946   4734978.86846  22487725.5214   22487728.8104
     -2907.5274
 06  4 29  0  7  0.0010000  0  7G 1G 9G 4G24G 2G 5G14
  -3325848.32146   -182705.86546  23416334.4254   23416339.6134
       -58.4404
   4530872.31146   3286387.69546  23352006.0044   23352010.7154
     -5363.0194
   -728216.54746   -505254.14546  23105792.2384   23105796.9494
     -1445.8094
   9133237.42143   7144240.30945  24676729.3714   24676736.1474
     -3408.3154
  -4712463.74646  -3559177.71646  23290367.4704   23290369.4464
       813.4784
   3330505.31148   2630549.04447  20514768.1884   20514772.3134
     -2307.6534
    544403.79046   4769020.60646  22496038.8614   22496042.9194
     -2917.3874
 06  4 29  0  7 15.0010000  0  7G 1G 9G 4G24G 2G 5G14
  -3324903.80846   -181969.88046  23416514.1694   23416519.9614
       -67.5074
   4611342.62846   3349091.82846  23367318.9894   23367323.7734
     -5366.3624
   -706452.47646   -488295.13246  23109933.8054   23109938.1194
     -1456.0574
   9184421.93543   7184124.31945  24686469.4664   24686472.3984
     -3416.2554
  -4724609.95546  -3568642.26746  23288056.1374   23288058.1864
       806.0134
   3365178.07548   2657566.77247  20521366.2064   20521370.2404
     -2315.3654
    588236.76246   4803176.16246  22504380.0034   22504383.6384
     -2926.9984
 06  4 29  0  7 30.0010000  0  7G 1G 9G 4G24G 2G 5G14
  -3323820.71046   -181125.90946  23416720.2774   23416725.2314
       -76.8634
   4691865.60446   3411836.97346  23382642.0204   23382646.5464
     -5369.9654
   -684531.75146   -471214.04646  23114105.1854   23114109.7814
     -1466.6324
   9235727.62043   7224102.73245  24696232.6164   24696239.4654
     -3424.4684
  -4736641.59646  -3578017.56246  23285766.6104   23285768.7854
       798.2614
   3399968.92948   2684676.51947  20527986.6884   20527990.9524
     -2323.3524
    632216.26346   4837445.91246  22512749.0334   22512752.5524
     -2936.8774
 06  4 29  0  7 45.0010000  0  7G 1G 9G 4G24G 2G 5G14
  -3322598.23946   -180173.31646  23416952.8884   23416958.4124
       -86.1554
   4772441.56546   3474623.41446  23397975.1514   23397979.1484
     -5373.4914
   -662453.66746   -454010.34846  23118306.4884   23118310.8974
     -1477.1194
   9287154.89644   7264175.92445  24706018.9914   24706025.1594
     -3432.5234
  -4748557.68246  -3587302.80546  23283499.0794   23283500.9924
       790.5504
   3434878.36548   2711878.66547  20534629.7284   20534633.8204
     -2331.2464
    676342.67346   4871830.12646  22521146.0174   22521149.0524
     -2946.6554
 06  4 29  0  8  0.0010000  0  7G 1G 9G 4G24G 2G 5G14
  -3321236.09346   -179111.90446  23417212.0984   23417216.5334
       -95.4754
   4853070.27246   3537450.96846  23413318.2964   23413323.3904
     -5377.0014
   -640218.19546   -436683.97946  23122537.7464   23122542.4144
     -1487.6204
   9338703.53543   7304343.73145  24715828.3824   24715834.0674
     -3440.6034
  -4760357.84946  -3596497.72946  23281253.6084   23281255.9334
       782.8014
   3469906.41348   2739173.23647  20541295.3454   20541299.5424
     -2339.1634
    720615.84846   4906328.69946  22529570.9304   22529573.9914
     -2956.4434
 06  4 29  0  8 15.0010000  0  7G 1G 9G 4G24G 2G 5G14
  -3319734.17646   -177941.58246  23417497.9094   23417502.0454
      -104.7624
   4933751.32646   3600319.30146  23428671.3974   23428677.0294
     -5380.4514
   -617825.23446   -419234.93046  23126799.0004   23126803.3384
     -1498.0914
   9390373.27743   7344605.82845  24725660.7414   24725664.4584
     -3448.6354
  -4772041.77746  -3605602.08246  23279030.2484   23279032.6114
       775.0944
   3505052.92748   2766560.11647  20547983.5064   20547987.6834
     -2347.0224
    765035.46746   4940941.39546  22538023.7004   22538027.5004
     -2966.1494
 06  4 29  0  8 30.0010000  0  7G 1G 9G 4G24G 2G 5G14
  -3318092.69146   -176662.50246  23417810.2784   23417815.0434
      -114.1244
   5014484.00646   3663227.86646  23444034.3314   23444039.2124
     -5383.9364
   -595275.22846   -401663.51146  23131090.1594   23131094.1554
     -1508.6184
   9442163.44843   7384961.79545  24735516.0894   24735517.7274
     -3456.7434
  -4783609.67046  -3614615.99746  23276828.9694   23276831.4554
       767.2684
   3540317.47448   2794038.97747  20554694.1324   20554698.3024
     -2354.9474
    809600.90546   4975667.71346  22546504.2304   22546507.8284
     -2975.9364
 06  4 29  0  8 45.0010000  0  7G 1G 9G 4G24G 2G 5G14
  -3316311.79046   -175274.76146  23418149.1654   23418154.2254
      -123.3454
   5095267.87446   3726176.31646  23459406.9884   23459411.5434
     -5387.2614
   -572568.61046   -383970.01946  23135411.0904   23135416.6734
     -1518.9654
   9494073.46643   7425411.14745  24745394.2554   24745397.2274
     -3464.6164
  -4795061.41547  -3623539.42346  23274649.7784   23274652.0524
       759.6074
   3575699.60048   2821609.46447  20561427.1284   20561431.1254
     -2362.6954
    854311.67246   5010507.26346  22555012.4154   22555015.6614
     -2985.5284
 06  4 29  0  9  0.0010000  0  7G 1G 9G 4G24G 2G 5G14
  -3314390.83146   -173777.91246  23418514.6774   23418520.2384
      -132.7924
   5176103.03646   3789164.73446  23474789.4334   23474794.0544
     -5390.7824
   -549704.74946   -366154.02546  23139761.9334   23139766.8574
     -1529.5584
   9546103.42044   7465954.00745  24755295.2384   24755297.4714
     -3472.7034
  -4806396.23147  -3632371.73046  23272492.8364   23272495.3524
       751.6984
   3611199.63848   2849271.82847  20568182.5524   20568186.6134
     -2370.6584
    899167.90246   5045460.18446  22563548.2874   22563551.5844
     -2995.3184
 06  4 29  0  9 15.0010000  0  7G 1G 9G 4G24G 2G 5G14
  -3312328.19246   -172170.63746  23418907.1814   23418912.3324
      -142.1904
   5256990.83846   3852194.18646  23490181.8824   23490185.4304
     -5394.2114
   -526682.24346   -348214.40446  23144142.9914   23144146.9504
     -1540.0574
   9598254.66443   7506591.30845  24765219.2864   24765224.6904
     -3480.7374
  -4817612.39646  -3641111.56046  23270358.4644   23270360.8024
       743.8344
   3646818.95548   2877027.14247  20574960.6814   20574964.7264
     -2378.5524
    944170.85246   5080527.41746  22572112.0434   22572115.4314
     -3005.0494
 06  4 29  0  9 30.0010000  0  7G 1G 9G 4G24G 2G 5G14
  -3310124.66046   -170453.58846  23419326.4824   23419331.0954
      -151.5834
   5337929.78846   3915263.47746  23505584.0624   23505587.7964
     -5397.6104
   -503502.07146   -330151.93946  23148554.0394   23148557.5894
     -1550.5994
   9650526.06544   7547322.27745  24775166.2854   24775174.1424
     -3488.7274
  -4828710.48746  -3649759.41146  23268246.5594   23268248.0544
       735.9524
   3682556.50048   2904874.58347  20581761.3094   20581765.2534
     -2386.4194
    989319.32146   5115708.04046  22580703.5054   22580707.0884
     -3014.7024
 06  4 29  0  9 45.0010000  0  7G 1G 9G 4G24G 2G 5G14
  -3307781.15746   -168627.46946  23419772.4094   23419777.0504
      -160.9324
   5418918.56246   3978371.60146  23520995.7164   23520999.2954
     -5400.9304
   -480165.36046   -311967.47446  23152994.8874   23153000.2714
     -1561.0414
   9702916.14444   7588145.70845  24785135.8244   24785137.9064
     -3496.6454
  -4839691.31047  -3658315.89146  23266156.9844   23266158.9714
       728.1054
   3718411.07248   2932813.20547  20588584.2074   20588588.1484
     -2394.2464
   1034612.03946   5151001.04646  22589322.4114   22589325.9034
     -3024.3634
 06  4 29  0 10  0.0010000  0  7G 1G 9G 4G24G 2G 5G14
  -3305297.44146   -166692.09746  23420245.0194   23420249.8774
      -170.2294
   5499956.89946   4041518.32446  23536416.7894   23536421.8444
     -5404.1724
   -456671.92346   -293660.88446  23157465.5404   23157470.8414
     -1571.4054
   9755424.70143   7629061.46845  24795127.8474   24795132.1544
     -3504.4624
  -4850554.49747  -3666780.70746  23264089.7784   23264091.6384
       720.3034
   3754382.61348   2960842.97947  20595429.3634   20595433.1954
     -2401.9704
   1080048.90146   5186406.36846  22597968.7584   22597971.9424
     -3033.9064
 06  4 29  0 10 15.0010000  0  7G 1G 9G 4G24G 2G 5G14
  -3302672.51746   -164646.70746  23420744.5274   23420749.4034
      -179.6674
   5581045.38046   4104704.13246  23551847.4174   23551851.9804
     -5407.5364
   -433021.00346   -275231.58746  23161966.1664   23161971.1744
     -1581.9484
   9808052.14044   7670069.86845  24805142.5294   24805149.8854
     -3512.4454
  -4861298.96346  -3675152.99246  23262045.1554   23262047.8024
       712.3754
   3790471.84548   2988964.45547  20602296.9144   20602301.1194
     -2409.8394
   1125630.34746   5221924.37046  22606642.6074   22606645.5964
     -3043.5314
 06  4 29  0 10 30.0010000  0  7G 1G 9G 4G24G 2G 5G14
  -3299906.23746   -162491.15746  23421270.9434   23421275.6804
      -189.1404
   5662183.62046   4167928.71846  23567287.5094   23567291.4374
     -5410.8674
   -409212.61246   -256679.59046  23166496.7424   23166500.1074
     -1592.4694
   9860798.38244   7711170.77545  24815179.8524   24815186.0914
     -3520.3704
  -4871924.43446  -3683432.58446  23260023.1874   23260026.1644
       704.3864
   3826678.63148   3017177.53447  20609186.8224   20609190.8344
     -2417.7154
   1171356.16246   5257554.85846  22615343.9514   22615347.1004
     -3053.2054
 06  4 29  0 10 45.0010000  0  7G 1G 9G 4G24G 2G 5G14
  -3296998.53046   -160225.40546  23421824.2604   23421828.7104
      -198.5274
   5743371.13746   4231191.68846  23582736.9894   23582740.9214
     -5414.1044
   -385246.88346   -238005.00246  23171057.2604   23171062.1154
     -1602.9094
   9913663.05345   7752364.07145  24825239.7104   24825246.0454
     -3528.2194
  -4882430.70046  -3691619.26946  23258023.9044   23258026.1404
       696.4814
   3863002.86548   3045482.12847  20616099.0804   20616103.2164
     -2425.4784
   1217226.01646   5293297.61346  22624072.7024   22624076.0384
     -3062.7444
 06  4 29  0 11  0.0010000  0  7G 1G 9G 4G24G 2G 5G14
  -3293949.34146   -157849.39946  23422404.4834   23422408.7314
      -207.9854
   5824607.64146   4294492.85846  23598195.8014   23598200.7054
     -5417.3864
   -361123.94746   -219207.90646  23175647.6814   23175652.2424
     -1613.4394
   9966645.68845   7793649.22545  24835321.9534   24835326.0924
     -3536.0774
  -4892817.54046  -3699712.89346  23256047.3294   23256049.2164
       688.4844
   3899444.22048   3073877.98747  20623033.6254   20623037.8124
     -2433.3244
   1263239.56146   5329152.30246  22632828.7854   22632831.6494
     -3072.3564
 06  4 29  0 11 15.0010000  0  7G 1G 9G 4G24G 2G 5G14
  -3290756.74146   -155361.65046  23423011.9824   23423016.6364
      -217.6494
   5905894.63946   4357833.34246  23613664.1994   23613668.1734
     -5420.8044
   -336842.06546   -200286.94646  23180268.3304   23180272.6284
     -1624.1204
  10019747.82044   7835027.47045  24845426.9724   24845432.1874
     -3544.1534
  -4903082.83946  -3707711.79346  23254093.8694   23254095.6944
       680.2674
   3936004.41348   3102366.43747  20629990.7964   20629995.0604
     -2441.3224
   1309398.30146   5365120.14846  22641612.4964   22641615.4184
     -3082.1114
 06  4 29  0 11 30.0010000  0  7G 1G 9G 4G24G 2G 5G14
  -3287421.36846   -152762.64646  23423646.6684   23423651.4174
      -227.0714
   5987230.90746   4421212.24346  23629141.9874   23629147.1474
     -5424.0154
   -312401.97846   -181242.72046  23184919.1124   23184923.6244
     -1634.5854
  10072968.33045   7876498.06745  24855554.5594   24855559.8004
     -3551.9204
  -4913227.21946  -3715616.50046  23252163.4324   23252165.1714
       672.2944
   3972682.50748   3130946.76947  20636970.4044   20636974.5014
     -2449.0934
   1355701.30146   5401200.41146  22650423.6654   22650426.7274
     -3091.6174
 06  4 29  0 11 45.0010000  0  7G 1G 9G 4G24G 2G 5G14
  -3283944.23846   -150053.18846  23424308.3204   23424313.2124
      -236.6354
   6068614.98446   4484628.38146  23644628.8714   23644633.6584
     -5427.2954
   -287804.92746   -162076.19346  23189599.7974   23189603.8884
     -1645.1184
  10126305.76345   7918059.64445  24865704.3404   24865708.1404
     -3559.8174
  -4923251.35246  -3723427.50046  23250255.8734   23250258.4254
       664.1644
   4009477.27448   3159618.02147  20643972.2144   20643976.6174
     -2456.9784
   1402147.09646   5437391.95146  22659262.0214   22659264.7004
     -3101.2344
 06  4 29  0 12  0.0010000  0  7G 1G 9G 4G24G 2G 5G14
  -3280325.02046   -147233.00946  23424997.0224   23425001.6214
      -246.0014
   6150046.83246   4548081.74546  23660124.8334   23660129.9184
     -5430.3614
   -263050.71046   -142787.18846  23194310.3664   23194314.0544
     -1655.4904
  10179760.11045   7959712.37445  24875876.3574   24875879.4204
     -3567.4894
  -4933154.83746  -3731144.49646  23248371.2724   23248373.1484
       656.2304
   4046388.77848   3188380.23747  20650996.2394   20651000.4344
     -2464.6214
   1448735.48046   5473694.59246  22668127.4954   22668130.9114
     -3110.6224
 06  4 29  0 12 15.0010000  0  7G 1G 9G 4G24G 2G 5G14
  -3276563.25746   -144301.73446  23425712.8634   23425718.1744
      -255.5334
   6231526.43346   4611572.30846  23675629.8904   23675634.8494
     -5433.5534
   -238139.05946   -123375.49046  23199050.8854   23199054.8484
     -1666.0254
  10233331.33745   8001456.14045  24886070.5614   24886075.6384
     -3575.3084
  -4942937.07646  -3738767.03146  23246509.7444   23246511.5754
       648.1094
   4083417.14348   3217233.51747  20658042.5064   20658046.8654
     -2472.4534
   1495466.63846   5510108.47746  22677020.1394   22677024.1014
     -3120.1604
 06  4 29  0 12 30.0010000  0  7G 1G 9G 4G24G 2G 5G14
  -3272658.43746   -141259.01946  23426455.9424   23426461.1864
      -265.1084
   6313053.82146   4675100.14846  23691144.0584   23691149.3254
     -5436.7514
   -213069.62446   -103840.86946  23203821.4454   23203825.0974
     -1676.5484
  10287019.58745   8043291.12645  24896287.1044   24896292.3764
     -3583.1254
  -4952597.41246  -3746294.55546  23244671.4284   23244672.9744
       639.9404
   4120562.63248   3246178.05947  20665111.0614   20665115.2534
     -2480.2774
   1542340.57546   5546633.61946  22685939.9514   22685943.4314
     -3129.6914
 06  4 29  0 12 45.0010000  0  7G 1G 9G 4G24G 2G 5G14
  -3268610.33646   -138104.63846  23427226.2654   23427231.3064
      -274.6114
   6394628.83046   4738665.07846  23706667.2704   23706672.0444
     -5439.8804
   -187842.41546    -84183.30146  23208622.0264   23208626.0624
     -1687.0384
  10340824.52145   8085217.02445  24906525.8814   24906531.2834
     -3590.8454
  -4962135.50146  -3753726.80446  23242856.3854   23242857.9924
       631.8374
   4157825.23148   3275213.86347  20672201.8964   20672205.6894
     -2488.0204
   1589357.12946   5583269.89746  22694886.9064   22694890.5094
     -3139.1324
 06  4 29  0 13  0.0010000  0  7G 1G 9G 4G24G 2G 5G14
  -3264419.51546   -134839.05846  23428023.7674   23428028.9214
      -284.1724
   6476250.39746   4802266.28946  23722199.3454   23722204.9414
     -5442.9934
   -162458.09246    -64403.31246  23213452.5084   23213455.4964
     -1697.5554
  10394745.25145   8127233.21145  24916786.6594   24916791.3964
     -3598.6054
  -4971551.76746  -3761064.13546  23241064.5054   23241066.4984
       623.6564
   4195204.13848   3304340.29747  20679314.8654   20679318.4714
     -2495.8204
   1636515.36446   5620016.57046  22703860.8174   22703863.7404
     -3148.6144
 06  4 29  0 13 15.0010000  0  7G 1G 9G 4G24G 2G 5G14
  -3260084.84846   -131461.38946  23428848.6464   23428852.8084
      -293.7344
   6557919.13446   4865904.23446  23737740.4264   23737746.2194
     -5446.1124
   -136915.72646    -44500.16546  23218313.0534   23218316.1554
     -1708.0394
  10448782.55644   8169340.16445  24927069.6154   24927075.6014
     -3606.3304
  -4980844.85446  -3768305.48546  23239296.0844   23239298.9114
       615.4654
   4232700.22648   3333558.02847  20686450.1234   20686454.0354
     -2503.6104
   1683816.08746   5656874.27046  22712861.8464   22712865.1464
     -3158.0884
 06  4 29  0 13 30.0010000  0  7G 1G 9G 4G24G 2G 5G14
  -3255606.70246   -127971.91746  23429700.8344   23429704.9164
      -303.3924
   6639634.35546   4929578.39646  23753290.3384   23753295.9074
     -5449.2954
   -111215.88646    -24474.30946  23223203.5644   23223206.9844
     -1718.6364
  10502935.63345   8211537.36145  24937374.6534   24937378.5794
     -3614.1164
  -4990015.04146  -3775451.06746  23237551.0274   23237553.5544
       607.1864
   4270312.84348   3362866.56647  20693607.5534   20693611.5774
     -2511.4504
   1731258.36746   5693842.27446  22721889.8164   22721893.0754
     -3167.5904
 06  4 29  0 13 45.0010000  0  7G 1G 9G 4G24G 2G 5G14
  -3250983.83746   -124369.67946  23430580.5404   23430585.7164
      -313.0324
   6721397.11446   4993289.63046  23768849.3114   23768855.1124
     -5452.4444
    -85357.38446     -4324.83046  23228124.2614   23228126.9344
     -1729.2224
  10557205.29745   8253825.38645  24947701.8504   24947706.6194
     -3621.8814
  -4999060.83146  -3782499.71446  23235829.6324   23235832.2794
       598.8714
   4308043.02848   3392266.69847  20700787.3754   20700791.5974
     -2519.2834
   1778843.18146   5730921.33646  22730944.9024   22730947.9034
     -3177.0964
 06  4 29  0 14  0.0010000  0  7G 1G 9G 4G24G 2G 5G14
  -3246216.62846   -120654.96246  23431487.6994   23431492.5344
      -322.6004
   6803206.35346   5057037.04846  23784417.1054   23784423.1584
     -5455.4584
    -59340.75446     15947.87146  23233075.0624   23233078.7784
     -1739.6694
  10611590.68845   8296203.62145  24958051.0394   24958055.1734
     -3629.5124
  -5007982.44446  -3789451.59746  23234131.8594   23234134.8924
       590.6674
   4345890.14348   3421757.96047  20707989.4364   20707993.4824
     -2526.9974
   1826569.83646   5768110.95746  22740026.9864   22740030.5304
     -3186.4554
 06  4 29  0 14 15.0010000  0  7G 1G 9G 4G24G 2G 5G14
  -3241306.33646   -116828.74246  23432422.0794   23432427.1704
      -332.1444
   6885060.27646   5120819.29946  23799993.3854   23799999.2514
     -5458.4434
    -33167.68546     36342.46646  23238055.6324   23238059.1614
     -1750.1014
  10666090.22245   8338670.77445  24968421.8914   24968429.9414
     -3637.1064
  -5016781.08546  -3796307.66946  23232457.4894   23232460.1084
       582.4534
   4383852.58348   3451339.08747  20715213.4364   20715217.5034
     -2534.6824
   1874436.33946   5805409.51946  22749135.6854   22749139.2504
     -3195.7804
 06  4 29  0 14 30.0010000  0  7G 1G 9G 4G24G 2G 5G14
  -3236251.53846   -112889.92346  23433383.9434   23433388.2984
      -341.7744
   6966959.82546   5184637.07346  23815578.3534   23815584.5794
     -5461.4474
     -6836.73546     56860.09346  23243066.2604   23243070.3854
     -1760.6454
  10720704.73045   8381227.49145  24978814.7364   24978821.0194
     -3644.7684
  -5025455.11946  -3803066.65946  23230806.8454   23230809.7464
       574.1404
   4421931.52448   3481010.97847  20722459.6134   20722463.9814
     -2542.4474
   1922443.93846   5842818.02546  22758271.2284   22758274.0364
     -3205.1584
 06  4 29  0 14 45.0010000  0  7G 1G 9G 4G24G 2G 5G14
  -3231051.93746   -108838.29446  23434373.3754   23434378.0914
      -351.4024
   7048905.01346   5248490.44946  23831172.0284   23831176.1864
     -5464.4524
     19652.11646     77500.76346  23248106.9244   23248109.4644
     -1771.1214
  10775434.03545   8423873.74445  24989229.4044   24989233.8314
     -3652.3674
  -5034004.18746  -3809728.24946  23229179.9984   23229182.8904
       565.8244
   4460127.04248   3510773.71247  20729727.9874   20729732.3624
     -2550.1924
   1970592.38946   5880336.29946  22767433.5884   22767436.9574
     -3214.5244
 06  4 29  0 15  0.0010000  0  7G 1G 9G 4G24G 2G 5G14
  -3225708.26446   -104674.38146  23435390.2384   23435394.6794
      -361.0774
   7130894.52146   5312378.36146  23846774.1034   23846778.7694
     -5467.4464
     46298.13746     98263.88046  23253177.5064   23253180.6004
     -1781.6494
  10830277.13445   8466608.58545  24999665.6794   24999670.3464
     -3660.0154
  -5042428.82046  -3816292.87846  23227576.8184   23227579.8984
       557.4754
   4498438.19048   3540626.54947  20737018.3624   20737023.0604
     -2557.9374
   2018880.76546   5917963.58746  22776622.5814   22776626.2954
     -3223.8794
 06  4 29  0 15 15.0010000  0  7G 1G 9G 4G24G 2G 5G14
  -3220219.62046   -100397.51246  23436434.6974   23436438.5654
      -370.7424
   7212928.95146   5376301.28846  23862384.7544   23862389.9204
     -5470.4564
     73101.85446    119149.91046  23258278.0794   23258281.7174
     -1792.1914
  10885234.56145   8509432.54045  25010123.7104   25010131.2954
     -3667.6214
  -5050728.00546  -3822759.76046  23225997.5154   23225999.8624
       549.0874
   4536865.60048   3570569.99047  20744330.8634   20744335.3424
     -2565.7084
   2067309.44246   5955700.19346  22785838.2744   22785841.6764
     -3233.2544
 06  4 29  0 15 30.0010000  0  7G 1G 9G 4G24G 2G 5G14
  -3214586.11846    -96007.75646  23437506.7124   23437511.6474
      -380.3624
   7295007.73046   5440258.75346  23878003.8534   23878009.1484
     -5473.3384
    100063.07246    140158.65646  23263408.5924   23263413.4724
     -1802.6234
  10940305.69345   8552345.10545  25020603.4414   25020609.6874
     -3675.1434
  -5058901.78846  -3829128.90246  23224442.0704   23224444.5354
       540.7704
   4575408.85948   3600603.69947  20751665.3954   20751669.5784
     -2573.3724
   2115878.03846   5993545.85646  22795080.5704   22795083.2384
     -3242.5224
 06  4 29  0 15 45.0010000  0  7G 1G 9G 4G24G 2G 5G14
  -3208807.96146    -91505.29146  23438606.2594   23438611.1434
      -390.0754
   7377130.04646   5504250.12646  23893631.2414   23893635.3944
     -5476.3054
    127181.39246    161289.84246  23268569.0154   23268573.6044
     -1813.1674
  10995489.87345   8595345.71945  25031104.6354   25031107.3214
     -3682.7594
  -5066950.16746  -3835400.35246  23222910.5014   23222913.2234
       532.3254
   4614067.49748   3630727.30147  20759021.8834   20759026.1654
     -2581.1204
   2164585.83046   6031499.98546  22804349.3664   22804352.5114
     -3251.8444
 06  4 29  0 16  0.0010000  0  7G 1G 9G 4G24G 2G 5G14
  -3202884.55146    -86889.63546  23439733.4244   23439738.3624
      -399.6764
   7459296.19346   5568275.66746  23909266.9414   23909271.1204
     -5479.1454
    154457.15946    182543.68246  23273759.4144   23273763.5044
     -1823.5904
  11050787.35545   8638434.70445  25041627.3684   25041633.6134
     -3690.2134
  -5074872.27646  -3841573.39646  23221402.9584   23221405.0454
       523.9804
   4652841.84348   3660941.06147  20766400.3944   20766404.7634
     -2588.7544
   2213432.82746   6069562.57746  22813644.6314   22813647.8824
     -3261.0444
 06  4 29  0 16 15.0010000  0  7G 1G 9G 4G24G 2G 5G14
  -3196816.95746    -82161.63446  23440888.0214   23440892.9744
      -409.3734
   7541504.53646   5632334.09346  23924910.6534   23924915.3154
     -5482.0134
    181889.30946    203919.37146  23278979.5874   23278983.3444
     -1834.0724
  11106196.52445   8681610.63845  25052171.4144   25052177.1564
     -3697.7194
  -5082669.12046  -3847648.83846  23219919.2504   23219921.1344
       515.5554
   4691730.56248   3691243.95347  20773800.6844   20773805.0534
     -2596.4454
   2262417.69946   6107732.60846  22822966.1284   22822968.9824
     -3270.3034
 06  4 29  0 16 30.0010000  0  7G 1G 9G 4G24G 2G 5G14
  -3190603.91346    -77320.28346  23442070.3114   23442075.6654
      -419.0694
   7623756.20746   5696426.27346  23940562.6544   23940568.0684
     -5484.8894
    209478.69646    225417.60546  23284229.6644   23284234.1374
     -1844.5524
  11161718.17745   8724874.23545  25062736.8474   25062742.3274
     -3705.2034
  -5090339.28946  -3853625.56746  23218459.6354   23218461.7494
       507.1024
   4730734.76048   3721636.83647  20781222.9464   20781227.2204
     -2604.1404
   2311541.28646   6146010.72646  22832314.0324   22832316.6624
     -3279.5384
 06  4 29  0 16 45.0010000  0  7G 1G 9G 4G24G 2G 5G14
  -3184245.06546    -72365.33546  23443280.3534   23443285.2394
      -428.8344
   7706050.91146   5760551.99046  23956222.8634   23956227.7754
     -5487.8024
    237225.59046    247038.56646  23289509.7084   23289513.9964
     -1855.0854
  11217352.33445   8768225.52945  25073323.6874   25073330.5554
     -3712.7464
  -5097882.21746  -3859503.14746  23217024.2354   23217026.0474
       498.5674
   4769854.52548   3752119.77747  20788667.1944   20788671.3914
     -2611.8764
   2360803.50546   6184396.85846  22841688.3224   22841692.0634
     -3288.8234
 06  4 29  0 17  0.0010000  0  7G 1G 9G 4G24G 2G 5G14
  -3177739.24546    -67295.85046  23444518.3734   23444523.0884
      -438.5684
   7788389.64146   5824712.00746  23971891.4384   23971896.9974
     -5490.6594
    265130.93046    268782.99946  23294819.9064   23294824.2244
     -1865.5894
  11273099.79945   8811665.08445  25083932.0604   25083937.5434
     -3720.2154
  -5105296.64846  -3865280.61246  23215613.3004   23215615.5664
       490.0574
   4809090.71348   3782693.43347  20796133.5984   20796137.8244
     -2619.5734
   2410205.10046   6222891.57746  22851089.1424   22851092.8644
     -3298.0384
 06  4 29  0 17 15.0010000  0  7G 1G 9G 4G24G 2G 5G14
  -3171088.03146    -62113.09046  23445784.0514   23445788.7224
      -448.3554
   7870770.26646   5888904.67646  23987567.9784   23987573.1134
     -5493.5074
    293193.08846    290649.61846  23300159.9604   23300163.9814
     -1876.1174
  11328958.75245   8855191.53345  25094561.6864   25094568.1524
     -3727.7244
  -5112583.93246  -3870958.99246  23214226.5784   23214229.2354
       481.4854
   4848441.52848   3813356.40947  20803621.8114   20803625.9394
     -2627.3004
   2459744.24046   6261493.49646  22860516.1424   22860519.5724
     -3307.2884
 06  4 29  0 17 30.0010000  0  7G 1G 9G 4G24G 2G 5G14
  -3164290.15946    -56816.03946  23447077.6374   23447081.9104
      -458.0234
   7953193.43846   5953130.47146  24003252.6104   24003258.0644
     -5496.2164
    321413.14346    312639.26946  23305530.0604   23305534.0384
     -1886.5204
  11384929.75445   8898805.29645  25105212.6304   25105218.9144
     -3735.0664
  -5119742.66646  -3876537.20646  23212864.3244   23212866.7724
       473.0284
   4887907.92948   3844109.45547  20811132.0124   20811136.0714
     -2634.8754
   2509421.70146   6300203.20746  22869969.4504   22869972.7474
     -3316.3644
 06  4 29  0 17 45.0010000  0  7G 1G 9G 4G24G 2G 5G14
  -3157346.50046    -51405.39646  23448398.9804   23448404.0854
      -467.8694
   8035657.96546   6017388.51146  24018945.1154   24018950.3464
     -5499.1014
    349789.87946    334751.02446  23310929.9694   23310934.9504
     -1897.1014
  11441011.57845   8942505.40145  25115884.6354   25115888.6494
     -3742.5704
  -5126773.59246  -3882015.84446  23211526.3914   23211528.6224
       464.3734
   4927488.90748   3874951.78447  20818664.0104   20818668.1534
     -2642.6344
   2559236.23746   6339019.72746  22879448.8364   22879451.8674
     -3325.6324
 06  4 29  0 18  0.0010000  0  7G 1G 9G 4G24G 2G 5G14
  -3150256.28946    -45880.54246  23449748.2054   23449753.1524
      -477.5454
   8118164.16946   6081679.03446  24034645.5634   24034651.3204
     -5501.7814
    378323.95546    356985.36446  23316359.8144   23316364.5074
     -1907.5024
  11497204.59245   8986292.13645  25126577.8044   25126583.2234
     -3749.8714
  -5133675.95946  -3887394.30046  23210212.9044   23210215.0094
       455.8964
   4967184.88348   3905883.71947  20826217.8864   20826222.1254
     -2650.2104
   2609188.19746   6377943.30746  22888954.3874   22888957.7494
     -3334.6834
 06  4 29  0 18 15.0010000  0  7G 1G 9G 4G24G 2G 5G14
  -3143020.02346    -40241.86946  23451125.2174   23451130.0984
      -487.2854
   8200711.35846   6146001.50646  24050353.8034   24050359.7594
     -5504.5024
    407014.72346    379341.80046  23321819.4894   23321823.9594
     -1917.9564
  11553507.87845   9030164.82145  25137292.0034   25137298.1094
     -3757.2004
  -5140449.88746  -3892672.66346  23208923.8464   23208925.9524
       447.3044
   5006995.16048   3936904.70247  20833793.5214   20833798.1284
     -2657.8204
   2659276.62046   6416973.26046  22898485.9114   22898488.8074
     -3343.7694
 06  4 29  0 18 30.0010000  0  6G 1G 9G 4G 2G 5G14
  -3135637.39546    -34489.16946  23452530.0704   23452534.3814
      -497.0514
   8283299.19846   6210355.64646  24066069.8004   24066075.1164
     -5507.2044
    435862.30746    401820.45346  23327309.0004   23327312.8444
     -1928.3994
  -5147094.96747  -3897850.64746  23207659.3144   23207661.4804
       438.7174
   5046919.83748   3968014.83247  20841390.9284   20841395.4424
     -2665.4474
   2709501.53046   6456109.54646  22908043.4244   22908045.9234
     -3352.8594
 06  4 29  0 18 45.0010000  0  7G 1G 9G 4G25G 2G 5G14
  -3128108.37646    -28622.38846  23453962.8034   23453967.6554
      -506.8804
   8365927.34646   6274741.19346  24081793.4514   24081799.0024
     -5509.9684
    464866.58846    424421.18546  23332828.3354   23332832.8014
     -1938.9094
    -13407.85445                  25019709.8924
      1675.3424
  -5153610.97247  -3902928.04746  23206419.3374   23206421.7394
       430.0204
   5086958.68448   3999213.93547  20849010.0674   20849014.7034
     -2673.1294
   2759862.47346   6495351.84146  22917626.8204   22917629.5294
     -3361.9884
 06  4 29  0 19  0.0010000  0  7G 1G 9G 4G25G 2G 5G14
  -3120432.89246    -22641.50646  23455423.4274   23455427.8564
      -516.6974
   8448595.49946   6339157.94346  24097524.7044   24097529.1584
     -5512.6304
    494027.35746    447143.86846  23338377.4554   23338380.9664
     -1949.3944
    -38519.66345                  25014929.4504
      1672.7474
  -5159997.69047  -3907904.69046  23205203.9804   23205206.4004
       421.3464
   5127111.46848   4030501.81847  20856650.8974   20856655.5924
     -2680.7564
   2810359.09346   6534699.84846  22927236.0364   22927239.0714
     -3371.0664
 06  4 29  0 19 15.0010000  0  7G 1G 9G 4G25G 2G 5G14
  -3112608.77446    -16544.77446  23456912.3234   23456916.9674
      -526.5124
   8531305.30646   6403607.12246  24113263.8764   24113269.2844
     -5515.3204
    523346.74946    469990.14846  23343956.7804   23343959.9814
     -1959.8544
    -63590.61745                  25010158.1124
      1670.0674
  -5166252.78947  -3912778.78446  23204013.6724   23204015.6584
       412.6674
   5167380.14948   4061880.01247  20864313.7834   20864318.4244
     -2688.3924
   2860993.21146   6574155.00646  22936871.3954   22936874.3974
     -3380.1204
 06  4 29  0 19 30.0010000  0  7G 1G 9G 4G25G 2G 5G14
  -3104637.76146    -10333.59546  23458429.1754   23458434.7944
      -536.3164
   8614054.68545   6468087.12546  24129010.5864   24129015.6374
     -5517.9664
    552822.66446    492958.39346  23349565.8554   23349569.5294
     -1970.3064
    -88622.22245                  25005394.5334
      1667.4584
  -5172377.89347  -3917551.58446  23202848.1134   23202850.0784
       403.9844
   5207762.82348   4093347.02447  20871998.3534   20872003.0344
     -2695.9934
   2911762.58446   6613715.54546  22946532.4944   22946535.7504
     -3389.1474
 06  4 29  0 19 45.0010000  0  7G 1G 9G 4G25G 2G 5G14
  -3096519.87846     -4007.95646  23459973.9554   23459979.2404
      -546.0364
   8696843.24546   6532597.67546  24144764.7674   24144770.2364
     -5520.4804
    582455.07546    516048.57446  23355204.7114   23355208.0284
     -1980.6274
   -113614.47445    -11680.57945  25000638.5454   25000643.1474
      1664.8714
  -5178372.87347  -3922222.99346  23201707.3124   23201709.1064
       395.3754
   5248259.15248   4124902.60247  20879704.5554   20879709.3664
     -2703.4984
   2962666.86246   6653381.20646  22956219.2614   22956222.0774
     -3398.0574
 06  4 29  0 20  0.0010000  0  7G 1G 9G 4G25G 2G 5G14
  -3088255.73646      2431.63046  23461546.5634   23461551.4424
      -555.7914
   8779669.79646   6597137.81546  24160526.1714   24160530.9184
     -5522.9984
    612243.01346    539259.96746  23360873.1434   23360875.9214
     -1991.0124
   -138567.79845    -31124.71445  24995889.9944   24995893.4114
      1662.2944
  -5184238.23247  -3926793.38546  23200591.1784   23200593.0464
       386.7314
   5288868.26648   4156546.05647  20887432.2294   20887436.9814
     -2710.9944
   3013705.03046   6693151.22846  22965931.4984   22965935.0014
     -3406.9734
 06  4 29  0 20 15.0010000  0  7G 1G 9G 4G25G 2G 5G14
  -3079843.94046      8986.30046  23463147.2624   23463151.7204
      -565.7464
   8862535.31746   6661708.35146  24176294.9744   24176299.7304
     -5525.7004
    642187.78146    562593.55646  23366571.4184   23366575.6094
     -2001.5984
   -163480.80145    -50537.43245  24991149.1624   24991153.5554
      1659.4494
  -5189972.41447  -3931261.56946  23199500.0074   23199501.9654
       377.8574
   5329591.27248   4188278.26547  20895181.5864   20895186.3394
     -2718.7054
   3064878.09246   6733026.34246  22975669.3944   22975673.0254
     -3416.0764
 06  4 29  0 20 30.0010000  0  7G 1G 9G 4G25G 2G 5G14
  -3071284.22646     15656.21346  23464776.1024   23464781.2124
      -575.5524
   8945439.78545   6726309.19945  24192071.1734   24192074.8414
     -5528.2294
    672289.39346    586049.34346  23372299.5464   23372302.7274
     -2011.9894
   -188353.08145    -69918.40745  24986416.0334   24986420.5504
      1656.8274
  -5195574.96147  -3935627.17846  23198433.8964   23198435.9284
       369.1364
   5370428.30848   4220099.33847  20902952.6314   20902957.4164
     -2726.2364
   3116185.85046   6773006.40046  22985432.9174   22985435.8094
     -3424.9684
 06  4 29  0 20 45.0010000  0  7G 1G 9G 4G25G 2G 5G14
  -3062577.66846     22440.54946  23466432.9034   23466437.5804
      -585.3524
   9028381.62545   6790939.18145  24207854.4724   24207859.5084
     -5530.7254
    702546.65646    609626.42446  23378057.3164   23378060.0044
     -2022.3504
   -213185.52745    -89268.30145  24981690.4844   24981695.0464
      1654.1784
  -5201046.79047  -3939890.93846  23197392.6714   23197394.9834
       360.4044
   5411377.94848   4252008.14647  20910745.1074   20910749.6164
     -2733.7414
   3167626.79746   6813090.25546  22995221.7924   22995225.1304
     -3433.8614
 06  4 29  0 21  0.0010000  0  7G 1G 9G 4G25G 2G 5G14
  -3053722.87146     29340.39646  23468117.9074   23468122.5504
      -595.3554
   9111362.13446   6855599.28746  24223645.1694   24223650.3884
     -5533.3864
    732960.76946    633325.74346  23383844.9294   23383848.4254
     -2032.9374
   -237976.69745   -108586.07345  24976972.7824   24976978.8694
      1651.2784
  -5206386.34747  -3944051.63246  23196376.6114   23196378.6944
       351.4734
   5452441.44048   4284005.67547  20918559.2334   20918563.5514
     -2741.4384
   3219201.91746   6853278.66246  23005036.2084   23005040.4444
     -3442.8904
 06  4 29  0 21 15.0010000  0  7G 1G 9G 4G25G 2G 5G14
  -3044718.50746     36356.77946  23469831.3704   23469835.8524
      -605.2274
   9194381.89446   6920290.01246  24239443.3354   24239448.1084
     -5535.9074
    763532.77146    657148.08446  23389662.6024   23389666.2754
     -2043.3564
   -262725.12145   -127870.55245  24972263.2684   24972267.1404
      1648.5284
  -5211592.15547  -3948108.09446  23195385.9864   23195387.7764
       342.6394
   5493619.80148   4316092.71147  20926395.2264   20926399.4744
     -2749.0034
   3270912.18246   6893572.35146  23014876.3394   23014880.5544
     -3451.8034
 06  4 29  0 21 30.0010000  0  7G 1G 9G 4G25G 2G 5G14
  -3035566.37646     43488.33046  23471572.9444   23471578.0804
      -615.1164
   9277438.68546   6985009.57946  24255248.5334   24255253.5394
     -5538.3954
    794260.83746    681092.03346  23395509.9634   23395513.7814
     -2053.7874
   -287432.45645   -147123.00145  24967561.5594   24967565.8414
      1645.7264
  -5216665.74647  -3952061.52846  23194420.5064   23194422.6584
       333.7714
   5534911.04848   4348267.70847  20934252.7034   20934257.2524
     -2756.5634
   3322755.41646   6933969.65546  23024741.7904   23024745.6014
     -3460.6914
 06  4 29  0 21 45.0010000  0  7G 1G 9G 4G25G 2G 5G14
  -3026265.44946     50735.81246  23473342.8444   23473347.9854
      -625.0194
   9360533.21746   7049758.52446  24271060.9254   24271064.4964
     -5540.8674
    825145.71146    705158.16446  23401387.1704   23401391.0784
     -2064.2134
   -312097.59545   -166342.56845  24962867.8924   24962872.0334
      1642.9294
  -5221606.01747  -3955911.06146  23193480.3924   23193482.7034
       324.9114
   5576315.93948   4380531.26147  20942131.8014   20942136.0004
     -2764.1114
   3374732.25646   6974471.10946  23034632.6834   23034636.3184
     -3469.5684
 06  4 29  0 22  0.0020000  0  7G 1G 9G 4G25G 2G 5G14
  -3016814.36546     58100.30046  23475141.3154   23475146.3194
      -635.0664
   9443671.39146   7114541.49746  24286881.6124   24286886.6604
     -5543.4884
    856190.05946    729348.56546  23407294.7194   23407298.2044
     -2074.7794
   -336721.24445   -185529.80445  24958182.1164   24958184.4884
      1639.9654
  -5226412.31547  -3959656.22246  23192565.7634   23192568.0394
       315.8584
   5617837.82048   4412885.97947  20950033.1564   20950036.9434
     -2771.7974
   3426846.52746   7015079.62146  23044549.7164   23044552.5494
     -3478.5594
 06  4 29  0 22 15.0020000  0  7G 1G 9G 4G25G 2G 5G14
  -3007215.66946     65579.80246  23476967.8884   23476972.8614
      -644.8764
   9526840.54946   7179348.61646  24302708.2034   24302713.3454
     -5545.8344
    887388.42446    753658.98846  23413231.5614   23413235.8124
     -2085.0954
   -361301.27745   -204683.03645  24953504.6284   24953509.0414
      1637.2424
  -5231085.23047  -3963297.42446  23191676.5214   23191678.8694
       307.0764
   5659469.60548   4445326.33047  20957955.4184   20957959.4554
     -2779.2204
   3479089.51546   7055788.43546  23054491.2364   23054494.2744
     -3487.2824
 06  4 29  0 22 30.0020000  0  7G 1G 9G 4G25G 2G 5G14
  -2997469.64046     73174.12546  23478822.4914   23478827.4574
      -654.6904
   9610044.77346   7244183.06145  24318541.4424   24318546.3204
     -5548.1714
    918741.45846    778089.91846  23419197.8484   23419201.9564
     -2095.4234
   -385840.28045   -223804.34445  24948834.9964   24948839.3314
      1634.4974
  -5235626.01547  -3966835.69246  23190812.4254   23190814.8434
       298.2524
   5701212.88848   4477853.56247  20965898.8944   20965903.0534
     -2786.6454
   3531463.35746   7096599.20546  23064457.6644   23064461.3204
     -3495.9904
 06  4 29  0 22 45.0020000  0  7G 1G 9G 4G25G 2G 5G14
  -2987575.56846     80883.80246  23480705.2704   23480710.0084
      -664.5634
   9693284.67046   7309045.30845  24334381.4524   24334386.2864
     -5550.5164
    950249.98146    802642.00946  23425193.7074   23425197.4874
     -2105.7584
   -410337.18845   -242892.80945  24944173.3644   24944176.5084
      1631.7024
  -5240033.47947  -3970270.06746  23189973.7134   23189975.3244
       289.3724
   5743068.24348   4510468.12047  20973863.7134   20973868.0794
     -2794.1064
   3583968.41546   7137512.22546  23074449.0524   23074452.6154
     -3504.7194
 06  4 29  0 23  0.0020000  0  7G 1G 9G 4G25G 2G 5G14
  -2977531.94246     88710.00346  23482616.5054   23482621.0634
      -674.6114
   9776561.16746   7373936.05545  24350228.4514   24350233.7854
     -5553.0204
    981915.08846    827316.12446  23431219.3724   23431222.6774
     -2116.2664
   -434790.53745   -261947.34945  24939520.0484   24939524.0204
      1628.7234
  -5244306.03547  -3973599.32046  23189160.6624   23189162.6374
       280.2904
   5785036.80548   4543170.89447  20981850.0854   20981854.2934
     -2801.7214
   3636605.85446   7178528.41546  23084465.6364   23084468.4624
     -3513.6214
 06  4 29  0 23 15.0020000  0  7G 1G 9G 4G25G 2G 5G14
  -2967338.13846     96653.23346  23484556.3044   23484560.9634
      -684.5394
   9859874.37746   7438855.42846  24366082.4454   24366086.0494
     -5555.3794
   1013737.22346    852112.59346  23437274.9274   23437278.1854
     -2126.6454
   -459199.52745   -280967.33945  24934875.1514   24934879.7584
      1625.8284
  -5248442.92147  -3976822.86046  23188373.4324   23188375.2654
       271.3244
   5827119.00648   4575962.21847  20989858.0804   20989862.4454
     -2809.2044
   3689376.00646   7219648.01246  23094507.4764   23094510.8544
     -3522.3634
 06  4 29  0 23 30.0020000  0  7G 1G 9G 4G25G 2G 5G14
  -2956995.39446    104712.52646  23486524.4384   23486529.3214
      -694.5204
   9943222.63846   7503802.12145  24381943.1394   24381947.1024
     -5557.7544
   1045715.08346    877030.40146  23443360.1284   23443363.9254
     -2137.0894
   -483565.22445   -299953.56445  24930238.4704   24930244.9544
      1622.8964
  -5252445.29047  -3979941.57146  23187611.7884   23187613.5174
       262.2984
   5869313.41348   4608840.97947  20997887.4164   20997891.7714
     -2816.7384
   3742277.04246   7260869.58446  23104574.2284   23104577.7234
     -3531.1364
 06  4 29  0 23 45.0020000  0  7G 1G 9G 4G25G 2G 5G14
  -2946503.86946    112887.74946  23488520.8864   23488525.1534
      -704.4034
  10026605.58746   7568775.82546  24397810.4164   24397815.0464
     -5559.9944
   1077848.19846    902069.18846  23449474.8744   23449478.9404
     -2147.3994
   -507887.73145   -318906.12545  24925610.0254   24925614.2954
      1620.0644
  -5256312.94547  -3982955.30446  23186875.7604   23186877.7534
       253.3444
   5911619.66748   4641806.88447  21005938.0414   21005942.5364
     -2824.1464
   3795308.32346   7302192.65446  23114665.7584   23114669.3034
     -3539.7684
 06  4 29  0 24  0.0020000  0  7G 1G 9G 4G25G 2G 5G14
  -2935862.71246    121179.56046  23490545.8144   23490549.8974
      -714.3964
  10110023.42446   7633776.71545  24413684.3144   24413688.2874
     -5562.3404
   1110137.29346    927229.52846  23455619.2934   23455623.2604
     -2157.8014
   -532165.92945   -337824.18445  24920990.0044   24920994.3174
      1617.0814
  -5260045.02446  -3985863.40546  23186165.5444   23186168.2594
       244.2814
   5954038.34048   4674860.39847  21014010.0534   21014014.2674
     -2831.6554
   3848470.39846   7343617.62646  23124782.1764   23124785.3814
     -3548.4914
 06  4 29  0 24 15.0020000  0  7G 1G 9G 4G25G 2G 5G14
  -2925071.79646    129588.08146  23492599.2454   23492604.3834
      -724.3944
  10193475.98446   7698804.68245  24429564.8024   24429569.3904
     -5564.6534
   1142582.49346    952511.49646  23461793.4094   23461797.1194
     -2168.2064
   -556399.57645   -356707.52345  24916378.4944   24916382.9094
      1614.0744
  -5263641.24947  -3988665.64146  23185481.1714   23185483.1084
       235.2214
   5996569.39048   4708001.48247  21022103.4454   21022107.5874
     -2839.1464
   3901763.04546   7385144.38146  23134923.4424   23134926.6924
     -3557.1954
 06  4 29  0 24 30.0020000  0  7G 1G 9G 4G25G 2G 5G14
  -2914131.60846    138112.89646  23494681.0994   23494685.7324
      -734.2594
  10276962.70345   7763859.23145  24445451.7864   24445456.4334
     -5566.8614
   1175182.92346    977914.42946  23467997.0634   23468000.4994
     -2178.4664
   -580589.09345   -375556.48145  24911775.3804   24911780.7224
      1611.2084
  -5267101.89047  -3991362.23246  23184822.6104   23184824.2974
       226.2434
   6039212.06648   4741229.53647  21030218.0724   21030221.9834
     -2846.5044
   3955185.26746   7426772.06646  23145089.3574   23145092.4314
     -3565.7314
 06  4 29  0 24 45.0020000  0  7G 1G 9G 4G25G 2G 5G14
  -2903042.24146    146753.98046  23496791.3274   23496795.8544
      -744.3274
  10360482.89645   7828939.88745  24461345.1414   24461349.5974
     -5569.1914
   1207938.33146   1003438.13246  23474230.1954   23474233.5354
     -2188.9094
   -604734.38745   -394370.95545  24907180.6454   24907184.6994
      1608.1294
  -5270426.81047  -3993953.06746  23184189.8864   23184191.8144
       217.0674
   6081966.11648   4774544.37547  21038353.8924   21038357.9234
     -2854.0464
   4008736.70746   7468500.46446  23155279.8514   23155283.2424
     -3574.4584
 06  4 29  0 25  0.0020000  0  7G 1G 9G 4G25G 2G 5G14
  -2891803.08246    155511.76746  23498930.0574   23498934.5034
      -754.2984
  10444036.67045   7894046.67545  24477244.9224   24477249.2794
     -5571.3964
   1240849.09946   1029082.89046  23480492.8954   23480495.8054
     -2199.2374
   -628834.77845   -413150.47445  24902594.4424   24902599.2904
      1605.1634
  -5273615.40147  -3996437.67646  23183583.0964   23183584.3814
       208.0024
   6124831.83348   4807946.22447  21046510.9794   21046515.2864
     -2861.4604
   4062417.44246   7510329.57746  23165494.9584   23165498.6024
     -3583.0484
 06  4 29  0 25 15.0020000  0  7G 1G 9G 4G25G 2G 5G14
  -2880413.86546    164386.48746  23501097.3354   23501101.5264
      -764.2804
  10527624.11545   7959179.76045  24493151.1074   24493155.9364
     -5573.6124
   1273915.42346   1054848.86546  23486785.1984   23486789.0124
     -2209.6104
   -652889.74545   -431894.56745  24898016.9114   24898021.3844
      1602.1464
  -5276667.12047  -3998815.60746  23183002.3474   23183003.9354
       198.8754
   6167809.33148   4841435.18947  21054689.3354   21054693.4774
     -2868.8884
   4116227.49246   7552259.47346  23175734.6684   23175737.8034
     -3591.6344
 06  4 29  0 25 30.0020000  0  7G 1G 9G 4G25G 2G 5G14
  -2868874.43846    173378.25046  23503293.2084   23503297.1364
      -774.3864
  10611244.74545   8024338.67445  24509063.5674   24509069.2174
     -5575.8904
   1307137.15546   1080735.92346  23493107.0554   23493110.6864
     -2220.0464
   -676899.02445   -450603.07945  24893448.0694   24893452.6854
      1599.0074
  -5279581.62547  -4001086.63746  23182447.7114   23182449.9014
       189.6504
   6210898.54648   4875011.20747  21062888.9464   21062893.0544
     -2876.4154
   4170166.61846   7594289.94546  23185998.9464   23186002.0584
     -3600.3174
 06  4 29  0 25 45.0020000  0  7G 1G 9G 4G25G 2G 5G14
  -2857184.84446    182487.02446  23505517.6574   23505522.1284
      -784.2334
  10694898.27345   8089523.22345  24524982.2954   24524988.2244
     -5577.9424
   1340514.15946   1106743.97946  23499458.4764   23499462.1864
     -2230.2194
   -700862.50145   -469275.89945  24888887.9654   24888891.7864
      1596.1044
  -5282358.92547  -4003250.76046  23181919.1844   23181921.2134
       180.6434
   6254099.16948   4908674.02547  21071109.7574   21071113.7404
     -2883.6774
   4224234.31146   7636420.60746  23196287.6984   23196290.4784
     -3608.7224
 06  4 29  0 26  0.0020000  0  7G 1G 9G 4G25G 2G 5G14
  -2845345.33946    191712.62746  23507770.6344   23507776.6324
      -794.3984
  10778584.18545   8154733.02045  24540907.1934   24540913.0164
     -5580.2434
   1374045.92846   1132872.63646  23505839.3344   23505843.4724
     -2240.7304
   -724780.26745   -487913.07145  24884336.5604   24884341.3094
      1592.8784
  -5284998.98947  -4005307.94546  23181416.7894   23181418.9544
       171.3214
   6297410.78348   4942423.33547  21079351.6844   21079355.8194
     -2891.2304
   4278429.81046   7678650.85346  23206600.7644   23206603.6584
     -3617.3954
 06  4 29  0 26 15.0020000  0  7G 1G 9G 4G25G 2G 5G14
  -2833354.93646    201055.81246  23510052.3244   23510057.1894
      -804.3474
  10862302.97145   8219968.37045  24556838.3664   24556844.3784
     -5582.2814
   1407733.25546   1159122.49946  23512249.7944   23512253.8884
     -2250.9684
   -748651.25145   -506513.82845  24879794.0424   24879797.7544
      1589.8834
  -5287500.86947  -4007257.44746  23180940.6954   23180942.5974
       162.2274
   6340834.10248   4976259.68847  21087614.8694   21087619.1514
     -2898.5454
   4332753.74146   7720981.17546  23216938.2824   23216941.1294
     -3625.8164
 06  4 29  0 26 30.0020000  0  7G 1G 9G 4G25G 2G 5G14
  -2821216.05546    210514.67346  23512362.2734   23512367.5404
      -814.2984
  10946051.86945   8285227.26145  24572775.2814   24572781.7914
     -5584.3384
   1441573.50946   1185491.51446  23518689.3824   23518693.8654
     -2261.1974
   -772477.68945   -525079.88745  24875260.0274   24875265.1934
      1586.8624
  -5289866.66947  -4009100.91446  23180490.4934   23180492.1324
       153.0884
   6384366.46448   5010181.01247  21095898.8124   21095903.0214
     -2905.8764
   4387203.41746   7763409.50546  23227299.7254   23227302.7904
     -3634.2524
 06  4 29  0 26 45.0020000  0  7G 1G 9G 4G25G 2G 5G14
  -2808925.23246    220091.95046  23514701.1434   23514706.6284
      -824.4844
  11029834.22245   8350512.14945  24588718.5774   24588723.8604
     -5586.6364
   1475570.04946   1211982.33646  23525158.7044   23525162.6154
     -2271.6914
   -796255.96145   -543608.38145  24870735.1984   24870738.9334
      1583.5604
  -5292092.65247  -4010835.44346  23180066.9064   23180068.4564
       143.6964
   6428011.22248   5044189.91547  21104204.1304   21104208.3384
     -2913.4284
   4441781.91746   7805938.19646  23237685.6854   23237688.1824
     -3642.8864
 06  4 29  0 27  0.0020000  0  7G 1G 9G 4G25G 2G 5G14
  -2796484.11146    229786.32546  23517068.6174   23517073.8294
      -834.4064
  11113647.67545   8415821.33945  24604667.7484   24604672.1414
     -5588.5744
   1509721.08546   1238593.51946  23531657.4494   23531661.0484
     -2281.8514
   -819987.47945   -562100.45145  24866219.2514   24866224.7114
      1580.5504
  -5294180.34847  -4012462.18746  23179669.6194   23179671.4684
       134.5734
   6471766.46748   5078284.91247  21112530.4714   21112534.6354
     -2920.6854
   4496487.11146   7848565.64646  23248095.7544   23248098.5754
     -3651.2134
 06  4 29  0 27 15.0020000  0  7G 1G 9G 4G25G 2G 5G14
  -2783892.20446    239598.22546  23519464.7834   23519470.7274
      -844.5384
  11197492.48245   8481154.93645  24620622.9244   24620628.5934
     -5590.7384
   1544026.83046   1265325.27946  23538185.6224   23538189.4024
     -2292.2694
   -843671.66745   -580555.64745  24861712.3104   24861717.1954
      1577.2984
  -5296129.03347  -4013980.61946  23179298.7734   23179300.5954
       125.2244
   6515632.49448   5112466.22947  21120877.8924   21120882.0114
     -2928.1414
   4551319.09846   7891291.85946  23258529.9624   23258533.6284
     -3659.7404
 06  4 29  0 27 30.0020000  0  7G 1G 9G 4G25G 2G 5G14
  -2771148.50946    249528.37846  23521889.8384   23521894.6104
      -854.6274
  11281369.30945   8546513.48845  24636584.1594   24636588.0654
     -5592.8434
   1578488.06946   1292178.19846  23544743.3984   23544746.8234
     -2302.5904
   -867307.37645   -598973.08945  24857214.6184   24857218.5704
      1574.1034
  -5297937.63847  -4015389.90146  23178954.5854   23178956.6904
       115.9154
   6559610.07648   5146734.47447  21129246.5354   21129250.4854
     -2935.5384
   4606278.49946   7934117.36346  23268988.4164   23268992.1474
     -3668.1934
 06  4 29  0 27 45.0020000  0  7G 1G 9G 4G25G 2G 5G14
  -2758254.45146    259575.69946  23524343.5144   23524348.5174
      -864.6664
  11365276.23345   8611895.46645  24652551.1284   24652556.8074
     -5594.8604
   1613103.28646   1319151.07746  23551330.4694   23551334.4784
     -2312.8424
   -890895.82245   -617353.65445  24852725.8774   24852729.8724
      1570.9394
  -5299607.39747  -4016690.99646  23178636.8184   23178638.4274
       106.6224
   6603697.57248   5181088.36847  21137636.0974   21137640.1654
     -2942.8794
   4661363.49846   7977040.72746  23279470.7404   23279474.0934
     -3676.5614
 06  4 29  0 28  0.0020000  0  7G 1G 9G 4G25G 2G 5G14
  -2745209.83246    269740.34146  23526825.8424   23526830.2544
      -874.6634
  11449213.16245   8677300.86145  24668523.8314   24668529.2224
     -5596.7794
   1647872.34246   1346243.87346  23557946.8184   23557951.1774
     -2323.0804
   -914436.61145   -635697.12045  24848246.1884   24848250.6654
      1567.8044
  -5301137.91847  -4017883.59346  23178345.5454   23178347.5164
        97.3954
   6647895.04048   5215527.95647  21146046.5864   21146051.0504
     -2950.1574
   4716573.81346   8020061.74746  23289976.9184   23289981.0954
     -3684.8574
 06  4 29  0 28 15.0020000  0  7G 1G 9G 4G25G 2G 5G14
  -2732014.19246    280022.66646  23529336.9084   23529341.3014
      -884.6344
  11533180.12045   8742729.64645  24684502.2564   24684506.0424
     -5598.6734
   1682795.75046   1373456.91746  23564592.5344   23564597.3744
     -2333.2544
   -937929.18345   -654003.00145  24843775.6504   24843780.1804
      1564.6734
  -5302528.82847  -4018967.41046  23178080.8334   23178082.8724
        88.1754
   6692202.58348   5250053.32047  21154478.0244   21154482.5274
     -2957.4034
   4771909.65746   8063180.57046  23300506.9694   23300510.1904
     -3693.1314
 06  4 29  0 28 30.0020000  0  7G 1G 9G 4G25G 2G 5G14
  -2718668.06746    290422.24546  23531876.6234   23531881.7804
      -894.8634
  11617176.45845   8808181.32045  24700486.2644   24700490.1264
     -5600.8124
   1717872.55746   1400789.48446  23571267.4374   23571271.6144
     -2343.6624
   -961373.85945   -672271.55645  24839314.2544   24839319.5274
      1561.2674
  -5303780.31747  -4019942.57146  23177842.6574   23177844.5544
        78.6704
   6736619.64348   5284664.01647  21162930.3094   21162934.9184
     -2964.8864
   4827370.11546   8106396.51646  23311060.7454   23311064.5004
     -3701.6064
 06  4 29  0 28 45.0020000  0  7G 1G 9G 4G25G 2G 5G14
  -2705170.47346    300939.85746  23534445.1394   23534449.8574
      -904.8924
  11701202.67145   8873656.27245  24716475.9184   24716480.3224
     -5602.7374
   1753103.62546   1428242.26346  23577971.7054   23577975.6374
     -2353.8944
   -984769.51645   -690501.92645  24834862.1824   24834865.4794
      1558.0794
  -5304891.22147  -4020808.18946  23177631.2404   23177633.1004
        69.3784
   6781146.85848   5319360.54247  21171403.5584   21171407.6374
     -2972.1514
   4882955.68346   8149709.93446  23321638.3034   23321641.2274
     -3709.8824
 06  4 29  0 29  0.0020000  0  7G 1G 9G 4G25G 2G 5G14
  -2691521.43746    311575.47846  23537042.4694   23537046.8894
      -915.0214
  11785258.48545   8939154.28845  24732471.1864   24732476.1164
     -5604.7264
   1788488.84946   1455815.16646  23584705.3044   23584709.5324
     -2364.1854
  -1008116.02545   -708693.99345  24830419.4704   24830423.6654
      1554.7614
  -5305861.37747  -4021564.13346  23177446.6074   23177448.9274
        59.9564
   6825783.99648   5354142.72847  21179897.7274   21179901.4784
     -2979.5054
   4938666.03646   8193120.57646  23332239.6234   23332242.6894
     -3718.1994
 06  4 29  0 29 15.0020000  0  7G 1G 9G 4G25G 2G 5G14
  -2677721.00146    322329.07946  23539668.6084   23539672.8434
      -925.1344
  11869343.26645   9004674.88845  24748471.9894   24748477.1554
     -5606.6724
   1824027.72446   1483507.79646  23591468.1334   23591471.8604
     -2374.4574
  -1031413.23645   -726847.64545  24825986.1534   24825990.5544
      1551.4554
  -5306690.70547  -4022210.35546  23177288.7864   23177291.5414
        50.5234
   6870530.86848   5389010.42647  21188412.7774   21188416.4504
     -2986.8334
   4994500.55746   8236627.96646  23342864.5774   23342867.6584
     -3726.4974
 06  4 29  0 29 30.0020000  0  7G 1G 9G 4G25G 2G 5G14
  -2663769.37546    333200.46746  23542323.5184   23542327.4264
      -935.0874
  11953456.37945   9070217.54445  24764478.1994   24764484.1294
     -5608.4264
   1859720.06346   1511320.01346  23598260.1514   23598264.1034
     -2384.5314
  -1054661.22345   -744962.91845  24821562.2094   24821567.5534
      1548.2764
  -5307379.24947  -4022746.86746  23177157.7464   23177160.2144
        41.2634
   6915386.99048   5423963.23947  21196948.6154   21196952.2364
     -2993.9914
   5050458.76146   8280231.72946  23353513.0724   23353516.7144
     -3734.6064
 06  4 29  0 29 45.0020000  0  7G 1G 9G 4G25G 2G 5G14
  -2649665.81246    344190.26746  23545007.3494   23545011.3794
      -945.3424
  12037598.40745   9135782.76945  24780489.9074   24780496.6094
     -5610.4604
   1895566.28046   1539252.13646  23605081.4634   23605085.6174
     -2394.9154
  -1077859.04745   -763039.12945  24817147.7944   24817151.9784
      1544.8194
  -5307926.09847  -4023172.96446  23177053.6734   23177055.8754
        31.6904
   6960352.93548   5459001.64547  21205505.3364   21205508.8414
     -3001.4264
   5106540.92846   8323932.11346  23364185.1494   23364189.1084
     -3742.9764
 06  4 29  0 30  0.0020000  0  7G 1G 9G 4G25G 2G 5G14
  -2635410.70946    355298.13646  23547720.0054   23547724.4434
      -955.3464
  12121768.67645   9201369.95145  24796507.0064   24796512.7734
     -5612.2304
   1931565.91746   1567303.80046  23611931.9764   23611935.6434
     -2405.0484
  -1101006.93045   -781076.42845  24812742.8914   24812746.5224
      1541.5724
  -5308331.53647  -4023488.87446  23176976.5094   23176979.0604
        22.3524
   7005428.13248   5494125.18547  21214082.8344   21214086.7104
     -3008.6024
   5162746.33946   8367728.51846  23374880.6964   23374883.6314
     -3751.0794
 06  4 29  0 30 15.0020000  0  7G 1G 9G 4G25G 2G 5G14
  -2621003.69446    366524.38946  23550461.5614   23550465.9844
      -965.5664
  12205966.87545   9266978.92245  24812529.4274   24812535.0784
     -5614.1854
   1967719.21946   1595475.19346  23618811.7414   23618815.0634
     -2415.3554
  -1124104.30445   -799074.36445  24808347.6074   24808351.2004
      1538.1084
  -5308594.91147  -4023694.06746  23176926.3864   23176928.5614
        12.7844
   7050612.71648   5529333.96147  21222681.1534   21222685.2044
     -3015.9914
   5219074.88446   8411620.88446  23385599.6904   23385602.8304
     -3759.3724
 06  4 29  0 30 30.0020000  0  7G 1G 9G 4G25G 2G 5G14
  -2606444.45746    377869.25246  23553232.0674   23553236.8934
      -975.5774
  12290193.14445   9332609.76645  24828557.1444   24828562.9234
     -5615.8944
   2004026.21246   1623766.37046  23625720.7604   23625724.5914
     -2425.4934
  -1147150.68545   -817032.55045  24803962.0064   24803965.9964
      1534.8184
  -5308715.73647  -4023788.20846  23176903.3954   23176905.6594
         3.4134
   7095906.89848   5564628.13547  21231300.3314   21231304.6514
     -3023.1444
   5275526.64046   8455609.26446  23396342.1224   23396344.5424
     -3767.4424
 06  4 29  0 30 45.0020000  0  7G 1G 9G 4G25G 2G 5G14
  -2591735.21846    389331.00246  23556031.1124   23556035.5244
      -985.7054
  12374445.03245   9398260.58945  24844589.7624   24844596.4634
     -5617.7114
   2040484.44546   1652175.36346  23632658.5634   23632661.9924
     -2435.6784
  -1170148.07645   -834952.60245  24799585.7364   24799589.9304
      1531.4244
  -5308696.05947  -4023772.86646  23176907.1384   23176909.5414
        -6.0914
   7141308.16448   5600005.75047  21239939.8844   21239944.0244
     -3030.4024
   5332098.93046   8499691.56646  23407107.4594   23407111.5284
     -3775.5914
 06  4 29  0 31  0.0020000  0  7G 1G 9G 4G25G 2G 5G14
  -2576874.10446    400911.10046  23558859.0554   23558863.6694
      -995.7744
  12458724.07645   9463932.53545  24860627.5584   24860633.2244
     -5619.4764
   2077095.66846   1680703.60646  23639625.4404   23639628.6634
     -2445.8224
  -1193094.44645   -852832.87445  24795219.1824   24795222.8224
      1528.0884
  -5308533.94847  -4023646.52546  23176937.9924   23176939.5734
       -15.5294
   7186818.21748   5635468.13247  21248600.1434   21248604.3334
     -3037.6054
   5388793.29146   8543868.96446  23417896.0544   23417899.0934
     -3783.6564
 06  4 29  0 31 15.0020000  0  7G 1G 9G 4G25G 2G 5G14
  -2561861.22746    412609.45246  23561715.8834   23561720.0104
     -1005.9284
  12543029.71045   9529625.21845  24876670.4114   24876675.9604
     -5621.2634
   2113859.57746   1709350.81446  23646621.3844   23646625.3504
     -2456.0234
  -1215989.77845   -870673.37945  24790862.3444   24790866.4204
      1524.6324
  -5308229.35347  -4023409.16046  23176995.9514   23176998.0294
       -25.0894
   7232436.70448   5671015.01547  21257281.0354   21257285.4114
     -3044.8654
   5445609.27546   8588141.16946  23428707.7994   23428711.1734
     -3791.7964
 06  4 29  0 31 30.0020000  0  7G 1G 9G 4G25G 2G 5G14
  -2546696.04446    424426.47346  23564601.7004   23564605.7054
     -1016.0884
  12627362.11645   9595338.82345  24892718.3254   24892725.7594
     -5623.0324
   2150776.44046   1738117.20646  23653646.4274   23653649.5514
     -2466.2164
  -1238833.32445   -888473.53145  24786515.3434   24786520.2114
      1521.1824
  -5307781.46347  -4023060.14746  23177081.1814   23177082.7244
       -34.6414
   7278163.98748   5706646.66447  21265982.6464   21265987.0894
     -3052.1054
   5502546.91146   8632508.16446  23439542.6774   23439545.8534
     -3799.8784
 06  4 29  0 31 45.0020000  0  7G 1G 9G 4G25G 2G 5G14
  -2531380.14746    436360.94046  23567516.1944   23567520.8824
     -1026.0974
  12711719.31045   9661071.64045  24908770.9804   24908777.1884
     -5624.6584
   2187844.52546   1767001.41346  23660700.2544   23660704.6734
     -2476.2314
  -1261626.40045   -906234.33445  24782177.9224   24782182.0734
      1517.8514
  -5307191.68847  -4022600.56546  23177193.4194   23177195.2254
       -44.0714
   7323998.29548   5742361.71047  21274704.6324   21274708.9524
     -3059.2044
   5559604.13946   8676968.32446  23450400.2794   23450403.5714
     -3807.8074
 06  4 29  0 32  0.0020000  0  7G 1G 9G 4G25G 2G 5G14
  -2515912.39246    448413.73446  23570459.5784   23570464.0514
     -1036.2684
  12796102.39145   9726824.68645  24924828.5564   24924835.2434
     -5626.4164
   2225064.82546   1796004.24146  23667783.0484   23667787.0154
     -2486.4354
  -1284367.75845   -923954.85845  24777850.3504   24777854.8034
      1514.3514
  -5306458.67347  -4022029.37046  23177332.9104   23177334.4814
       -53.6644
   7369940.59648   5778160.91247  21283447.1504   21283451.5564
     -3066.4404
   5616781.79346   8721522.32146  23461280.8354   23461283.4834
     -3815.8884
 06  4 29  0 32 15.0020000  0  7G 1G 9G 4G25G 2G 5G14
  -2500291.67346    460585.72846  23573432.1004   23573436.5464
     -1046.6014
  12880512.03545   9792598.42545  24940891.1854   24940898.1754
     -5628.3094
   2262438.23146   1825126.38046  23674894.9664   23674898.7744
     -2496.7964
  -1307056.04445   -941634.00545  24773532.8964   24773536.1954
      1510.6484
  -5305581.33847  -4021345.72146  23177499.8684   23177501.2684
       -63.4284
   7415991.79348   5814044.96647  21292210.3914   21292214.9594
     -3073.8294
   5674080.67346   8766170.78046  23472184.4584   23472187.8004
     -3824.0734
 06  4 29  0 32 30.0020000  0  7G 1G 9G 4G25G 2G 5G14
  -2484517.32646    472877.42646  23576433.8454   23576439.0274
     -1056.7314
  12964948.50745   9858393.04145  24956958.9154   24956964.4374
     -5629.9674
   2299965.14046   1854368.11146  23682036.1104   23682039.3034
     -2506.9164
  -1329690.39445   -959271.16145  24769225.7214   24769230.3194
      1507.1584
  -5304558.69747  -4020548.84446  23177694.4834   23177696.2084
       -73.0144
   7462152.35748   5850014.23447  21300994.4424   21300998.9304
     -3081.0054
   5731501.01946   8810913.88146  23483111.2054   23483114.4204
     -3832.0664
 06  4 29  0 32 45.0020000  0  7G 1G 9G 4G25G 2G 5G14
  -2468589.18046    485288.96946  23579464.8824   23579469.9154
     -1066.9784
  13049411.54245   9924208.40945  24973031.6984   24973038.0284
     -5631.7084
   2337645.64346   1883729.54546  23689206.4674   23689210.6774
     -2517.1494
  -1352270.44345   -976865.94946  24764928.8694   24764933.1254
      1503.5564
  -5303390.45147  -4019638.52146  23177916.7994   23177918.2274
       -82.7194
   7508422.27948   5886068.71847  21309799.2924   21309803.6144
     -3088.2834
   5789042.71546   8855751.52546  23494061.0234   23494063.6174
     -3840.1304
 06  4 29  0 33  0.0020000  0  7G 1G 9G 4G25G 2G 5G14
  -2452509.22346    497818.81946  23582524.8064   23582528.9944
     -1076.9934
  13133898.76345   9990042.59945  24989109.0414   24989114.2394
     -5633.2274
   2375477.55746   1913208.95546  23696405.6454   23696409.3804
     -2527.1194
  -1374797.98146   -994419.88446  24760642.0384   24760645.4224
      1500.1334
  -5302078.33547  -4018616.09246  23178166.4944   23178167.8624
       -92.2164
   7554799.36348   5922206.69747  21318624.5444   21318628.6884
     -3095.3094
   5846703.28746   8900681.82746  23505033.4844   23505037.3614
     -3847.9344
 06  4 29  0 33 15.0020000  0  7G 1G 9G 4G25G 2G 5G14
  -2436277.01346    510467.29546  23585613.7164   23585618.6194
     -1087.3624
  13218410.43145  10055895.80645  25005191.0774   25005195.8184
     -5635.0384
   2413461.10646   1942806.52346  23703633.6504   23703637.9334
     -2537.4274
  -1397272.42945  -1011932.43446  24756365.3034   24756369.6614
      1496.3954
  -5300621.87447  -4017481.17046  23178443.6654   23178444.8734
      -102.0484
   7601283.86848   5958428.39247  21327470.2284   21327474.4794
     -3102.6684
   5904482.75646   8945704.77346  23516028.5644   23516033.0074
     -3856.0514
 06  4 29  0 33 30.0020000  0  7G 1G 9G 4G25G 2G 5G14
  -2419892.07946    523234.79246  23588731.6974   23588736.0814
     -1097.3084
  13302946.56145  10121768.10645  25021277.7594   25021283.1644
     -5636.4544
   2451596.57846   1972522.46846  23710890.5974   23710894.4064
     -2547.3284
  -1419693.04445  -1029403.00745  24752098.7854   24752102.8714
      1493.0274
  -5299020.42047  -4016233.26546  23178748.4154   23178749.7924
      -111.4814
   7647876.10348   5994734.02247  21336336.4234   21336340.7334
     -3109.6174
   5962381.17346   8990820.41546  23527046.2804   23527049.9204
     -3863.7434
 06  4 29  0 33 45.0020000  0  7G 1G 9G 4G25G 2G 5G14
  -2403354.65446    536121.10646  23591878.6674   23591882.4914
     -1107.5744
  13387506.92345  10187659.27245  25037369.0714   25037374.6904
     -5638.1534
   2489883.55246   2002356.47446  23718176.3624   23718179.4954
     -2557.5034
  -1442059.87545  -1046831.69145  24747842.4844   24747847.1734
      1489.3554
  -5297274.03047  -4014872.43746  23179080.7624   23179082.0034
      -121.2604
   7694575.68048   6031123.29047  21345223.0504   21345227.3214
     -3116.8624
   6020398.07346   9036028.38446  23538086.5274   23538090.8064
     -3871.7204
 06  4 29  0 34  0.0020000  0  7G 1G 9G 4G25G 2G 5G14
  -2386663.27046    549127.37346  23595054.9494   23595059.3644
     -1117.8234
  13472092.49645  10253570.08245  25053465.1634   25053469.8394
     -5639.8074
   2528323.30146   2032309.53046  23725491.1984   23725495.0364
     -2567.6754
  -1464371.33245  -1064217.21145  24743596.7194   24743601.7354
      1485.6544
  -5295380.94947  -4013397.29646  23179441.0044   23179442.3444
      -131.0414
   7741383.73448   6067597.09347  21354130.3264   21354134.6114
     -3124.0954
   6078534.48346   9081329.48846  23549149.5204   23549154.1194
     -3879.6744
 06  4 29  0 34 15.0020000  0  7G 1G 9G 4G25G 2G 5G14
  -2369817.95246    562253.61046  23598260.5374   23598264.6934
     -1128.1414
  13556702.71745  10319500.10245  25069565.9154   25069569.9194
     -5641.4804
   2566915.50446   2062381.37246  23732835.0264   23732838.7894
     -2577.8794
  -1486627.13645  -1081559.36945  24739361.5434   24739366.3114
      1481.8954
  -5293341.07247  -4011807.75646  23179829.1734   23179830.6884
      -140.8654
   7788300.16348   6104155.34347  21363058.2294   21363062.3694
     -3131.3584
   6136789.89946   9126723.30546  23560235.1704   23560239.3844
     -3887.6404
 06  4 29  0 34 30.0020000  0  7G 1G 9G 4G25G 2G 5G14
  -2352820.37746    575498.47346  23601495.0814   23601499.2844
     -1138.3164
  13641335.70345  10385447.84545  25085671.0464   25085675.4004
     -5643.0234
   2605658.39946   2092570.62546  23740207.5524   23740211.1514
     -2587.9434
  -1508828.84045  -1098859.39345  24735136.6454   24735142.1664
      1478.2544
  -5291155.93647  -4010105.05746  23180244.9804   23180246.1684
      -150.5854
   7835323.09348   6140796.58047  21372006.4094   21372010.3514
     -3138.4724
   6195162.35246   9172208.32046  23571343.1064   23571347.1664
     -3895.4524
 06  4 29  0 34 45.0020000  0  7G 1G 9G 4G25G 2G 5G14
  -2335668.88846    588863.27946  23604758.9224   23604762.8714
     -1148.5334
  13725992.80245  10451414.40445  25101780.7964   25101786.2524
     -5644.5994
   2644553.45846   2122878.47046  23747609.0414   23747613.3484
     -2598.0584
  -1530974.52845  -1116115.74745  24730922.4304   24730927.2774
      1474.5354
  -5288823.82247  -4008287.80046  23180688.7474   23180690.2744
      -160.3504
   7882453.93448   6177521.91547  21380975.1224   21380978.6384
     -3145.6324
   6253652.96746   9217785.40746  23582473.5044   23582476.7694
     -3903.2994
 06  4 29  0 35  0.0020000  0  7G 1G 9G 4G25G 2G 5G14
  -2318364.05846    602347.56146  23608051.9254   23608055.7204
     -1158.7654
  13810673.31045  10517399.20145  25117895.0144   25117899.0344
     -5646.1414
   2683599.94346   2153304.29946  23755039.3264   23755043.3674
     -2608.1564
  -1553064.51845  -1133328.69645  24726718.8024   24726723.2174
      1470.8004
  -5286344.99947  -4006356.23146  23181160.4174   23181162.4244
      -170.1494
   7929692.02748   6214330.82147  21389964.2364   21389967.9774
     -3152.7814
   6312261.04046   9263454.02246  23593626.2574   23593629.4614
     -3911.1044
 06  4 29  0 35 15.0020000  0  7G 1G 9G 4G25G 2G 5G14
  -2300905.48246    615951.66646  23611374.1714   23611378.1694
     -1168.9944
  13895377.20345  10583402.24245  25134013.6514   25134018.5784
     -5647.6834
   2722797.99346   2183848.23046  23762498.4664   23762503.0084
     -2618.2024
  -1575098.20045  -1150497.77345  24722525.8914   24722530.7774
      1467.0574
  -5283718.86547  -4004309.88146  23181660.1184   23181662.1514
      -179.9644
   7977037.62248   6251223.49647  21398973.8064   21398977.9104
     -3159.9304
   6370986.55346   9309214.13746  23604801.3534   23604804.6474
     -3918.9174
 06  4 29  0 35 30.0020000  0  7G 1G 9G 4G25G 2G 5G14
  -2283293.96546    629674.93346  23614725.5114   23614730.0874
     -1179.1564
  13980103.25445  10649422.53345  25150136.5084   25150142.2214
     -5649.0974
   2762146.71146   2214509.55646  23769986.2734   23769991.1054
     -2628.2484
  -1597076.18745  -1167623.46145  24718343.5754   24718347.7084
      1463.3844
  -5280946.05347  -4002149.24146  23182187.7404   23182190.0634
      -189.7154
   8024489.68748   6288199.12947  21408003.6404   21408008.0614
     -3166.9634
   6429828.32346   9355064.83546  23615998.5644   23616002.8444
     -3926.5864
 06  4 29  0 35 45.0020000  0  7G 1G 9G 4G25G 2G 5G14
  -2265530.50546    643516.59446  23618105.7584   23618109.9094
     -1189.3154
  14064850.13545  10715459.01845  25166263.2904   25166267.7384
     -5650.5294
   2801644.79046   2245287.29246  23777502.4834   23777507.1834
     -2638.2114
  -1618999.31745  -1184706.40945  24714171.6914   24714175.9034
      1459.6914
  -5278027.48947  -3999875.01246  23182743.0904   23182745.1224
      -199.4614
   8072046.99748   6325256.77647  21417053.5084   21417058.3924
     -3174.0084
   6488784.78346   9401004.92246  23627217.6194   23627221.0544
     -3934.2564
 06  4 29  0 36  0.0020000  0  7G 1G 9G 4G25G 2G 5G14
  -2247614.04846    657477.47546  23621515.1344   23621518.9984
     -1199.5924
  14149618.64345  10781512.36045  25182394.1424   25182398.9384
     -5652.0314
   2841293.18746   2276182.14546  23785047.3134   23785052.9634
     -2648.2994
  -1640866.30145  -1201745.60845  24710010.5224   24710014.9264
      1455.8754
  -5274961.84747  -3997486.19846  23183326.4454   23183328.4874
      -209.3324
   8119710.44048   6362397.12447  21426123.5644   21426128.2674
     -3181.1564
   6547856.85746   9447035.08546  23638458.6874   23638461.9374
     -3942.0354
 06  4 29  0 36 15.0020000  0  7G 1G 9G 4G25G 2G 5G14
  -2229544.06346    671557.97546  23624953.7304   23624957.9304
     -1209.7844
  14234409.13945  10847582.89645  25198529.2614   25198534.9704
     -5653.4254
   2881092.24146   2307194.37546  23792620.8254   23792625.8564
     -2658.2744
  -1662676.36145  -1218740.44045  24705860.2064   24705864.3234
      1452.1014
  -5271748.53947  -3994982.30846  23183937.9054   23183940.0824
      -219.1504
   8167480.47548   6399620.52447  21435213.9014   21435218.3684
     -3188.2224
   6607044.65646   9493155.42746  23649721.7454   23649725.1634
     -3949.6864
 06  4 29  0 36 30.0020000  0  7G 1G 9G 4G25G 2G 5G14
  -2211320.08346    685758.49246  23628421.6084   23628425.5414
     -1220.0264
  14319221.78945  10913670.66045  25214668.6204   25214674.1664
     -5654.8674
   2921042.17046   2338324.20346  23800223.0514   23800227.2674
     -2668.3094
  -1684428.73945  -1235690.31846  24701720.8654   24701724.8344
      1448.2694
  -5268386.83847  -3992362.79346  23184577.6224   23184579.3394
      -229.0254
   8215357.32148   6436927.16347  21444324.5634   21444328.8214
     -3195.3164
   6666348.19645   9539365.95146  23661006.8084   23661010.6924
     -3957.3694
 06  4 29  0 36 45.0020000  0  7G 1G 9G 4G25G 2G 5G14
  -2192942.80146    700078.44546  23631918.6374   23631922.5944
     -1230.2544
  14404055.62745  10979774.93045  25230811.9964   25230818.4864
     -5656.2754
   2961142.05946   2369570.86846  23807853.8144   23807858.2604
     -2678.3204
  -1706123.91945  -1252595.64646  24697592.4104   24697596.8004
      1444.4584
  -5264877.22947  -3989628.02246  23185245.4854   23185247.0714
      -238.8984
   8263340.15148   6474316.37647  21453455.4024   21453459.8644
     -3202.3704
   6725766.49545   9585665.89246  23672313.7494   23672317.9744
     -3965.0194
 06  4 29  0 37  0.0020000  0  7G 1G 9G 4G25G 2G 5G14
  -2174412.19746    714517.88846  23635444.8544   23635450.1314
     -1240.4704
  14488910.22045  11045895.40045  25246959.3054   25246966.0924
     -5657.6354
   3001392.01346   2400934.45946  23815513.1504   23815516.6714
     -2688.2984
  -1727761.68445  -1269456.22145  24693474.8744   24693478.7644
      1440.6314
  -5261219.52847  -3986777.85646  23185941.5084   23185942.9194
      -248.7624
   8311428.86148   6511788.09447  21462606.3894   21462610.6774
     -3209.4204
   6785299.24146   9632055.02946  23683642.4794   23683646.6994
     -3972.6344
 06  4 29  0 37 15.0020000  0  7G 1G 9G 4G25G 2G 5G14
  -2155729.35646    729075.93946  23639000.0424   23639004.6764
     -1250.5444
  14573784.14945  11112030.88745  25263110.2784   25263114.2534
     -5658.8734
   3041790.52046   2432413.81546  23823200.7334   23823204.0314
     -2698.1384
  -1749342.91945  -1286272.74646  24689368.0964   24689371.1434
      1436.9004
  -5257414.67647  -3983813.02846  23186665.5464   23186666.7154
      -258.5504
   8359622.14748   6549341.29947  21471777.2744   21471781.3304
     -3216.3344
   6844944.85446   9678532.12446  23694992.6774   23694996.0964
     -3980.0914
 06  4 29  0 37 30.0020000  0  7G 1G 9G 4G25G 2G 5G14
  -2136893.96646    743752.87146  23642584.2794   23642588.6394
     -1260.7004
  14658677.44545  11178181.51945  25279264.9074   25279270.2844
     -5660.1064
   3082337.76946   2464009.06946  23830916.6274   23830919.6474
     -2708.0364
  -1770867.01546  -1303044.75145  24685272.1714   24685275.0664
      1433.1004
  -5253462.21147  -3980733.16846  23187417.6644   23187418.9204
      -268.3554
   8407920.14048   6586976.08847  21480968.0894   21480972.1364
     -3223.2784
   6904703.31146   9725097.13046  23706364.3374   23706367.0494
     -3987.5734
 06  4 29  0 37 45.0020000  0  7G 1G 9G 4G25G 2G 5G14
  -2117905.63146    758548.97846  23646197.6254   23646202.1034
     -1270.9734
  14743590.24145  11244347.27745  25295423.2674   25295428.5574
     -5661.4584
   3123034.01646   2495720.42846  23838660.8524   23838664.4894
     -2718.0134
  -1792333.39046  -1319771.78246  24681187.2724   24681189.9394
      1429.1944
  -5249361.49047  -3977537.79646  23188197.9944   23188199.5694
      -278.2934
   8456323.06348   6624692.64747  21490178.8704   21490182.6644
     -3230.3244
   6964574.68446   9771750.09646  23717757.4824   23717760.9264
     -3995.1614
 06  4 29  0 38  0.0020000  0  7G 1G 9G 4G25G 2G 5G14
  -2098764.24546    773464.34046  23649840.1194   23649843.8204
     -1281.2894
  14828522.27145  11310528.07545  25311585.3234   25311591.9964
     -5662.8744
   3163879.07546   2527547.74246  23846433.4124   23846437.4804
     -2728.0524
  -1813741.77246  -1336453.63346  24677113.4084   24677116.8404
      1425.1994
  -5245112.26047  -3974226.70546  23189006.5934   23189008.3394
      -288.3274
   8504830.88248   6662490.94347  21499409.6124   21499413.8014
     -3237.4434
   7024558.64846   9818490.83046  23729172.0914   23729175.9514
     -4002.7564
 06  4 29  0 38 15.0020000  0  7G 1G 9G 4G25G 2G 5G14
  -2079467.59246    788500.70446  23653512.1454   23653517.0244
     -1291.6334
  14913475.48345  11376725.37345  25327751.4294   25327756.9904
     -5664.2724
   3204875.01946   2559492.61846  23854234.6754   23854238.7434
     -2738.0964
  -1835089.64946  -1353088.33846  24673051.0484   24673054.8044
      1421.1544
  -5240712.12547  -3970798.02946  23189843.9174   23189845.7924
      -298.3794
   8553445.59148   6700372.53447  21508660.6894   21508664.6014
     -3244.5514
   7084656.92446   9865320.61046  23740608.4544   23740612.2684
     -4010.3764
 06  4 29  0 38 30.0020000  0  7G 1G 9G 4G25G 2G 5G14
  -2060017.39146    803656.69146  23657213.4204   23657218.5464
     -1301.7994
  14998448.00445  11442937.70045  25343921.2054   25343925.4214
     -5665.4494
   3246019.89046   2591553.56646  23862064.2564   23862068.5594
     -2747.9404
  -1856378.49546  -1369677.01646  24668999.9184   24669004.3894
      1417.2914
  -5236162.60247  -3967252.92246  23190709.6594   23190711.5444
      -308.2774
   8602165.37848   6738336.00147  21517931.7584   21517935.6034
     -3251.4794
   7144867.63346   9912238.02346  23752066.2124   23752070.0814
     -4017.7784
 06  4 29  0 38 45.0030000  0  7G 1G 9G 4G25G 2G 5G14
  -2040413.70546    818932.30946  23660943.8794   23660949.0144
     -1311.9234
  15083443.69745  11509168.10245  25360095.3984   25360099.2854
     -5666.6184
   3287314.96646   2623731.54846  23869922.4264   23869926.6944
     -2757.7614
  -1877610.86646  -1386221.70946  24664959.5194   24664964.3304
      1413.4214
  -5231464.62947  -3963592.15246  23191603.6454   23191605.3954
      -318.1474
   8650991.95148   6776382.68247  21527223.1504   21527226.9014
     -3258.3724
   7205193.05646   9959244.86046  23763545.7884   23763549.1234
     -4025.1454
 06  4 29  0 39  0.0030000  0  7G 1G 9G 4G25G 2G 5G14
  -2020657.47346    834326.77246  23664703.3724   23664708.4544
     -1322.1994
  15168452.78545  11575408.95545  25376272.1014   25376277.3034
     -5667.8834
   3328756.26046   2656023.45246  23877808.4234   23877812.6664
     -2767.6804
  -1898781.98746  -1402718.67446  24660930.7734   24660935.8764
      1409.4244
  -5226616.97547  -3959814.75246  23192526.1244   23192527.9344
      -328.1554
   8699920.28148   6814508.64847  21536533.9124   21536537.8994
     -3265.3544
   7265626.45846  10006335.83846  23775045.9134   23775049.9484
     -4032.5814
 06  4 29  0 39 15.0030000  0  7G 1G 9G 4G25G 2G 5G14
  -2000747.99046    849840.65346  23668492.0314   23668496.7824
     -1332.3984
  15253479.89345  11641663.83745  25392452.2224   25392457.8094
     -5669.0564
   3370345.54246   2688430.70746  23885722.5814   23885726.9834
     -2777.5584
  -1919893.72146  -1419169.35946  24656913.3674   24656917.8874
      1405.4514
  -5221619.78047  -3955920.81846  23193477.0574   23193478.6984
      -338.1454
   8748952.86248   6852715.85047  21545864.5254   21545868.5994
     -3272.3184
   7326170.69946  10053513.13846  23786567.1034   23786570.6984
     -4039.9654
 06  4 29  0 39 30.0030000  0  7G 1G 9G 4G25G 2G 5G14
  -1980684.63946    865474.44046  23672309.9744   23672313.9344
     -1342.6454
  15338525.18545  11707932.82645  25408635.8444   25408641.3944
     -5670.2564
   3412083.47246   2720953.75146  23893665.0294   23893669.5874
     -2787.4654
  -1940945.10546  -1435573.04046  24652907.4334   24652912.7674
      1401.4384
  -5216472.27747  -3951909.78046  23194456.5934   23194457.8434
      -348.1484
   8798090.17148   6891004.65847  21555215.0624   21555219.2064
     -3279.2694
   7386826.24746  10100777.17646  23798109.4844   23798113.1424
     -4047.3664
 06  4 29  0 39 45.0030000  0  7G 1G 9G 4G25G 2G 5G14
  -1960468.40646    881227.34446  23676157.0214   23676161.1754
     -1352.8584
  15423587.47945  11774215.15145  25424822.7424   25424829.3874
     -5671.3864
   3453968.86046   2753591.71946  23901635.5544   23901639.8504
     -2797.2884
  -1961936.96746  -1451930.29346  24648912.8244   24648917.4244
      1397.4534
  -5211175.18347  -3947782.16546  23195464.5944   23195466.4304
      -358.1344
   8847331.07648   6929374.19747  21564585.3054   21564589.4324
     -3286.2014
   7447591.73845  10148126.89046  23809672.7794   23809675.8144
     -4054.6994
 06  4 29  0 40  0.0030000  0  7G 1G 9G 4G25G 2G 5G14
  -1940099.09246    897099.54446  23680033.1944   23680037.4424
     -1363.0854
  15508666.86045  11840510.74545  25441012.8504   25441015.9914
     -5672.5254
   3496001.55646   2786344.45546  23909634.1384   23909638.0774
     -2807.0954
  -1982868.74646  -1468240.76546  24644929.6274   24644934.2534
      1393.4354
  -5205728.16247  -3943537.72146  23196501.1184   23196502.6274
      -368.1504
   8896675.70048   6967824.55647  21573975.2844   21573979.6594
     -3293.1074
   7508466.90945  10195562.09646  23821256.9164   23821261.1964
     -4062.0134
 06  4 29  0 40 15.0030000  0  7G 1G 9G 4G25G 2G 5G14
  -1919575.31546    913092.10146  23683938.7464   23683943.2674
     -1373.4004
  15593764.47645  11906820.57645  25457206.3874   25457210.0634
     -5673.7674
   3538182.87446   2819213.01946  23917660.9914   23917664.4244
     -2817.0144
  -2003738.91845  -1484503.21646  24640958.1214   24640962.9314
      1389.2884
  -5200129.68347  -3939175.25546  23197566.4564   23197568.1964
      -378.2914
   8946125.17548   7006356.62547  21583385.2084   21583389.6234
     -3300.1194
   7569452.83145  10243083.56346  23832862.1624   23832866.1064
     -4069.4114
 06  4 29  0 40 30.0030000  0  7G 1G 9G 4G25G 2G 5G14
  -1898898.16546    929204.16946  23687873.4984   23687878.4564
     -1383.7094
  15678878.77245  11973143.40345  25473403.0854   25473406.7694
     -5674.9684
   3580511.47746   2852196.33746  23925715.8704   23925720.5494
     -2826.9284
  -2024548.29945  -1500718.28846  24636998.2044   24637004.1294
      1385.1364
  -5194380.58547  -3934695.43246  23198660.4504   23198662.8994
      -388.4334
   8995678.18648   7044969.36847  21592814.8344   21592819.1514
     -3307.1204
   7630548.01345  10290690.21146  23844488.1814   23844491.6124
     -4076.7794
 06  4 29  0 40 45.0030000  0  7G 1G 9G 4G25G 2G 5G14
  -1878066.08046    945436.96446  23691837.7174   23691842.3664
     -1393.9794
  15764011.01345  12039480.16645  25489603.2054   25489608.1914
     -5676.0754
   3622988.76946   2885295.51846  23933799.0424   23933803.5634
     -2836.7704
  -2045295.17945  -1516884.67946  24633050.1684   24633055.0534
      1381.0404
  -5188479.20447  -3930096.94846  23199783.4164   23199785.2544
      -398.5024
   9045336.17848   7083663.90847  21602264.4364   21602268.7044
     -3314.0314
   7691753.70545  10338382.92346  23856135.2294   23856138.2894
     -4084.0594
 06  4 29  0 41  0.0030000  0  7G 1G 9G 4G25G 2G 5G14
  -1857079.62646    961790.05246  23695831.3004   23695835.8604
     -1404.2274
  15849160.48445  12105830.44045  25505806.6264   25505812.7064
     -5677.1854
   3665613.92346   2918509.93446  23941910.3724   23941914.0004
     -2846.5784
  -2065979.77345  -1533002.52846  24629113.9934   24629119.3734
      1376.9014
  -5182426.01147  -3925380.15146  23200935.2674   23200937.5714
      -408.5854
   9095098.43248   7122439.68547  21611733.8734   21611737.8984
     -3320.9444
   7753068.98945  10386161.05746  23867803.1244   23867807.4484
     -4091.2994
 06  4 29  0 41 15.0030000  0  7G 1G 9G 4G25G 2G 5G14
  -1835940.63546    978261.99846  23699853.9044   23699858.4744
     -1414.4134
  15934325.08445  12172192.43345  25522012.9124   25522016.8814
     -5678.1914
   3708385.02546   2951838.05446  23950049.4494   23950053.3954
     -2856.3234
  -2086603.65046  -1549073.03646  24625189.3674   24625193.7234
      1372.8324
  -5176222.51847  -3920546.25546  23202115.7274   23202118.1544
      -418.6544
   9144963.03348   7161295.21947  21621222.7974   21621226.8564
     -3327.7674
   7814491.60045  10434022.80046  23879491.4444   23879495.6284
     -4098.4824
 06  4 29  0 41 30.0030000  0  7G 1G 9G 4G25G 2G 5G14
  -1814647.86046    994853.76946  23703905.7704   23703910.5254
     -1424.5714
  16019505.46545  12238566.74045  25538222.2274   25538227.8834
     -5679.1434
   3751303.05946   2985280.68846  23958216.4894   23958221.0394
     -2866.0204
  -2107165.36146  -1565095.15346  24621276.5674   24621280.9844
      1368.7654
  -5169867.25847  -3915594.09446  23203325.0704   23203326.7904
      -428.6784
   9194930.99248   7200231.29747  21630731.3854   21630735.3394
     -3334.5934
   7876022.39745  10481968.83746  23891200.3764   23891204.5824
     -4105.5884
 06  4 29  0 41 45.0030000  0  7G 1G 9G 4G25G 2G 5G14
  -1793200.38946   1011566.08646  23707987.0824   23707991.6764
     -1435.0464
  16104702.37445  12304953.96745  25554434.6564   25554441.3844
     -5680.3974
   3794368.76446   3018838.37246  23966411.6424   23966415.9104
     -2876.0174
  -2127663.73645  -1581067.88146  24617375.8014   24617379.6754
      1364.3734
  -5163359.35147  -3910522.98546  23204563.4674   23204565.3524
      -439.0074
   9245003.09748   7239248.52047  21640259.7924   21640263.5424
     -3341.6724
   7937661.99345  10529999.69946  23902930.0164   23902934.3944
     -4113.0014
 06  4 29  0 42  0.0030000  0  7G 1G 9G 4G25G 2G 5G14
  -1771599.21646   1028398.17246  23712097.6314   23712101.9444
     -1445.2174
  16189914.88644  12371353.26145  25570650.0534   25570655.9804
     -5681.3694
   3837580.97346   3052510.23946  23974634.6584   23974638.8464
     -2885.7124
  -2148099.43645  -1596991.78946  24613486.9634   24613491.4374
      1360.2584
  -5156699.53647  -3905333.51846  23205830.7614   23205832.6084
      -449.0904
   9295178.21048   7278346.02047  21649807.8024   21649811.6924
     -3348.4724
   7999409.04145  10578114.24046  23914680.1084   23914683.3824
     -4120.0654
 06  4 29  0 42 15.0030000  0  7G 1G 9G 4G25G 2G 5G14
  -1749844.87946   1045349.60446  23716237.3144   23716241.7984
     -1455.4134
  16275142.12744  12437764.10445  25586868.2754   25586872.5184
     -5682.2934
   3880938.90746   3086295.63246  23982885.4284   23982888.7604
     -2895.3974
  -2168472.80145  -1612867.11646  24609609.9934   24609614.8164
      1356.1224
  -5149888.12347  -3900025.92846  23207126.9144   23207128.6144
      -459.1674
   9345455.67648   7317523.27047  21659375.2744   21659379.1454
     -3355.2594
   8061262.65645  10626311.85246  23926450.4624   23926454.0134
     -4127.1314
 06  4 29  0 42 30.0030000  0  7G 1G 9G 4G25G 2G 5G14
  -1727937.18146   1062420.54846  23720406.1734   23720410.4244
     -1465.6084
  16360383.78644  12504186.14345  25603089.2444   25603094.1174
     -5683.2454
   3924442.70646   3120194.69346  23991163.9334   23991167.3664
     -2905.0904
  -2188783.35146  -1628693.49246  24605744.9884   24605749.8594
      1351.9524
  -5142924.75347  -3894599.91646  23208451.9774   23208453.7814
      -469.2784
   9395835.52048   7356780.28647  21668962.2324   21668966.0914
     -3362.0444
   8123222.59845  10674592.32546  23938241.0704   23938244.0744
     -4134.1774
 06  4 29  0 42 45.0030000  0  7G 1G 9G 4G25G 2G 5G14
  -1705875.33446   1079611.60046  23724604.3764   23724609.3064
     -1475.9054
  16445640.47745  12570619.96145  25619313.0514   25619317.4954
     -5684.2374
   3968092.95546   3154207.87246  23999470.2904   23999474.6734
     -2914.8874
  -2209030.03246  -1644470.11846  24601892.1894   24601896.3344
      1347.6814
  -5135808.48347  -3889054.77146  23209806.1454   23209808.0874
      -479.4854
   9446318.41048   7396117.60347  21678568.7894   21678572.5234
     -3368.9304
   8185289.47245  10722956.10946  23950052.0124   23950055.9834
     -4141.3214
 06  4 29  0 43  0.0030000  0  7G 1G 9G 4G25G 2G 5G14
  -1683658.93746   1096923.07446  23728831.9914   23728835.7834
     -1486.2154
  16530912.29145  12637065.48545  25635539.7934   25635543.9934
     -5685.2504
   4011889.84346   3188335.30546  24007804.5644   24007809.1464
     -2924.6544
  -2229212.20446  -1660196.46646  24598051.6524   24598056.6554
      1343.3404
  -5128538.68147  -3883389.98046  23211189.5374   23211191.3624
      -489.7464
   9496904.55648   7435535.38047  21688195.0084   21688198.9374
     -3375.8284
   8247463.35145  10771403.27146  23961883.3034   23961887.5534
     -4148.4474
 06  4 29  0 43 15.0030000  0  7G 1G 9G 4G25G 2G 5G14
  -1661289.13346   1114354.08746  23733088.8044   23733093.3074
     -1496.4034
  16616197.75345  12703521.69545  25651769.1024   25651774.5454
     -5686.1204
   4055831.96146   3222575.92446  24016166.4734   24016170.6124
     -2934.2904
  -2249330.75746  -1675873.24546  24594223.2134   24594227.8254
      1339.1474
  -5121116.37447  -3877606.35146  23212601.9674   23212603.8174
      -499.8734
   9547592.76848   7475032.68647  21697840.6554   21697844.9884
     -3382.5744
   8309742.52845  10819932.47446  23973734.6544   23973738.3294
     -4155.4194
 06  4 29  0 43 30.0030000  0  7G 1G 9G 4G25G 2G 5G14
  -1638765.69146   1131904.82446  23737374.8804   23737379.6064
     -1506.7424
  16701497.04444  12769988.64945  25668001.0324   25668008.3584
     -5687.1274
   4099919.34546   3256929.72446  24024555.9994   24024560.7014
     -2944.0564
  -2269385.20946  -1691500.08846  24590406.9724   24590411.0114
      1334.7644
  -5113541.25247  -3871703.65846  23214043.4874   23214045.2684
      -510.1714
   9598382.99448   7514609.48147  21707505.7204   21707509.8674
     -3389.4744
   8372127.07245  10868543.81146  23985606.0414   23985609.5984
     -4162.5214
 06  4 29  0 43 45.0030000  0  7G 1G 9G 4G25G 2G 5G14
  -1616089.05446   1149574.92746  23741690.1234   23741695.1544
     -1516.9004
  16786809.31944  12836465.70645  25684235.4064   25684241.7794
     -5687.9224
   4144151.49946   3291396.31946  24032973.0724   24032977.3344
     -2953.6494
  -2289375.64746  -1707077.03046  24586602.9214   24586606.5004
      1330.5474
  -5105813.42247  -3865681.96246  23215514.0454   23215515.7354
      -520.2924
   9649274.74548   7554265.38547  21717190.1084   21717194.1604
     -3396.1704
   8434616.14345  10917236.57346  23997497.3054   23997502.0754
     -4169.4214
 06  4 29  0 44  0.0030000  0  7G 1G 9G 4G25G 2G 5G14
  -1593259.06646   1167364.53846  23746034.5354   23746039.6714
     -1527.1574
  16872134.52844  12902952.91045  25700472.2014   25700477.4724
     -5688.8264
   4188528.41046   3325975.73846  24041417.7024   24041421.8864
     -2963.3064
  -2309301.67646  -1722603.81246  24582811.1524   24582813.7134
      1326.2124
  -5097932.58047  -3859541.04346  23217013.7124   23217015.8904
      -530.5324
   9700268.07248   7594000.44847  21726893.8244   21726897.7564
     -3402.9744
   8497209.37245  10966010.50746  24009408.4304   24009413.4584
     -4176.3904
 06  4 29  0 44 15.0030000  0  7G 1G 9G 4G25G 2G 5G14
  -1570274.71446   1185274.41546  23750408.3194   23750412.9994
     -1537.5464
  16957473.62844  12969450.88945  25716711.7134   25716718.4974
     -5689.8264
   4233050.79846   3360668.51046  24049889.9984   24049894.3194
     -2973.1214
  -2329161.97746  -1738079.36446  24579031.8854   24579034.5824
      1321.7304
  -5089897.56647  -3853279.98446  23218542.7004   23218544.6854
      -540.9044
   9751363.76648   7633815.27347  21736617.0144   21736620.9044
     -3409.8914
   8559907.61345  11014866.22946  24021339.5354   24021343.1784
     -4183.4714
 06  4 29  0 44 30.0030000  0  7G 1G 9G 4G25G 2G 5G14
  -1547135.71946   1203304.81046  23754811.5304   23754816.5044
     -1547.7924
  17042826.43744  13035959.54045  25732953.8224   25732958.1774
     -5690.6844
   4277718.83846   3395474.76246  24058390.0074   24058394.1144
     -2982.7444
  -2348956.04546  -1753503.29746  24575265.2094   24575268.5654
      1317.3584
  -5081707.93347  -3846898.44946  23220101.1094   23220102.9994
      -551.1554
   9802562.05048   7673710.03747  21746359.7224   21746363.8434
     -3416.6684
   8622710.71245  11063803.72246  24033290.6054   24033295.1604
     -4190.3934
 06  4 29  0 44 45.0030000  0  7G 1G 9G 4G25G 2G 5G14
  -1523842.59246   1221455.30046  23759244.0704   23759249.0454
     -1557.9484
  17128192.08444  13102478.22545  25749198.3724   25749202.7994
     -5691.4024
   4322531.70146   3430393.87546  24066917.5964   24066921.7724
     -2992.2974
  -2368684.08546  -1768875.77646  24571511.0924   24571514.5434
      1313.0664
  -5073364.02347  -3840396.69846  23221688.9174   23221690.8554
      -561.3534
   9853862.23748   7713684.20347  21756121.8174   21756125.6954
     -3423.3464
   8685617.68845  11112822.09846  24045261.4364   24045266.2414
     -4197.1974
 06  4 29  0 45  0.0030000  0  7G 1G 9G 4G25G 2G 5G14
  -1500395.99846   1239725.36246  23763705.8264   23763710.7584
     -1568.3344
  17213569.90444  13169006.36345  25765445.2494   25765447.8424
     -5692.3884
   4367488.77446   3465425.34946  24075472.6334   24075476.6304
     -3002.0584
  -2388346.51746  -1784197.15046  24567769.4294   24567773.6864
      1308.5294
  -5064866.14547  -3833774.97346  23223306.0294   23223307.3884
      -571.7774
   9905263.56648   7753737.18447  21765903.1564   21765906.8014
     -3430.2404
   8748627.80545  11161920.90746  24057251.8904   24057256.0484
     -4204.2264
 06  4 29  0 45 15.0030000  0  7G 1G 9G 4G25G 2G 5G14
  -1476795.21546   1258115.59346  23768196.9104   23768201.7454
     -1578.5194
  17298960.29544  13235544.32545  25781694.4944   25781699.7294
     -5693.1094
   4412590.49646   3500569.53546  24084055.2244   24084059.2914
     -3011.6074
  -2407942.25846  -1799466.52746  24564040.4674   24564044.3794
      1304.1544
  -5056213.57547  -3827032.70646  23224952.5924   23224953.5874
      -582.0024
   9956766.61448   7793869.42547  21775703.8464   21775707.5314
     -3436.9264
   8811741.33645  11211100.24346  24069262.0164   24069265.5134
     -4211.0054
 06  4 29  0 45 30.0030000  0  7G 1G 9G 4G25G 2G 5G14
  -1453040.55846   1276625.71846  23772717.2904   23772722.0514
     -1588.8004
  17384362.69944  13302091.60645  25797946.0174   25797951.9254
     -5693.9024
   4457836.24946   3535825.96146  24092665.2244   24092670.0664
     -3021.2074
  -2427471.45046  -1814684.09546  24560324.1494   24560328.2404
      1299.6954
  -5047406.48547  -3820170.04146  23226628.5524   23226629.4124
      -592.3154
  10008370.92648   7834080.57847  21785523.8034   21785527.9524
     -3443.6714
   8874957.61845  11260359.69046  24081291.6934   24081295.9434
     -4217.8674
 06  4 29  0 45 45.0030000  0  7G 1G 9G 4G25G 2G 5G14
  -1429131.45246   1295256.18546  23777267.0584   23777271.9474
     -1598.9804
  17469777.27844  13368648.40545  25814199.8854   25814206.4414
     -5694.6054
   4503226.61646   3571195.07346  24101302.7474   24101307.7444
     -3030.7374
  -2446933.17346  -1829849.00246  24556620.6944   24556624.5974
      1295.3024
  -5038444.04147  -3813186.30546  23228334.0484   23228335.0364
      -602.5804
  10060076.92948   7874370.96147  21795363.1124   21795367.2684
     -3450.3734
   8938277.02145  11309699.47746  24093340.9774   24093344.7904
     -4224.6154
 06  4 29  0 46  0.0030000  0  7G 1G 9G 4G25G 2G 5G14
  -1405068.58546   1314006.47446  23781846.0824   23781851.2944
     -1609.2594
  17555203.23245  13435214.07845  25830455.9484   25830462.8084
     -5695.4064
   4548760.67546   3606676.16446  24109967.5874   24109973.1244
     -3040.3464
  -2466327.81946                  24552930.0154
      1290.7994
  -5029326.61147  -3806081.81346  23230069.0284   23230070.1494
      -612.9414
  10111883.91048   7914740.02947  21805221.6504   21805226.3344
     -3457.0934
   9001698.32745  11359118.62146  24105409.6534   24105414.2464
     -4231.4184
 06  4 29  0 46 15.0030000  0  7G 1G 9G 4G25G 2G 5G14
  -1380851.54946   1332876.89346  23786454.4354   23786459.3134
     -1619.6814
  17640640.94245  13501788.91345  25846714.2304   25846718.6494
     -5696.3094
   4594438.53646   3642269.29646  24118659.8044   24118664.6084
     -3050.0584
  -2485654.71846                  24549252.2364
      1286.1164
  -5020053.82247  -3798856.26046  23231833.5704   23231835.1554
      -623.4454
  10163792.05248   7955187.93447  21815099.4364   21815103.8414
     -3463.9834
   9065221.64845  11408617.30645  24117497.7564   24117502.9104
     -4238.3734
 06  4 29  0 46 30.0030000  0  7G 1G 9G 4G25G 2G 5G14
  -1356480.02346   1351867.69646  23791092.1734   23791096.6884
     -1629.9624
  17726090.22245  13568372.77645  25862974.7204   25862978.2974
     -5697.0314
   4640260.45646   3677974.68746  24127379.4294   24127383.3084
     -3059.6524
  -2504913.25946                  24545587.4494
      1281.5904
  -5010625.18947  -3791509.24746  23233627.7494   23233629.6004
      -633.8184
  10215801.50748   7995714.78147  21824996.5094   21825001.3294
     -3470.7204
   9128847.01745  11458195.48846  24129605.2764   24129609.9694
     -4245.1144
 06  4 29  0 46 45.0030000  0  7G 1G 9G 4G25G 2G 5G14
  -1331954.04746   1370978.84846  23795759.3164   23795763.6744
     -1640.2054
  17811550.71445  13634965.37145  25879237.3234   25879239.9804
     -5697.7274
   4686226.21646   3713792.16046  24136126.4274   24136131.3104
     -3069.1654
  -2524103.20246                  24541935.7234
      1277.0494
  -5001040.56347  -3784040.70446  23235451.6164   23235453.8514
      -644.1724
  10267912.21648   8036320.52547  21834912.8564   21834917.7934
     -3477.4044
   9192573.97845  11507852.85745  24141732.1224   24141735.0514
     -4251.8454
 06  4 29  0 47  0.0030000  0  7G 1G 9G 4G25G 2G 5G14
  -1307273.78946   1390210.22346  23800455.8134   23800459.8254
     -1650.4904
  17897022.12544  13701566.40545  25895501.9654   25895505.6554
     -5698.4524
   4732335.41846   3749721.39746  24144900.7064   24144905.1744
     -3078.7284
  -2543224.39046     -6946.11346  24538297.0744   24538300.8764
      1272.4484
  -4991299.76347  -3776450.45146  23237305.2014   23237306.8684
      -654.5864
  10320123.85348   8077004.91247  21844848.4064   21844852.9074
     -3484.1394
   9256402.09545  11557589.01945  24153878.2054   24153883.5724
     -4258.5674
 06  4 29  0 47 15.0030000  0  7G 1G 9G 4G25G 2G 5G14
  -1282439.91846   1409561.28846  23805181.5414   23805186.1234
     -1660.7014
  17982503.61345  13768175.34245  25911768.5484   25911773.1784
     -5699.0294
   4778587.26746   3785761.80446  24153702.1384   24153706.1274
     -3088.1714
  -2562277.20646    -21792.43246  24534671.4324   24534676.7174
      1267.9354
  -4981403.38747  -3768738.97846  23239188.3984   23239190.3824
      -664.8924
  10372435.59548   8117767.30347  21854803.0074   21854807.2854
     -3490.7354
   9320330.30345  11607403.18145  24166043.3634   24166048.5824
     -4265.1604
 06  4 29  0 47 30.0030000  0  7G 1G 9G 4G25G 2G 5G14
  -1257453.71246   1429031.07046  23809936.2424   23809940.2694
     -1670.8374
  18067993.54845  13834790.88745  25928036.7534   25928041.3604
     -5699.6174
   4824980.35246   3821912.25746  24162530.4454   24162535.3254
     -3097.5774
  -2581262.65846    -36586.26746  24531058.6014   24531063.3804
      1263.4374
  -4971352.54547  -3760907.14146  23241101.0044   23241102.7284
      -675.2244
  10424846.10648   8158606.66447  21864776.3984   21864780.5324
     -3497.3324
   9384357.00545  11657294.08046  24178227.2894   24178231.9024
     -4271.7404
 06  4 29  0 47 45.0030000  0  7G 1G 9G 4G25G 2G 5G14
  -1232313.68346   1448620.70946  23814720.2174   23814724.6294
     -1681.1274
  18153493.47945  13901414.19045  25944306.8694   25944310.4914
     -5700.3204
   4871515.92846   3858173.73246  24171385.8614   24171389.7004
     -3107.1054
  -2600178.90146    -51326.19846  24527458.9604   24527462.8014
      1258.7784
  -4961145.54347  -3752953.62246  23243043.3304   23243044.8764
      -685.6714
  10477356.69848   8199524.00847  21874768.8214   21874772.9314
     -3504.0364
   9448483.38245  11707262.63745  24190430.1584   24190433.9944
     -4278.4134
 06  4 29  0 48  0.0030000  0  7G 1G 9G 4G25G 2G 5G14
  -1207021.08246   1468329.21746  23819533.2374   23819536.6944
     -1691.3074
  18239001.45045  13968043.76545  25960578.5194   25960584.5614
     -5700.8484
   4918192.47946   3894545.09146  24180268.0984   24180271.6884
     -3116.5404
  -2619026.95246    -66012.97046  24523872.2664   24523876.3744
      1254.2184
  -4950783.50347  -3744879.30746  23245015.1674   23245016.3544
      -696.0334
  10529966.03348   8240518.29547  21884780.0344   21884784.2874
     -3510.6404
   9512707.92145  11757307.73146  24202651.7044   24202655.4594
     -4284.9474
 06  4 29  0 48 15.0030000  0  7G 1G 9G 4G25G 2G 5G14
  -1181574.46546   1488157.75746  23824375.5724   23824379.4694
     -1701.5284
  18324519.03545  14034680.87145  25976852.0144   25976857.4244
     -5701.4774
   4965011.29946   3931027.25946  24189177.4264   24189181.2314
     -3125.9544
  -2637805.07646    -80645.25846  24520298.8714   24520302.7474
      1249.5884
  -4940264.84947  -3736682.94546  23247016.8054   23247017.9064
      -706.4314
  10582675.48748   8281590.58647  21894810.3074   21894814.8864
     -3517.2424
   9577031.54845  11807430.00545  24214892.1284   24214895.6354
     -4291.5014
 06  4 29  0 48 30.0030000  0  7G 1G 9G 4G25G 2G 5G14
  -1155974.74246   1508105.58746  23829247.0364   23829251.3144
     -1711.7264
  18410045.11944  14101324.54745  25993127.0694   25993131.7674
     -5701.9754
   5011971.31446   3967619.47046  24198113.6234   24198116.8034
     -3135.3344
  -2656513.90746    -95223.54946  24516738.6634   24516742.9484
      1244.9734
  -4929590.31247  -3728365.12546  23249048.0964   23249049.2464
      -716.8044
  10635483.93748   8322740.02047  21904859.4264   21904864.0454
     -3523.8194
   9641453.10745  11857628.59145  24227151.1694   24227155.6814
     -4298.0014
 06  4 29  0 48 45.0030000  0  7G 1G 9G 4G25G 2G 5G14
  -1130221.65646   1528172.93746  23834147.7044   23834151.9884
     -1721.9064
  18495579.59544  14167974.72345  26009403.7064   26009406.4814
     -5702.5264
   5059072.67046   4004321.81046  24207076.7054   24207080.3834
     -3144.7494
  -2675152.85146   -109747.41046  24513191.7674   24513196.1144
      1240.3214
  -4918759.38047  -3719925.43446  23251109.1374   23251110.2284
      -727.2244
  10688391.49248   8363966.68647  21914927.4054   21914931.8484
     -3530.4074
   9705972.50345  11907903.43245  24239428.8384   24239432.6934
     -4304.4824
 06  4 29  0 49  0.0030000  0  7G 1G 9G 4G25G 2G 5G14
  -1104315.11146   1548359.85246  23839077.5564   23839081.8654
     -1732.2084
  18581122.57643  14234631.60145  26025681.9884   26025686.0754
     -5703.1324
   5106315.26646   4041134.22046  24216066.6944   24216070.8464
     -3154.2324
  -2693721.43046   -124216.40546  24509658.2574   24509662.0994
      1235.5464
  -4907771.59547  -3711363.51546  23253200.0124   23253201.5774
      -737.7464
  10741398.31148   8405270.70147  21925014.2734   21925018.3664
     -3537.0974
   9770589.69445  11958254.48645  24251725.1134   24251728.2464
     -4311.0654
 06  4 29  0 49 15.0030000  0  7G 1G 9G 4G25G 2G 5G14
  -1078254.90946   1568666.51546  23844036.6564   23844040.8314
     -1742.4964
  18666673.72743  14301294.81845  26041961.8014   26041966.8264
     -5703.6794
   5153699.18146   4078056.75046  24225083.5684   24225088.5774
     -3163.6304
  -2712219.16546   -138630.20846  24506138.2574   24506142.8094
      1230.8134
  -4896626.76347  -3702679.22646  23255320.7834   23255322.3554
      -748.2484
  10794504.42348   8446652.08547  21935120.0374   21935124.4534
     -3543.7184
   9835304.37745  12008681.51946  24264039.9564   24264042.5474
     -4317.5644
 06  4 29  0 49 30.0030000  0  7G 1G 9G 4G25G 2G 5G14
  -1052041.16946   1589092.81046  23849024.9574   23849029.1164
     -1752.7274
  18752232.72444  14367964.19845  26058243.1494   26058246.5544
     -5704.1964
   5201223.86046   4115088.95446  24234127.2374   24234132.3584
     -3173.0164
  -2730645.95046   -152988.75046  24502631.7764   24502635.8814
      1226.0504
  -4885324.90547  -3693872.58046  23257471.4284   23257473.4544
      -758.7114
  10847709.53848   8488110.62047  21945244.6314   21945248.7504
     -3550.3334
   9900116.10445  12059184.12645  24276373.2104   24276376.7954
     -4324.0334
 06  4 29  0 49 45.0030000  0  7G 1G 9G 4G25G 2G 5G14
  -1025674.90246   1609637.94746  23854042.3034   23854046.3584
     -1762.7314
  18837798.43544  14434638.69945  26074525.7884   26074526.4154
     -5704.4884
   5248888.39646   4152230.14646  24243197.5124   24243201.5014
     -3182.1984
  -2749002.37846   -167292.43646  24499138.6524   24499143.0674
      1221.5054
  -4873866.91847  -3684944.27046  23259651.7824   23259653.9874
      -768.9824
  10901012.58448   8529645.45947  21955387.8674   21955392.1584
     -3556.7004
   9965023.54345  12109761.33745  24288724.7094   24288727.3554
     -4330.2544
 06  4 29  0 50  0.0030000  0  7G 1G 9G 4G25G 2G 5G14
   -999156.60446   1630301.56346  23859088.5724   23859092.7364
     -1773.0314
  18923370.10343  14501317.91245  26090809.4984   26090813.7664
     -5705.0434
   5296692.03646   4189479.74146  24252294.2604   24252299.4154
     -3191.6344
  -2767288.76246   -181541.56146  24495658.8764   24495663.5124
      1216.6894
  -4862253.02247  -3675894.47746  23261861.8104   23261864.4074
      -779.5394
  10954412.85948   8571256.05947  21965549.6094   21965554.4804
     -3563.3394
  10030025.86845  12160412.47945  24301094.2604   24301098.5824
     -4336.7254
 06  4 29  0 50 15.0030000  0  7G 1G 9G 4G25G 2G 5G14
   -972484.86646   1651084.73546  23864164.0534   23864168.3784
     -1783.2174
  19008949.01243  14568002.75245  26107094.6234   26107102.2814
     -5705.4884
   5344635.92346   4226838.60946  24261417.6624   24261422.3794
     -3200.9264
  -2785503.36246   -195734.74346  24492192.7594   24492197.0274
      1211.9254
  -4850481.67747  -3666721.99946  23264101.7954   23264103.7634
      -790.0044
  11007911.68048   8612943.45147  21975730.1074   21975734.7324
     -3569.8494
  10095124.14845  12211138.39645  24313482.0524   24313485.8784
     -4343.0714
 06  4 29  0 50 30.0030000  0  7G 1G 9G 4G25G 2G 5G14
   -945660.19946   1671987.07646  23869268.6154   23869273.3064
     -1793.5074
  19094534.40343  14634692.65245  26123380.9604   26123387.6504
     -5705.9754
   5392719.53446   4264306.36246  24270567.6614   24270571.9924
     -3210.3184
  -2803646.38646   -209872.15946  24488740.2544   24488744.8134
      1207.0704
  -4838553.04647  -3657426.95246  23266371.7234   23266373.3724
      -800.5774
  11061508.50348   8654707.21147  21985929.2454   21985933.9334
     -3576.4614
  10160317.61045  12261938.50545  24325887.9734   24325891.9724
     -4349.4734
 06  4 29  0 50 45.0030000  0  7G 1G 9G 4G25G 2G 5G14
   -918682.97146   1693008.29446  23874402.2094   23874406.8854
     -1803.5544
  19180125.62243  14701387.11745  26139668.4134   26139669.1154
     -5706.2564
   5440942.19746   4301882.44746  24279744.1534   24279748.3044
     -3219.4484
  -2821717.76546   -223953.72746  24485301.3854   24485306.0674
      1202.3884
  -4826467.36147  -3648009.53946  23268671.5604   23268673.4044
      -810.9404
  11115202.80048   8696546.91447  21996146.9384   21996151.3544
     -3582.8594
  10225605.51045  12312812.17445  24338311.8494   24338315.1324
     -4355.6504
 06  4 29  0 51  0.0030000  0  7G 1G 9G 4G25G 2G 5G14
   -891552.77146   1714148.70446  23879564.9124   23879569.7934
     -1813.8754
  19265722.85143  14768086.16745  26155956.9734   26155964.1494
     -5706.7874
   5489304.14746   4339567.07946  24288947.1294   24288951.2644
     -3228.8564
  -2839716.88446   -237979.00346  24481876.2964   24481880.4144
      1197.4274
  -4814224.11547  -3638469.34946  23271001.3884   23271003.2394
      -821.5744
  11168994.87548   8738462.81447  22006383.2324   22006387.5804
     -3589.5004
  10290987.96945  12363759.55945  24350753.7114   24350757.5414
     -4362.0774
 06  4 29  0 51 15.0030000  0  7G 1G 9G 4G25G 2G 5G14
   -864269.30346   1735408.55646  23884756.7854   23884762.4754
     -1823.9854
  19351326.25443  14834790.14845  26172246.7534   26172253.1504
     -5707.0704
   5537805.59446   4377360.41146  24298176.6614   24298180.9504
     -3238.0424
  -2857643.03846   -251947.42946  24478465.0704   24478469.7644
      1192.6654
  -4801822.75347  -3628805.93846  23273361.3084   23273363.1684
      -832.0094
  11222885.01848   8780455.12547  22016638.2114   22016642.4604
     -3595.9264
  10356464.98745  12414780.56645  24363213.5684   24363218.1034
     -4368.2464
 06  4 29  0 51 30.0030000  0  7G 1G 9G 4G25G 2G 5G14
   -836832.51646   1756787.88846  23889977.8264   23889982.6314
     -1834.2064
  19436935.71043  14901498.79145  26188537.7214   26188544.1214
     -5707.4694
   5586446.39146   4415262.32346  24307432.7114   24307437.1534
     -3247.3264
  -2875495.97946   -265858.80146  24475067.7464   24475072.7544
      1187.7794
  -4789263.22647  -3619019.29346  23275751.3274   23275753.1494
      -842.5524
  11276873.04648   8822523.72547  22026911.8164   22026915.7814
     -3602.4324
  10422036.26545  12465875.01745  24375691.3844   24375695.0294
     -4374.5374
 06  4 29  0 51 45.0030000  0  7G 1G 9G 4G25G 2G 5G14
   -809243.42946   1778285.85946  23895227.8644   23895232.2304
     -1844.3154
  19522549.92543  14968211.16545  26204829.5624   26204834.7544
     -5707.7274
   5635225.16846   4453271.76446  24316714.9974   24316720.2434
     -3256.5014
  -2893276.40646   -279713.65246  24471684.2254   24471689.1074
      1182.9714
  -4776546.39447  -3609110.06346  23278171.2754   23278172.9394
      -853.0124
  11330957.84048   8864667.71847  22037203.8324   22037207.8324
     -3608.8424
  10487700.31645  12517041.79245  24388186.8494   24388190.4874
     -4380.6884
 06  4 29  0 52  0.0030000  0  7G 1G 9G 4G25G 2G 5G14
   -781501.38346   1799903.03846  23900506.9964   23900511.2624
     -1854.6304
  19608169.39243  15034927.61345  26221122.4584   26221126.1774
     -5708.1914
   5684142.65546   4491389.28046  24326023.6854   24326029.6994
     -3265.8384
  -2910983.28046   -293511.21146  24468314.7104   24468319.0994
      1177.9544
  -4763671.16647  -3599077.40046  23280621.3574   23280622.9784
      -863.6844
  11385140.05648   8906887.62647  22047514.3814   22047518.2754
     -3615.4454
  10553457.62345  12568281.23945  24400700.0604   24400703.6394
     -4386.9544
 06  4 29  0 52 15.0030000  0  7G 1G 9G 4G25G 2G 5G14
   -753605.69646   1821639.94446  23905815.3534   23905820.4904
     -1864.8604
  19693794.45943  15101648.44445  26237416.4004   26237419.3324
     -5708.5704
   5733199.26546   4529615.19646  24335358.8284   24335363.3824
     -3275.1154
  -2928615.54446   -307250.62946  24464959.4064   24464963.8294
      1172.9474
  -4750636.80947  -3588920.75446  23283101.7114   23283103.3954
      -874.3254
  11439420.26748   8949183.89447  22057843.5684   22057847.8704
     -3621.9904
  10619308.53845  12619593.61645  24413231.1174   24413233.9094
     -4393.2174
 06  4 29  0 52 30.0030000  0  7G 1G 9G 4G25G 2G 5G14
   -725556.94646   1843496.10346  23911152.8474   23911157.7454
     -1874.9804
  19779424.53043  15168373.16745  26253711.2504   26253714.2584
     -5708.7854
   5782394.26446   4567948.96346  24344720.3304   24344725.4484
     -3284.2454
  -2946173.50746   -320932.16046  24461618.2424   24461622.8114
      1168.0864
  -4737443.65447  -3578640.36546  23285612.2864   23285614.3424
      -884.8064
  11493797.79948   8991555.99047  22068191.2724   22068195.7104
     -3628.3754
  10685252.23045  12670978.28945  24425779.7794   24425783.2704
     -4399.2964
 06  4 29  0 52 45.0030000  0  7G 1G 9G 4G25G 2G 5G14
   -697356.21146   1865470.71646  23916519.2614   23916523.6784
     -1885.1304
  19865058.29243  15235100.75745  26270006.7754   26270011.9154
     -5709.0654
   5831726.46546   4606389.63646  24354107.9454   24354112.2444
     -3293.3904
  -2963657.95546   -334556.38546  24458291.0804   24458294.9814
      1163.1574
  -4724092.65047  -3568236.98346  23288152.8904   23288155.2834
      -895.3474
  11548271.50948   9034003.03847  22078557.2894   22078561.5954
     -3634.7944
  10751287.23745  12722434.13545  24438345.8404   24438350.1534
     -4405.4224
 06  4 29  0 53  0.0030000  0  7G 1G 9G 4G25G 2G 5G14
   -669003.08346   1887564.05546  23921914.6874   23921918.8694
     -1895.3014
  19950695.92343  15301831.38545  26286303.1204   26286312.3554
     -5709.3144
   5881195.94646   4644937.26246  24363521.6974   24363525.7064
     -3302.5554
  -2981068.02646   -348122.68046  24454978.0724   24454981.9534
      1158.1874
  -4710583.31647  -3557710.22646  23290723.6364   23290725.5364
      -905.9104
  11602841.65148   9076525.22947  22088941.6524   22088945.6424
     -3641.2254
  10817413.61945  12773961.16845  24450929.2764   24450934.5854
     -4411.4814
 06  4 29  0 53 15.0030000  0  6G 1G 4G25G 2G 5G14
   -640497.05446   1909776.55846  23927339.1924   23927343.9204
     -1905.3944
   5930803.19146   4683592.27346  24372961.6714   24372964.7454
     -3311.6264
  -2998403.08346   -361630.50646  24451679.3214   24451683.5934
      1153.2914
  -4696914.91647  -3547059.52246  23293324.6594   23293325.9364
      -916.4274
  11657508.61248   9119122.86047  22099344.4354   22099348.1994
     -3647.5834
  10883631.69345  12825559.67045  24463530.1884   24463533.7914
     -4417.4744
 06  4 29  0 53 30.0030000  0  6G 1G 4G25G 2G 5G14
   -611839.59646   1932107.05746  23932792.5114   23932796.9614
     -1915.6464
   5980546.60346   4722353.35646  24382427.5514   24382430.9474
     -3320.8534
  -3015664.03046   -375080.59346  24448394.6774   24448399.1084
      1148.1574
  -4683088.67547  -3536285.81346  23295955.7074   23295956.9744
      -927.1134
  11712270.97348   9161794.82947  22109765.3754   22109769.1394
     -3654.1004
  10949939.75845  12877228.26045  24476148.2024   24476153.1884
     -4423.6124
 06  4 29  0 53 45.0030000  0  6G 1G 4G25G 2G 5G14
   -583028.97646   1954556.88646  23938274.9934   23938278.8494
     -1925.7524
   6030427.56946   4761221.63746  24391919.5984   24391923.6104
     -3329.9204
  -3032848.92946   -388471.40646  24445124.4974   24445129.2884
      1143.1884
  -4669102.70347  -3525387.64346  23298617.1504   23298618.5944
      -937.6594
  11767130.27748   9204542.33747  22120204.7594   22120208.4664
     -3660.4564
  11016339.12845  12928968.00145  24488783.5984   24488787.1914
     -4429.5894
 06  4 29  0 54  0.0030000  0  6G 1G 4G25G 2G 5G14
   -554065.66746   1977125.70546  23943786.5304   23943790.8104
     -1935.9954
   6080445.54746   4800196.66146  24401437.7304   24401441.9074
     -3339.1144
  -3049957.79346   -401802.98646  24441868.7884   24441874.1694
      1138.0334
  -4654957.30747  -3514365.24746  23301308.9144   23301310.7984
      -948.3644
  11822086.01948   9247364.99247  22130662.4954   22130666.2184
     -3666.9454
  11082828.91845  12980778.23645  24501436.2254   24501440.3794
     -4435.6774
 06  4 29  0 54 15.0030000  0  6G 1G 4G25G 2G 5G14
   -524950.31146   1999813.01146  23949326.9784   23949331.1024
     -1946.0624
   6130599.73646   4839277.84746  24410981.7864   24410985.7874
     -3348.1254
  -3066991.02546   -415075.62846  24438627.4654   24438632.2674
      1133.0504
  -4640652.94847  -3503218.98046  23304030.9214   23304032.7314
      -958.9084
  11877137.41648   9290262.18047  22141138.4304   22141142.3174
     -3673.2584
  11149408.26945  13032658.25245  24514105.8644   24514110.4934
     -4441.5924
 06  4 29  0 54 30.0030000  0  6G 1G 4G25G 2G 5G14
   -495683.08946   2022618.62546  23954896.3324   23954900.5704
     -1956.2754
   6180889.89146   4878464.97946  24420551.7044   24420555.3434
     -3357.2344
  -3083948.46246   -428289.21146  24435400.5654   24435404.4424
      1127.8964
  -4626189.62547  -3491948.84946  23306783.1764   23306785.1034
      -969.5914
  11932284.21548   9333233.71347  22151632.5224   22151636.4874
     -3679.6924
  11216076.80945  13084607.72945  24526792.4784   24526796.7574
     -4447.5804
 06  4 29  0 54 45.0030000  0  6G 1G 4G25G 2G 5G14
   -466262.95046   2045543.41546  23960494.7964   23960499.1204
     -1966.3554
   6231316.76546   4917758.62646  24430147.6234   24430151.1064
     -3366.2484
  -3100828.72946   -441442.65246  24432188.3494   24432193.1074
      1122.8604
  -4611566.15047  -3480553.93846  23309565.9114   23309567.5264
      -980.1614
  11987527.42748   9376280.36647  22162144.9504   22162148.9104
     -3685.9994
  11282835.13745  13136627.20445  24539496.1614   24539499.2674
     -4453.4594
 06  4 29  0 55  0.0030000  0  6G 1G 4G25G 2G 5G14
   -436690.77546   2068586.67546  23966122.1954   23966126.7814
     -1976.5684
   6281879.25346   4957157.96346  24439769.3764   24439772.6534
     -3375.3854
  -3117632.39246   -454536.41646  24428990.7104   24428994.9434
      1117.6634
  -4596783.19547  -3469034.75146  23312378.9984   23312380.7004
      -990.8734
  12042865.99448   9419401.32347  22172675.5264   22172679.7704
     -3692.4244
  11349682.14545  13188715.78845  24552216.7284   24552220.7924
     -4459.4474
 06  4 29  0 55 15.0030000  0  6G 1G 4G25G 2G 5G14
   -406967.44546   2091747.71046  23971778.3704   23971782.7424
     -1986.6564
   6332576.35246   4996662.20346  24449416.7294   24449420.0054
     -3384.3354
  -3134359.98146   -467570.89046  24425807.5304   24425812.0404
      1112.5694
  -4581841.47047  -3457391.84546  23315222.2864   23315223.8024
     -1001.4694
  12098299.00648   9462595.87247  22183224.0594   22183228.4334
     -3698.7454
  11416616.57745  13240872.46545  24564953.9584   24564958.1264
     -4465.2714
 06  4 29  0 55 30.0040000  0  6G 1G 4G25G 2G 5G14
   -377089.89146   2115028.93046  23977463.8814   23977468.9124
     -1996.6894
   6383412.36246   5036274.67746  24459090.5054   24459094.6704
     -3393.2854
  -3151011.11046   -480545.78946  24422638.8934   24422643.7604
      1107.5124
  -4566738.76947  -3445623.50946  23318096.2184   23318098.3604
     -1012.0254
  12153831.18348   9505867.68847  22193791.4674   22193795.8534
     -3704.9824
  11483643.67045  13293101.34745  24577708.7894   24577712.2824
     -4471.0324
 06  4 29  0 55 45.0040000  0  6G 1G 4G25G 2G 5G14
   -347063.16646   2138426.36746  23983177.7794   23983182.6014
     -2006.8164
   6434379.36646   5075989.20546  24468789.1904   24468793.4424
     -3402.2844
  -3167584.35246   -493459.98746  24419485.0824   24419489.8264
      1102.3064
  -4551477.94547  -3433731.95346  23321000.2484   23321002.7814
     -1022.7124
  12209453.97448   9549210.10547  22204376.1164   22204380.4044
     -3711.3294
  11550753.16445  13345394.45545  24590479.2794   24590483.0544
     -4476.8404
 06  4 29  0 56  0.0040000  0  6G 1G 4G25G 2G 5G14
   -316885.03446   2161941.80746  23988920.4744   23988924.8234
     -2016.9704
   6485480.67146   5115808.40746  24478513.4394   24478518.3514
     -3411.2654
  -3184080.16846   -506313.86646  24416346.0304   24416350.6444
      1097.0914
  -4536057.51447  -3421716.03446  23323934.6754   23323936.8684
     -1033.4044
  12265171.16848   9592626.08947  22214978.7364   22214982.9274
     -3717.6824
  11617949.36545  13397755.10745  24603266.2834   24603270.8834
     -4482.6914
 06  4 29  0 56 15.0040000  0  6G 1G 4G25G 2G 5G14
   -286554.48446   2185576.00846  23994692.1694   23994696.3814
     -2027.1334
   6536717.30946   5155733.05945  24488263.4314   24488268.2114
     -3420.2574
  -3200497.32846   -519106.46046  24413221.9374   24413225.9264
      1091.8294
  -4520476.35047  -3409574.84446  23326899.6984   23326901.7054
     -1044.1214
  12320983.82348   9636116.46347  22225599.5244   22225603.8104
     -3724.0364
  11685233.04145  13450183.90445  24616069.9584   24616073.9264
     -4488.4824
 06  4 29  0 56 30.0040000  0  6G 1G 4G25G 2G 5G14
   -256072.52146   2209328.17646  24000492.6764   24000497.2194
     -2037.1224
   6588088.08146   5195762.21346  24498038.9564   24498043.5074
     -3429.1224
  -3216836.32846   -531838.13746  24410112.7204   24410116.5234
      1086.7214
  -4504735.20847  -3397309.00646  23329895.1584   23329896.6124
     -1054.6784
  12376890.75248   9679680.29447  22236238.2664   22236242.6704
     -3730.2174
  11752602.99145  13502679.98045  24628890.0764   24628893.0714
     -4494.1484
 06  4 29  0 56 45.0040000  0  6G 1G 4G25G 2G 5G14
   -225439.54946   2233198.03946  24006321.9204   24006326.2834
     -2047.3104
   6639592.28345   5235895.35645  24507839.8574   24507845.6404
     -3438.1544
  -3233097.30846   -544509.02946  24407018.3734   24407021.9854
      1081.3714
  -4488834.48547  -3384918.82946  23332920.9764   23332922.5484
     -1065.4494
  12432891.49348   9723317.22847  22246894.8664   22246899.1254
     -3736.5794
  11820058.43745  13555242.66645  24641726.4364   24641729.5904
     -4499.9474
 06  4 29  0 57  0.0040000  0  6G 1G 4G25G 2G 5G14
   -194654.57846   2257186.31946  24012180.1084   24012184.7904
     -2057.3334
   6691230.80045   5276133.15445  24517666.3304   24517671.8334
     -3446.9714
  -3249278.93546   -557118.08246  24403939.1014   24403943.0674
      1076.2144
  -4472772.99947  -3372403.37546  23335977.3744   23335979.0374
     -1076.0644
  12488986.94948   9767027.97447  22257569.4854   22257573.6274
     -3742.7774
  11887600.05245  13607872.46045  24654579.1784   24654582.0864
     -4505.5714
 06  4 29  0 57 15.0040000  0  6G 1G 4G25G 2G 5G14
   -163719.99846   2281291.18746  24018066.7574   24018071.3244
     -2067.3434
   6743001.16146   5316473.69645  24527517.8884   24527523.6184
     -3455.8214
  -3265383.22246   -569666.87146  24400874.5334   24400878.7974
      1070.9894
  -4456552.87847  -3359764.31946  23339063.9534   23339065.7844
     -1086.6884
  12545174.76448   9810810.68447  22268261.6744   22268266.0414
     -3748.9734
  11955225.13445  13660567.31845  24667447.8044   24667450.3994
     -4511.1834
 06  4 29  0 57 30.0040000  0  6G 1G 4G25G 2G 5G14
   -132635.05946   2305513.21746  24023982.0134   24023986.6324
     -2077.3214
   6794903.90446   5356917.37746  24537394.6194   24537400.0134
     -3464.5514
  -3281409.06346   -582154.52646  24397824.8814   24397829.3704
      1065.8004
  -4440173.21147  -3347000.94246  23342180.8914   23342182.9234
     -1097.2834
  12601455.56748   9854665.85447  22278971.5554   22278976.1144
     -3755.1214
  12022934.25545  13713327.62245  24680332.4264   24680337.2794
     -4516.7154
 06  4 29  0 57 45.0040000  0  6G 1G 4G25G 2G 5G14
   -101399.53946   2329852.58946  24029925.9344   24029930.7744
     -2087.3614
   6846939.01546   5397464.20646  24547296.5634   24547302.5304
     -3473.3944
  -3297355.80146   -594580.53346  24394790.2944   24394794.6334
      1060.5034
  -4423633.54347  -3334112.88546  23345328.2664   23345330.4174
     -1107.9584
  12657829.49948   9898593.59147  22289699.1664   22289703.9034
     -3761.3564
  12090727.45045  13766153.46845  24693233.0944   24693235.3724
     -4522.3124
 06  4 29  0 58  0.0040000  0  6G 1G 4G25G 2G 5G14
    -70014.15246   2354308.72946  24035898.3774   24035903.3394
     -2097.4434
   6899105.69446   5438113.57446  24557223.5484   24557229.5374
     -3482.2484
  -3313223.90246   -606945.28646  24391770.6794   24391774.5184
      1055.1564
  -4406934.55847  -3321100.68446  23348505.9614   23348508.2774
     -1118.6714
  12714295.74448   9942593.25247  22300444.3444   22300449.0254
     -3767.5904
  12158603.49945  13819043.89545  24706149.5044   24706153.5114
     -4527.9064
 06  4 29  0 58 15.0040000  0  6G 1G 4G25G 2G 5G14
    -38478.28646   2378882.13746  24041899.4584   24041904.1964
     -2107.3154
   6951404.45746   5478865.81946  24567175.6964   24567180.9844
     -3490.9104
  -3329012.33146   -619247.95846  24388766.2174   24388770.0314
      1049.9724
  -4390075.30347  -3307963.59546  23351714.1524   23351716.1604
     -1129.2064
  12770854.92948   9986665.34647  22311207.1994   22311211.6544
     -3773.6194
  12226562.69545  13871999.07245  24719081.7034   24719085.5214
     -4533.2784
 06  4 29  0 58 30.0040000  0  6G 1G 4G25G 2G 5G14
     -6793.74646   2403571.39446  24047928.8464   24047933.0724
     -2117.3294
   7003833.22546   5519719.41246  24577152.5944   24577157.1424
     -3499.6644
  -3344722.50346   -631489.64146  24385776.6574   24385780.4834
      1044.6644
  -4373057.45147  -3294702.92946  23354952.5164   23354954.6354
     -1139.8924
  12827505.15048  10030808.36747  22321987.3714   22321991.7364
     -3779.7874
  12294603.05845  13925017.50945  24732029.3574   24732033.3064
     -4538.8054
 06  4 29  0 58 45.0040000  0  6G 1G 4G25G 2G 5G14
     25040.73646   2428377.48346  24053986.7744   24053991.1934
     -2127.2904
   7056393.16946   5560675.22446  24587154.4444   24587159.3294
     -3508.3594
  -3360352.95546   -643669.20746  24382802.2764   24382806.1124
      1039.3734
  -4355879.57147  -3281317.56546  23358221.3374   23358223.6234
     -1150.5194
  12884247.56248  10075023.22247  22332785.0964   22332789.3514
     -3785.8864
  12362725.63545  13978100.03345  24744992.6744   24744998.4224
     -4544.2254
 06  4 29  0 59  0.0040000  0  6G 1G 4G25G 2G 5G14
     57024.38546   2453299.81046  24060073.1004   24060077.4014
     -2137.1494
   7109083.27646   5601732.42946  24597181.0624   24597185.9834
     -3516.9354
  -3375903.97846   -655786.87546  24379843.0084   24379847.5234
      1034.1424
  -4338542.36447  -3267808.05046  23361520.4854   23361522.8414
     -1161.0704
  12941081.34848  10119309.28347  22343600.2154   22343604.3594
     -3791.8944
  12430929.19145  14031245.63045  24757971.3814   24757977.9184
     -4549.5364
 06  4 29  0 59 15.0040000  0  6G 1G 4G25G 2G 5G14
     89156.73246   2478338.00746  24066187.6954   24066192.0724
     -2147.2584
   7161903.21046   5642890.81646  24607232.3684   24607237.0774
     -3525.7734
  -3391375.62946   -667842.69346  24376898.8474   24376904.0224
      1028.6414
  -4321045.99347  -3254174.51946  23364849.9214   23364851.7034
     -1171.8824
  12998006.03548  10163666.17847  22354432.6294   22354436.5824
     -3798.1584
  12499213.09945  14084453.86145  24770965.3904   24770968.4724
     -4555.0744
 06  4 29  0 59 30.0040000  0  6G 1G 4G25G 2G 5G14
    121439.85746   2503493.69446  24072330.9754   24072335.2614
     -2157.1854
   7214854.50246   5684151.55946  24617308.6504   24617313.3534
     -3534.4004
  -3406765.47046   -679834.76446  24373970.2394   24373974.9584
      1023.3174
  -4303388.27247  -3240415.25746  23368210.0684   23368211.9434
     -1182.5004
  13055023.62248  10208095.46447  22365282.7124   22365286.6714
     -3804.2004
  12567579.07445  14137726.04145  24783974.9864   24783979.8154
     -4560.3904
 06  4 29  0 59 45.0040000  0  6G 1G 4G25G 2G 5G14
    153871.13746   2528764.82346  24078502.4384   24078506.6864
     -2166.9904
   7267934.63246   5725512.68646  24627409.4634   24627413.5634
     -3542.9174
  -3422075.80446   -691764.88946  24371056.7784   24371062.3964
      1018.0574
  -4285571.59047  -3226532.12046  23371600.4764   23371602.2604
     -1193.0534
  13112131.46748  10252595.08147  22376149.9634   22376154.1894
     -3810.1574
  12636024.44345  14191060.07145  24796999.7074   24797003.8144
     -4565.6314
 06  4 29  1  0  0.0040000  0  6G 1G 4G25G 2G 5G14
    186450.85746   2554151.62446  24084702.1204   24084706.9824
     -2176.9384
   7321143.58846   5766974.18946  24637534.7834   24637539.1554
     -3551.5654
  -3437305.98046   -703632.55446  24368158.5564   24368163.2794
      1012.6424
  -4267595.40447  -3212524.70446  23375021.2464   23375022.9144
     -1203.7514
  13169329.69048  10297165.11747  22387034.4194   22387038.7054
     -3816.2374
  12704549.16345  14244455.89345  24810039.5544   24810045.1984
     -4570.9644
 06  4 29  1  0 15.0040000  0  6G 1G 4G25G 2G 5G14
    219179.52146   2579654.47246  24090930.1804   24090935.2014
     -2186.7734
   7374481.83046   5808536.43746  24647684.7014   24647688.3484
     -3560.0924
  -3452455.01146   -715436.98346  24365275.8024   24365279.3614
      1007.3294
  -4249459.14147  -3198392.54246  23378472.4714   23378474.1054
     -1214.3224
  13226618.84348  10341806.01747  22397936.1784   22397939.9184
     -3822.2044
  12773153.31545  14297913.65145  24823094.5474   24823098.1244
     -4576.1354
 06  4 29  1  0 30.0040000  0  6G 1G 4G25G 2G 5G14
    252056.13746   2605272.62346  24097186.3454   24097191.2224
     -2196.6714
   7427948.17846   5850198.51746  24657858.9934   24657863.2454
     -3568.6374
  -3467523.67646   -727178.78946  24362408.3324   24362412.3634
      1001.9094
  -4231163.74747  -3184136.38946  23381953.9944   23381956.0144
     -1224.9764
  13283997.85648  10386516.93447  22408855.0414   22408858.9254
     -3828.2354
  12841835.56245  14351432.26245  24836164.3674   24836168.2514
     -4581.3804
 06  4 29  1  0 45.0040000  0  6G 1G 4G25G 2G 5G14
    285080.30946   2631005.73146  24103470.5984   24103475.8874
     -2206.5284
   7481542.02945   5891959.95446  24668057.5494   24668062.5204
     -3577.1574
  -3482511.93346   -738857.94946  24359556.1674   24359559.6474
       996.5294
  -4212709.41647  -3169756.39146  23385465.7664   23385467.4194
     -1235.5854
  13341466.19048  10431297.44547  22419790.8954   22419794.9594
     -3834.1954
  12910595.21345  14405011.18445  24849248.9144   24849253.8234
     -4586.5394
 06  4 29  1  1  0.0040000  0  6G 1G 4G25G 2G 5G14
    318252.56246   2656854.24246  24109783.0384   24109787.7524
     -2216.3904
   7535263.81046   5933821.06046  24678280.4954   24678285.4194
     -3585.6924
  -3497418.86446   -750473.73246  24356719.4914   24356723.2794
       991.1044
  -4194095.30547  -3155251.88546  23389007.9254   23389009.5934
     -1246.2454
  13399024.40348  10476148.00247  22430743.8564   22430748.2664
     -3840.1874
  12979432.69445  14458650.75545  24862348.2384   24862352.3984
     -4591.7114
 06  4 29  1  1 15.0040000  0  6G 1G 4G25G 2G 5G14
    351573.02346   2682818.24346  24116123.6894   24116129.2194
     -2226.3204
   7589113.41846   5975781.79846  24688527.7534   24688532.2384
     -3594.2414
  -3512243.96046   -762025.74646  24353898.3794   24353902.5054
       985.5954
  -4175321.20947  -3140622.71546  23392580.5224   23392582.5764
     -1256.9604
  13456672.57648  10521068.65347  22441713.9324   22441718.1374
     -3846.2154
  13048347.74345  14512350.78845  24875462.3524   24875466.7554
     -4596.9414
 06  4 29  1  1 30.0040000  0  6G 1G 4G25G 2G 5G14
    385040.85746   2708897.07546  24122492.4074   24122497.7794
     -2236.0534
   7643089.89146   6017841.38346  24698799.1474   24698803.5434
     -3602.5904
  -3526987.72346   -773514.38646  24351092.7314   24351096.8554
       980.2514
  -4156387.88547  -3125869.47546  23396183.4064   23396185.6464
     -1267.4844
  13514409.75548  10566058.65247  22452700.9534   22452705.1774
     -3852.0564
  13117339.16245  14566110.32345  24888590.9964   24888594.4744
     -4601.9394
 06  4 29  1  1 45.0040000  0  6G 1G 4G25G 2G 5G14
    418656.11346   2735090.76946  24128889.1904   24128894.3464
     -2246.0344
   7697193.07146   6059999.70146  24709094.6294   24709098.2624
     -3611.2124
  -3541649.70546   -784939.30046  24348302.6434   24348306.1434
       974.6314
  -4137294.86647  -3110991.79746  23399816.6704   23399818.3054
     -1278.3094
  13572235.94948  10611118.01047  22463704.9174   22463708.8814
     -3858.1614
  13186406.95545  14619929.33145  24901734.1694   24901738.7864
     -4607.1604
 06  4 29  1  2  0.0040000  0  6G 1G 4G25G 2G 5G14
    452419.44246   2761399.86046  24135314.1244   24135319.6284
     -2255.7994
   7751423.61446   6102257.24645  24719414.3884   24719419.2414
     -3619.5994
  -3556228.90846   -796299.70846  24345528.2984   24345532.2844
       969.1994
  -4118041.29047  -3095989.00746  23403480.4814   23403482.3324
     -1288.8994
  13630151.82448  10656247.25847  22474725.9534   22474729.7424
     -3864.0144
  13255551.29545  14673808.01545  24914891.9514   24914897.8264
     -4612.1334
 06  4 29  1  2 15.0040000  0  6G 1G 4G25G 2G 5G14
    486329.28546   2787823.11846  24141766.9804   24141771.7794
     -2265.5824
   7805779.85346   6144612.76846  24729758.0484   24729762.6294
     -3627.9704
  -3570726.33846   -807596.40046  24342769.5224   24342773.2934
       963.7184
  -4098628.63447  -3080862.26846  23407174.5834   23407176.3754
     -1299.5194
  13688155.85848  10701445.19647  22485763.7594   22485767.6054
     -3869.9174
  13324770.56345  14727745.08745  24928063.9424   24928069.0244
     -4617.1454
 06  4 29  1  2 30.0040000  0  6G 1G 4G25G 2G 5G14
    520386.24446   2814361.01646  24148247.8304   24148251.7064
     -2275.4394
   7860262.13345   6187066.49446  24740125.6604   24740131.1824
     -3636.4144
  -3585141.12346   -818828.69446  24340026.4794   24340030.5364
       958.1554
  -4079056.22547  -3065611.04046  23410899.0964   23410900.7864
     -1310.2304
  13746248.54248  10746712.22547  22496818.4364   22496821.8344
     -3875.8724
  13394065.12045  14781740.78245  24941250.2794   24941255.3854
     -4622.2104
 06  4 29  1  2 45.0040000  0  6G 1G 4G25G 2G 5G14
    554590.10546   2841013.36846  24154756.6434   24154761.0144
     -2285.1844
   7914870.22246   6229618.23546  24750517.2654   24750523.3184
     -3644.7594
  -3599473.07146   -829996.43146  24337299.2034   24337303.4254
       952.6544
  -4059324.00647  -3050235.28046  23414654.0184   23414655.9344
     -1320.8474
  13804429.56848  10792048.08447  22507889.9234   22507893.5634
     -3881.7164
  13463434.40145  14835794.76545  24954450.8454   24954455.4794
     -4627.1404
 06  4 29  1  3  0.0040000  0  6G 1G 4G25G 2G 5G14
    588940.95446   2867780.26946  24161293.4164   24161297.6424
     -2294.9844
   7969603.75146   6272267.71946  24760932.7384   24760937.3084
     -3653.0954
  -3613721.73446   -841099.28846  24334587.7714   24334591.5704
       947.1034
  -4039431.86847  -3034734.90046  23418439.3814   23418441.5174
     -1331.4984
  13862699.03748  10837452.86347  22518978.2384   22518982.0774
     -3887.5924
  13532878.11745  14889906.72045  24967665.5744   24967669.5034
     -4632.0864
 06  4 29  1  3 15.0040000  0  6G 1G 4G25G 2G 5G14
    623437.53146   2894660.72446  24167857.9294   24167862.3804
     -2304.6714
   8024461.54446   6315014.05446  24771371.8354   24771377.3154
     -3661.3694
  -3627888.00046   -852137.92946  24331892.0314   24331895.8874
       941.6224
  -4019380.79347  -3019110.67546  23422254.9764   23422256.7764
     -1342.0884
  13921055.55248  10882925.46247  22530083.1164   22530086.8464
     -3893.3934
  13602394.87445  14944075.59345  24980894.2084   24980899.4454
     -4636.9304
 06  4 29  1  3 30.0040000  0  6G 1G 4G25G 2G 5G14
    658081.14046   2921655.74446  24174450.4064   24174453.7234
     -2314.4654
   8079444.61246   6357857.99846  24781834.7874   24781839.4784
     -3669.7054
  -3641970.20246   -863111.06346  24329212.2804   24329216.1904
       936.0064
  -3999169.32747  -3003361.47846  23426101.0924   23426102.7764
     -1352.7644
  13979500.49048  10928466.96747  22541204.8254   22541208.7054
     -3899.2574
  13671985.65245  14998302.15945  24994136.9094   24994139.3674
     -4641.8544
 06  4 29  1  3 45.0040000  0  6G 1G 4G25G 2G 5G14
    692870.35546   2948764.23046  24181070.5764   24181074.7024
     -2324.2084
   8134551.48646   6400798.40846  24792321.2964   24792326.4174
     -3677.9944
  -3655969.32046   -874019.45446  24326548.3414   24326552.1064
       930.4284
  -3978798.77047  -2987488.32146  23429977.4754   23429979.0614
     -1363.4144
  14038032.26848  10974076.14147  22552343.0704   22552347.0484
     -3905.0984
  13741648.84445  15052585.15045  25007393.3754   25007397.4814
     -4646.7044
 06  4 29  1  4  0.0040000  0  6G 1G 4G25G 2G 5G14
    727805.74546   2975986.61646  24187718.5454   24187723.1824
     -2333.9214
   8189782.46346   6443835.52646  24802831.4234   24802835.5194
     -3686.2314
  -3669884.45946   -884862.41846  24323900.3824   24323904.0884
       924.8414
  -3958268.40947  -2971490.63846  23433884.2704   23433885.6034
     -1374.0364
  14096651.52248  11019753.47247  22563497.9634   22563502.0144
     -3910.8804
  13811384.65345  15106924.70745  25020663.6594   25020665.1574
     -4651.4814
 06  4 29  1  4 15.0040000  0  6G 1G 4G25G 2G 5G14
    762888.48846   3003323.81846  24194394.5374   24194398.6254
     -2343.7264
   8245138.68946   6486970.23846  24813365.3934   24813369.5014
     -3694.5394
  -3683713.99846   -895638.67346  24321268.7174   24321272.3564
       919.1394
  -3937576.82747  -2955367.31446  23437821.7344   23437823.4134
     -1384.7914
  14155359.31248  11065499.80647  22574669.6894   22574673.6414
     -3916.7744
  13881193.82244  15161321.43345  25033947.8964   25033952.6304
     -4656.3624
 06  4 29  1  4 30.0040000  0  6G 1G 4G25G 2G 5G14
    798118.42346   3030775.71146  24201098.5374   24201102.8734
     -2353.5464
   8300619.86246   6530202.31746  24823923.1034   24823926.8784
     -3702.8954
  -3697457.70346   -906348.05746  24318653.3924   24318656.6924
       913.4044
  -3916723.97047  -2939118.34646  23441789.9014   23441791.8814
     -1395.5434
  14214155.48348  11111315.00247  22585858.2224   22585861.9384
     -3922.6694
  13951076.17044  15215775.18745  25047246.0934   25047250.5854
     -4661.2394
 06  4 29  1  4 45.0040000  0  6G 1G 4G25G 2G 5G14
    833494.40146   3058341.40146  24207830.3384   24207834.6464
     -2363.2524
   8356224.69846   6573530.74346  24834504.3434   24834508.3484
     -3711.0904
  -3711116.33046   -916991.13846  24316054.2644   24316057.8714
       907.7494
  -3895710.81647  -2922744.45546  23445788.5694   23445790.2694
     -1406.2084
  14273038.90548  11157198.17547  22597063.3694   22597067.3534
     -3928.4584
  14021030.38244  15270284.91445  25060557.9404   25060562.7304
     -4665.9744
 06  4 29  1  5  0.0040000  0  6G 1G 4G25G 2G 5G14
    869017.36946   3086021.64246  24214590.0964   24214595.6674
     -2373.0014
   8411953.98746   6616956.14546  24845109.2804   24845113.2834
     -3719.3324
  -3724688.54946   -927566.88046  24313471.5654   24313475.1834
       902.0134
  -3874536.16847  -2906244.71546  23449817.9634   23449819.6504
     -1416.9384
  14332010.35348  11203149.95447  22608285.2654   22608289.2154
     -3934.2704
  14091056.95344  15324851.05345  25073883.5354   25073888.1824
     -4670.7404
 06  4 29  1  5 15.0040000  0  6G 1G 4G25G 2G 5G14
    904685.75146   3113815.18046  24221377.5544   24221383.1454
     -2382.6814
   8467805.92146   6660477.13346  24855737.5424   24855742.0044
     -3727.4824
  -3738175.62046   -938076.28546  24310905.0614   24310908.9594
       896.3354
  -3853201.68147  -2889620.43546  23453877.7774   23453879.5814
     -1427.5774
  14391068.30048  11249169.12347  22619523.6234   22619527.4314
     -3940.0274
  14161154.09944  15379472.16745  25087222.6094   25087226.1724
     -4675.4274
 06  4 29  1  5 30.0040000  0  6G 1G 4G25G 2G 5G14
    940499.26046   3141721.81046  24228192.6384   24228197.6834
     -2392.4454
   8523780.18246   6704093.41146  24866389.0864   24866394.0514
     -3735.7604
  -3751577.25646   -948519.10846  24308354.8184   24308358.4244
       890.5504
  -3831707.52047  -2872871.73346  23457967.9834   23457969.2904
     -1438.3144
  14450212.44248  11295255.46347  22630778.3804   22630782.4804
     -3945.8514
  14231321.48744  15434148.02445  25100575.0234   25100579.5674
     -4680.2004
 06  4 29  1  5 45.0040000  0  6G 1G 4G25G 2G 5G14
    976458.76746   3169742.20046  24235035.5114   24235040.5144
     -2402.1514
   8579877.45946   6747805.58446  24877064.0614   24877069.4534
     -3743.8904
  -3764892.30246   -958894.47146  24305821.0384   24305824.4604
       884.7924
  -3810052.40947  -2855997.61046  23462088.8184   23462090.0204
     -1449.0284
  14509443.60248  11341409.60647  22642049.6964   22642054.1174
     -3951.6374
  14301559.53244  15488878.96645  25113940.8894   25113946.3964
     -4684.8454
 06  4 29  1  6  0.0040000  0  6G 1G 4G25G 2G 5G14
   1012564.80246   3197876.77246  24241906.2854   24241911.0464
     -2411.9564
   8636098.10446   6791613.85846  24887762.5184   24887767.9534
     -3752.1624
  -3778119.79046   -969201.59646  24303303.9314   24303308.4334
       878.9064
  -3788235.59047  -2838997.48546  23466240.4334   23466241.7204
     -1459.8484
  14568762.32148  11387631.98147  22653337.6654   22653341.7664
     -3957.4994
  14371868.47645  15543665.11945  25127320.2894   25127324.2464
     -4689.6074
 06  4 29  1  6 15.0040000  0  6G 1G 4G25G 2G 5G14
   1048817.22246   3226125.40846  24248804.9114   24248808.6904
     -2421.6624
   8692441.97346   6835518.16146  24898484.4214   24898489.8304
     -3760.3164
  -3791259.40246   -979440.24546  24300803.5234   24300807.7824
       873.0944
  -3766257.08347  -2821871.37246  23470422.8124   23470424.3034
     -1470.5734
  14628168.48248  11433922.48647  22664642.2714   22664646.5524
     -3963.2754
  14442247.89144  15598506.20645  25140713.0714   25140718.1934
     -4694.2684
 06  4 29  1  6 30.0040000  0  6G 1G 4G25G 2G 5G14
   1085214.59046   3254486.99146  24255731.1214   24255735.7334
     -2431.3074
   8748907.38646   6879517.16946  24909229.4394   24909233.9914
     -3768.3984
  -3804312.25546   -989611.28646  24298319.6264   24298324.0024
       867.3054
  -3744118.27247  -2804620.34846  23474635.6954   23474637.5524
     -1481.2624
  14687660.51048  11480279.90147  22675963.2124   22675967.6614
     -3968.9854
  14512696.24444  15653400.96445  25154118.9374   25154122.3084
     -4698.8404
 06  4 29  1  6 45.0040000  0  6G 1G 4G25G 2G 5G14
   1121756.57746   3282961.27946  24262684.8524   24262689.9814
     -2440.8914
   8805493.83146   6923610.48846  24919997.5064   24920001.8794
     -3776.4034
  -3817278.25346   -999714.66346  24295852.2714   24295856.3834
       861.5584
  -3721819.18147  -2787244.43046  23478879.0704   23478880.7774
     -1491.8884
  14747238.08648  11526703.97247  22687300.4494   22687304.6734
     -3974.6244
  14583212.90044  15708349.00245  25167537.8494   25167542.4114
     -4703.3154
 06  4 29  1  7  0.0040000  0  6G 1G 4G25G 2G 5G14
   1158443.04646   3311548.13946  24269666.0684   24269670.6264
     -2450.6314
   8862201.06846   6967797.93846  24930788.5464   24930793.1904
     -3784.5584
  -3830157.13946  -1009750.14646  24293401.4834   24293405.5364
       855.6364
  -3699359.94047  -2769743.71046  23483152.9154   23483154.9694
     -1502.6764
  14806901.06748  11573194.59747  22698653.9404   22698658.1814
     -3980.4194
  14653797.52144  15763350.02045  25180969.6744   25180974.7574
     -4707.9464
 06  4 29  1  7 15.0040000  0  6G 1G 4G25G 2G 5G14
   1195273.74846   3340247.38346  24276674.7214   24276678.5164
     -2460.1524
   8919028.77546   7012079.27446  24941602.5274   24941606.6654
     -3792.4864
  -3842948.66946  -1019717.56746  24290967.3334   24290971.4484
       849.8924
  -3676740.58647  -2752118.23846  23487457.2394   23487459.4154
     -1513.2654
  14866649.20448  11619751.58047  22710023.6344   22710027.5474
     -3986.0124
  14724449.50444  15818403.46845  25194414.3234   25194417.8064
     -4712.3514
 06  4 29  1  7 30.0040000  0  6G 1G 4G25G 2G 5G14
   1232249.10346   3369059.35846  24283710.8764   24283714.2204
     -2469.8924
   8975977.13746   7056454.60846  24952439.4614   24952443.5054
     -3800.6044
  -3855652.16046  -1029616.39046  24288549.9424   24288553.8804
       843.9194
  -3653960.52047  -2734367.53246  23491792.1434   23491793.6574
     -1524.0764
  14926482.79947  11666375.16847  22721409.5714   22721413.8454
     -3991.8034
  14795169.10844  15873509.62045  25207871.8624   25207876.1614
     -4716.9204
 06  4 29  1  7 45.0040000  0  6G 1G 4G25G 2G 5G14
   1269369.64446   3397984.44646  24290774.6684   24290778.1744
     -2479.5224
   9033046.59046   7100924.28146  24963299.4324   24963303.4354
     -3808.6354
  -3868266.60146  -1039445.81046  24286149.4964   24286153.8284
       838.0044
  -3631018.95747  -2716490.98746  23496157.7854   23496159.0494
     -1534.8044
  14986402.46547  11713065.80747  22732811.9014   22732816.8014
     -3997.4964
  14865956.54244  15928668.62645  25221342.2864   25221347.3414
     -4721.4004
 06  4 29  1  8  0.0040000  0  6G 1G 4G25G 2G 5G14
   1306634.66446   3427022.13446  24297865.9564   24297869.2264
     -2489.0984
   9090236.16546   7145487.58046  24974182.2674   24974186.0944
     -3816.5944
  -3880792.22846  -1049206.03846  24283765.9454   24283769.8084
       832.1404
  -3607916.48647  -2698489.06446  23500554.0464   23500555.3114
     -1545.4714
  15046407.45547  11759822.93047  22744230.4704   22744235.2864
     -4003.1174
  14936810.93944  15983879.79845  25234825.4814   25234829.4624
     -4725.7934
 06  4 29  1  8 15.0040000  0  6G 1G 4G25G 2G 5G14
   1344043.52946   3456171.88346  24304984.6064   24304988.5324
     -2498.7754
   9147545.33646   7190144.08746  24985087.8384   24985092.1364
     -3824.6424
  -3893229.29346  -1058897.25046  24281399.2344   24281403.4734
       826.1214
  -3584653.47847  -2680362.04346  23504980.8534   23504982.3234
     -1556.2734
  15106497.14747  11806646.06147  22755665.1564   22755670.0534
     -4008.8634
  15007731.60043  16039142.61245  25248321.2474   25248324.6404
     -4730.2824
 06  4 29  1  8 30.0040000  0  6G 1G 4G25G 2G 5G14
   1381597.50246   3485434.72546  24312130.8904   24312135.0154
     -2508.4364
   9204975.23746   7234894.62445  24996016.4094   24996021.2994
     -3832.6774
  -3905576.00146  -1068518.05146  24279049.7124   24279053.9204
       820.0974
  -3561228.58447  -2662108.87446  23509438.4644   23509440.2804
     -1567.0574
  15166672.85347  11853536.20247  22767116.2234   22767121.2934
     -4014.5704
  15078719.35944  16094457.71545  25261829.8234   25261833.9854
     -4734.7674
 06  4 29  1  8 45.0040000  0  6G 1G 4G25G 2G 5G14
   1419295.51646   3514809.80646  24319304.5694   24319308.8294
     -2517.8984
   9262524.57946   7279738.26845  25006967.6954   25006973.4644
     -3840.4974
  -3917833.16146  -1078069.08546  24276717.2324   24276721.0894
       814.2574
  -3537642.80647  -2643730.33546  23513926.6824   23513928.2324
     -1577.6554
  15226933.36448  11900492.43747  22778583.4284   22778588.1834
     -4020.0944
  15149773.07344  16149824.22145  25275350.9094   25275356.2504
     -4739.0214
 06  4 29  1  9  0.0040000  0  6G 1G 4G25G 2G 5G14
   1457136.23346   3544296.07646  24326505.4174   24326510.0364
     -2527.5414
   9320191.82546   7324673.76945  25017941.4094   25017947.0564
     -3848.5024
  -3930001.71146  -1087551.06546  24274401.6194   24274405.8044
       808.2094
  -3513897.16247  -2625227.22946  23518445.3224   23518447.5424
     -1588.4444
  15287277.38848  11947513.74447  22790066.5374   22790071.1674
     -4025.7844
  15220891.10244  16205240.88345  25288884.2424   25288890.4084
     -4743.4184
 06  4 29  1  9 15.0040000  0  6G 1G 4G25G 2G 5G14
   1495121.66746   3573895.13346  24333733.8024   24333738.2754
     -2537.2074
   9377978.93946   7369702.67046  25028937.9344   25028942.1444
     -3856.4844
  -3942079.11946  -1096962.01946  24272103.3514   24272107.6404
       802.1004
  -3489989.57647  -2606597.93446  23522994.7754   23522996.6234
     -1599.2574
  15347706.88948  11994601.65947  22801565.8884   22801569.8064
     -4031.5004
  15292075.03043  16260708.78945  25302430.0854   25302434.0544
     -4747.8024
 06  4 29  1  9 30.0040000  0  6G 1G 4G25G 2G 5G14
   1533250.96346   3603606.26546  24340989.5654   24340994.5044
     -2546.7394
   9435884.85546   7414824.16745  25039957.0834   25039961.5864
     -3864.3524
  -3954065.87246  -1106302.33846  24269822.3384   24269826.1614
       796.1014
  -3465920.83647  -2587843.06746  23527574.9034   23527576.6504
     -1609.9554
  15408221.05748  12041755.54747  22813081.3594   22813085.5844
     -4037.0964
  15363323.85944  16316227.33745  25315988.3254   25315991.5734
     -4752.0794
 06  4 29  1  9 45.0040000  0  6G 1G 4G25G 2G 5G14
   1571524.03546   3633429.43246  24348272.7304   24348276.9074
     -2556.3204
   9493909.46746   7460038.11846  25050998.8394   25051002.3354
     -3872.2334
  -3965961.66646  -1115571.78646  24267558.6254   24267562.5914
       790.0314
  -3441690.77047  -2568962.48646  23532185.7324   23532187.2374
     -1620.7094
  15468819.75548  12088975.29747  22824612.9114   22824617.1614
     -4042.7284
  15434637.21644  16371796.14545  25329558.8364   25329562.8864
     -4756.3524
 06  4 29  1 10  0.0040000  0  6G 1G 4G25G 2G 5G14
   1609940.33346   3663364.22046  24355583.1374   24355588.1964
     -2565.8524
   9552052.00146   7505343.99245  25062062.9974   25062066.6674
     -3880.0854
  -3977766.58946  -1124770.41346  24265312.2214   24265316.6474
       783.9654
  -3417299.63947  -2549956.41846  23536827.2304   23536828.4264
     -1631.4414
  15529502.47547  12136260.52947  22836160.4364   22836164.4764
     -4048.3034
  15506014.53145  16427414.76945  25343141.5484   25343147.2674
     -4760.6054
 06  4 29  1 10 15.0040000  0  6G 1G 4G25G 2G 5G14
   1648500.00646   3693410.71846  24362920.8434   24362925.2534
     -2575.3494
   9610312.52146   7550741.79245  25073149.6134   25073153.1424
     -3887.9064
  -3989479.99146  -1133897.74046  24263083.2314   24263087.1724
       777.9104
  -3392747.14847  -2530824.59746  23541499.4374   23541500.8774
     -1642.1484
  15590269.34947  12183611.33247  22847723.9914   22847728.8014
     -4053.8624
  15577455.63844  16483083.12445  25356736.3474   25356740.8044
     -4764.7934
 06  4 29  1 10 30.0040000  0  6G 1G 4G25G 2G 5G14
   1687202.54046   3723568.54346  24370285.7064   24370290.1524
     -2584.9524
   9668690.34046   7596230.99045  25084258.5664   25084262.3654
     -3895.7834
  -4001102.11346  -1142953.93246  24260871.6194   24260875.7654
       771.7404
  -3368033.68747  -2511567.34646  23546202.2504   23546203.7764
     -1652.9494
  15651119.81547  12231027.26747  22859303.4614   22859308.5684
     -4059.4984
  15648959.77344  16538800.54445  25370343.1954   25370347.2034
     -4769.0624
 06  4 29  1 10 45.0040000  0  6G 1G 4G25G 2G 5G14
   1726049.28146   3753838.73746  24377677.9934   24377682.9434
     -2594.5844
   9727186.73446   7641812.59745  25095390.1014   25095393.6994
     -3903.6804
  -4012631.11846  -1151937.57046  24258677.7214   24258681.8244
       765.4814
  -3343157.88647  -2492183.60546  23550935.9584   23550937.9234
     -1663.7954
  15712055.23348  12278509.40547  22870899.1014   22870903.8664
     -4065.1894
  15720527.98444  16594567.92945  25383962.2434   25383966.8084
     -4773.3374
 06  4 29  1 11  0.0040000  0  6G 1G 4G25G 2G 5G14
   1765038.82046   3784220.18946  24385097.4434   24385102.0204
     -2604.0054
   9785800.02546   7687485.29246  25106543.8514   25106547.6264
     -3911.4034
  -4024067.99546  -1160849.40146  24256501.3474   24256505.7024
       759.4474
  -3318120.82747  -2472674.20346  23555700.3324   23555702.4784
     -1674.4664
  15773074.13748  12326056.59747  22882510.6364   22882514.9634
     -4070.6594
  15792158.63144  16650384.00045  25397593.1714   25397598.4974
     -4777.4014
 06  4 29  1 11 15.0040000  0  6G 1G 4G25G 2G 5G14
   1804171.79846   3814713.42746  24392544.1694   24392548.7974
     -2613.6374
   9844530.94746   7733249.64345  25117719.9864   25117724.6934
     -3919.2934
  -4035411.63446  -1169688.58746  24254342.7224   24254347.1414
       753.1244
  -3292921.69047  -2453038.50446  23560495.5394   23560497.5914
     -1685.3524
  15834177.25248  12373669.40747  22894138.1874   22894142.4334
     -4076.3494
  15863852.34844  16706249.17445  25411236.0794   25411241.5574
     -4781.6804
 06  4 29  1 11 30.0040000  0  6G 1G 4G25G 2G 5G14
   1843447.44546   3845317.81446  24400018.0474   24400022.8204
     -2623.0014
   9903378.46446   7779104.81746  25128918.3214   25128923.0954
     -3926.9214
  -4046662.39646  -1178455.42246  24252201.7674   24252205.8074
       747.0694
  -3267560.99847  -2433276.92446  23565321.4794   23565322.9004
     -1695.9694
  15895363.88748  12421347.30247  22905781.6294   22905785.8794
     -4081.7664
  15935608.07944  16762162.69345  25424890.8204   25424894.0334
     -4785.6504
 06  4 29  1 11 45.0040000  0  6G 1G 4G25G 2G 5G14
   1882864.56646   3876032.43746  24407518.8444   24407523.6244
     -2632.6154
   9962341.32946   7825049.91145  25140138.5724   25140142.9184
     -3934.7904
  -4057821.01146  -1187150.45546  24250078.3724   24250081.9154
       740.7464
  -3242039.92147  -2413390.37146  23570177.9544   23570179.0464
     -1706.8374
  15956632.73548  12469089.24947  22917440.7104   22917444.9264
     -4087.4244
  16007424.23244  16818123.30645  25438557.0184   25438559.5274
     -4789.8374
 06  4 29  1 12  0.0040000  0  6G 1G 4G25G 2G 5G14
   1922424.13546   3906858.08446  24415046.7324   24415051.8444
     -2642.1254
  10021420.32746   7871085.48245  25151380.9024   25151386.1474
     -3942.5384
  -4068886.15246  -1195772.63246  24247972.7514   24247977.1744
       734.4784
  -3216357.42247  -2393378.03046  23575065.1494   23575066.0144
     -1717.6214
  16017984.78648  12516896.03147  22929115.6214   22929120.6214
     -4092.9824
  16079301.63943  16874131.62745  25452234.8664   25452237.2294
     -4793.9474
 06  4 29  1 12 15.0050000  0  6G 1G 4G25G 2G 5G14
   1962129.02746   3937796.96446  24422602.3014   24422607.9064
     -2651.5744
  10080619.59046   7917214.76745  25162646.1314   25162650.9584
     -3950.2224
  -4079857.83046  -1204321.98046  24245884.8884   24245889.1154
       728.2494
  -3190511.38747  -2373238.26146  23579983.4834   23579984.9784
     -1728.3524
  16079424.34347  12564770.99247  22940807.1824   22940811.7994
     -4098.4784
  16151245.23143  16930191.54445  25465925.2854   25465928.3444
     -4797.9584
 06  4 29  1 12 30.0050000  0  6G 1G 4G25G 2G 5G14
   2001972.21546   3968843.59546  24430184.1984   24430189.7674
     -2660.9064
  10139929.26646   7963430.07745  25173932.3824   25173936.0274
     -3957.7934
  -4090735.90546  -1212798.39246  24243814.8404   24243819.0194
       722.1224
  -3164506.63347  -2352974.81746  23584932.0294   23584933.4454
     -1738.9984
  16140941.51748  12612706.44247  22952513.5254   22952518.1594
     -4103.8634
  16223243.31643  16986293.90945  25479626.0734   25479629.9194
     -4801.8514
 06  4 29  1 12 45.0050000  0  6G 1G 4G25G 2G 5G14
   2041956.76346   4000000.39146  24437793.0024   24437797.2644
     -2670.4144
  10199353.62846   8009734.77145  25185240.4594   25185244.3534
     -3965.5064
  -4101520.23146  -1221201.76246  24241762.6304   24241767.0644
       715.7684
  -3138340.85947  -2332585.89146  23589911.2044   23589912.8014
     -1749.8164
  16202540.83648  12660705.90047  22964235.5074   22964239.8754
     -4109.4204
  16295301.04344  17042442.77645  25493338.2284   25493341.9024
     -4805.8754
 06  4 29  1 13  0.0050000  0  6G 1G 4G25G 2G 5G14
   2082084.24946   4031268.54646  24445429.0204   24445433.5464
     -2679.8954
  10258894.08146   8056129.92345  25196570.6294   25196574.4264
     -3973.1794
  -4112208.87246  -1229530.56446  24239728.6474   24239732.9434
       709.4104
  -3112012.48347  -2312070.26646  23594921.3284   23594923.6404
     -1760.6044
  16264223.91448  12708770.63347  22975973.4164   22975977.6364
     -4114.9544
  16367419.59644  17098639.00645  25507061.9814   25507065.1414
     -4809.8794
 06  4 29  1 13 15.0050000  0  6G 1G 4G25G 2G 5G14
   2122353.26746   4062647.00346  24453092.0024   24453096.4734
     -2689.2604
  10318549.12546   8102614.35745  25207922.6014   25207926.3444
     -3980.7704
  -4122802.75046  -1237785.53346  24237712.6864   24237716.8644
       703.1564
  -3085522.74947  -2291428.92246  23599962.1454   23599964.1054
     -1771.3104
  16325989.24247  12756899.44547  22987726.9794   22987731.4244
     -4120.3704
  16439597.41744  17154881.42945  25520797.0054   25520801.3654
     -4813.7634
 06  4 29  1 13 30.0050000  0  6G 1G 4G25G 2G 5G14
   2162763.00846   4094135.11546  24460781.7564   24460785.9664
     -2698.7474
  10378317.83345   8149187.33045  25219296.1914   25219300.3964
     -3988.4484
  -4133302.28946  -1245966.98446  24235714.6814   24235718.9224
       696.7354
  -3058872.14447  -2270662.20646  23605033.5744   23605035.2484
     -1782.1434
  16387836.13047  12805091.81347  22999496.0584   22999500.4234
     -4125.9064
  16511833.55144  17211169.28445  25534543.0964   25534546.2864
     -4817.7654
 06  4 29  1 13 45.0050000  0  6G 1G 4G25G 2G 5G14
   2203314.95246   4125734.02546  24468498.5854   24468502.4534
     -2708.1704
  10438201.66045   8195850.04245  25230691.6984   25230697.0964
     -3996.0374
  -4143705.52446  -1254073.39546  24233735.0054   24233738.9554
       690.3574
  -3032059.18947  -2249768.99146  23610135.8944   23610136.9274
     -1792.9264
  16449766.04947  12853348.88747  23011280.9414   23011285.5174
     -4131.3884
  16584129.18743  17267503.48745  25548300.4824   25548305.6844
     -4821.6364
 06  4 29  1 14  0.0050000  0  6G 1G 4G25G 2G 5G14
   2244006.96946   4157442.09646  24476242.0754   24476245.4834
     -2717.5144
  10498198.23845   8242600.62045  25242108.6754   25242113.7784
     -4003.5674
  -4154014.10546  -1262106.04546  24231773.3384   24231777.2224
       684.0314
  -3005085.65147  -2228750.64046  23615268.7814   23615270.0514
     -1803.6414
  16511776.80347  12901668.94747  23023081.2134   23023085.5624
     -4136.7924
  16656481.88444  17323882.21445  25562068.7774   25562075.0904
     -4825.4694
 06  4 29  1 14 15.0050000  0  6G 1G 4G25G 2G 5G14
   2284840.01346   4189260.05646  24484012.3594   24484016.2654
     -2726.9504
  10558308.40745   8289439.69945  25253547.2834   25253551.6314
     -4011.1544
  -4164226.70247  -1270063.90846  24229829.9384   24229833.7254
       677.5864
  -2977950.64847  -2207606.47946  23620432.3974   23620433.9484
     -1814.4274
  16573869.35747  12950052.74047  23034897.0384   23034901.4654
     -4142.2664
  16728892.56544  17380306.03945  25575848.1204   25575852.5334
     -4829.3274
 06  4 29  1 14 30.0050000  0  6G 1G 4G25G 2G 5G14
   2325814.04446   4221187.85946  24491809.4764   24491813.5044
     -2736.2644
  10618531.97745   8336367.13945  25265007.4344   25265012.0264
     -4018.6284
  -4174342.94047  -1277946.68446  24227904.8874   24227908.4624
       671.2284
  -2950654.02547  -2186336.38146  23625626.7724   23625628.7004
     -1825.1224
  16636043.76148  12998500.31947  23046728.4634   23046732.8704
     -4147.6464
  16801360.94444  17436774.87645  25589638.4504   25589642.2094
     -4833.1004
 06  4 29  1 14 45.0050000  0  6G 1G 4G25G 2G 5G14
   2366927.62046   4253224.41846  24499633.1344   24499636.8574
     -2745.5484
  10678867.62445   8383381.93145  25276488.8984   25276493.6034
     -4026.1154
  -4184363.78147  -1285755.12846  24225997.9934   24226001.6644
       664.8764
  -2923196.99047  -2164941.28646  23630851.6734   23630853.6764
     -1835.8194
  16698298.59648  13047010.57347  23058575.1944   23058579.3354
     -4152.9994
  16873885.34143  17493287.36145  25603439.3674   25603444.7504
     -4836.7654
 06  4 29  1 15  0.0050000  0  6G 1G 4G25G 2G 5G14
   2408181.12146   4285370.00346  24507483.3894   24507487.8914
     -2754.9784
  10739315.38345   8430484.04445  25287991.7404   25287996.5864
     -4033.6824
  -4194288.39247  -1293488.58846  24224109.4194   24224112.7204
       658.3624
  -2895579.00547  -2143420.77746  23636107.2024   23636109.4064
     -1846.6434
  16760634.22948  13095583.78747  23070437.2984   23070441.3394
     -4158.4734
  16946466.00243  17549843.68745  25617251.0104   25617256.9954
     -4840.6664
 06  4 29  1 15 15.0050000  0  6G 1G 4G25G 2G 5G14
   2449575.45246   4317625.32546  24515360.4454   24515365.0914
     -2764.3074
  10799876.13645   8477674.24245  25299516.0924   25299518.8374
     -4041.1494
  -4204115.41147  -1301146.00046  24222239.4144   24222243.1034
       651.8614
  -2867799.11747  -2121774.10746  23641393.5504   23641395.6134
     -1857.3904
  16823051.56048  13144220.66247  23082314.9314   23082318.8844
     -4163.8794
  17019103.56943  17606444.36045  25631073.5134   25631078.8844
     -4844.4044
 06  4 29  1 15 30.0050000  0  6G 1G 4G25G 2G 5G14
   2491109.91346   4349989.81446  24523264.1454   24523268.4194
     -2773.6584
  10860549.18845   8524951.93545  25311061.7794   25311065.8684
     -4048.6414
  -4213845.05947  -1308727.55046  24220387.9354   24220391.8044
       645.3824
  -2839857.70947  -2100001.58146  23646710.6274   23646712.3304
     -1868.1734
  16885550.00548  13192920.74047  23094207.9924   23094211.7004
     -4169.2794
  17091797.23543  17663088.75945  25644906.6314   25644912.6124
     -4848.1494
 06  4 29  1 15 45.0050000  0  6G 1G 4G25G 2G 5G14
   2532784.15246   4382463.25946  24531194.4194   24531198.8794
     -2782.9084
  10921333.79845   8572316.53145  25322628.6924   25322634.0364
     -4056.0154
  -4223477.33647  -1316233.21146  24218554.9804   24218559.2934
       638.9334
  -2811755.03847  -2078103.39446  23652058.3944   23652059.5354
     -1878.8534
  16948129.21048  13241683.74447  23106116.4274   23106120.6354
     -4174.5964
  17164546.32443  17719776.30845  25658750.2984   25658755.5584
     -4851.7304
 06  4 29  1 16  0.0050000  0  6G 1G 4G25G 2G 5G14
   2574596.95446   4415044.65346  24539151.1034   24539155.5654
     -2792.2224
  10982228.87045   8619767.23645  25334216.6124   25334221.6554
     -4063.4304
  -4233012.87247  -1323663.49146  24216740.4254   24216744.2914
       632.3884
  -2783492.07647  -2056080.29746  23657436.6624   23657437.9764
     -1889.6334
  17010787.91547  13290508.69647  23118039.9894   23118044.1204
     -4179.9894
  17237349.52843  17776506.04845  25672604.3164   25672608.6254
     -4855.4084
 06  4 29  1 16 15.0050000  0  6G 1G 4G25G 2G 5G14
   2616550.44346   4447735.68246  24547134.5764   24547138.6924
     -2801.5474
  11043236.32145   8667305.48345  25345825.9224   25345831.2564
     -4070.8704
  -4242449.17147  -1331016.45146  24214944.7474   24214948.3374
       625.8034
  -2755066.53847  -2033930.53046  23662845.8664   23662847.4914
     -1900.4214
  17073528.34547  13339397.34047  23129979.0974   23129983.6954
     -4185.3834
  17310208.73943  17833279.42345  25686468.9664   25686473.7134
     -4859.0994
 06  4 29  1 16 30.0050000  0  6G 1G 4G25G 2G 5G14
   2658643.73846   4480535.64546  24555144.6454   24555148.9704
     -2810.8874
  11104355.20045   8714930.56945  25357456.4834   25357462.3464
     -4078.2994
  -4251786.63947  -1338292.40046  24213167.8834   24213171.7004
       619.1954
  -2726479.29847  -2011654.75246  23668285.8374   23668287.5634
     -1911.2274
  17136349.56747  13388348.92946  23141933.5754   23141938.1734
     -4190.7914
  17383122.91943  17890095.63745  25700344.1144   25700348.8904
     -4862.7824
 06  4 29  1 16 45.0050000  0  6G 1G 4G25G 2G 5G14
   2700875.69146   4513443.65146  24563181.1444   24563184.8414
     -2820.0464
  11165584.19145   8762641.43245  25369108.0144   25369112.6104
     -4085.5604
  -4261026.07947  -1345491.95746  24211409.6814   24211413.4674
       612.7174
  -2697731.24647  -1989253.67946  23673756.4144   23673758.0584
     -1921.8534
  17199250.59347  13437362.70846  23153903.2394   23153907.5264
     -4196.0224
  17456090.73743  17946953.69545  25714229.4784   25714235.5854
     -4866.2614
 06  4 29  1 17  0.0050000  0  6G 1G 4G25G 2G 5G14
   2743245.68146   4546459.23946  24571243.9354   24571248.7164
     -2829.2674
  11226922.56145   8810437.58745  25380780.3384   25380784.2904
     -4092.8884
  -4270167.54146  -1352615.16746  24209670.1084   24209673.6974
       606.1424
  -2668822.83647  -1966727.63846  23679257.5084   23679258.8794
     -1932.5814
  17262230.73347  13486438.13647  23165887.9544   23165892.5404
     -4201.3054
  17529111.23843  18003852.75445  25728124.8664   25728128.3654
     -4869.7884
 06  4 29  1 17 15.0050000  0  6G 1G 4G25G 2G 5G14
   2785754.09546   4579582.69146  24579333.0534   24579337.6554
     -2838.4424
  11288370.59745   8858319.15245  25392473.5284   25392477.4004
     -4100.1174
  -4279210.22346  -1359661.40846  24207949.3334   24207953.2274
       599.6134
  -2639753.52547  -1944076.22846  23684789.2264   23684790.3624
     -1943.2634
  17325290.36047  13535575.50247  23177887.8074   23177892.3754
     -4206.5734
  17602184.75043  18060793.11545  25742030.3224   25742036.5404
     -4873.2434
 06  4 29  1 17 30.0050000  0  6G 1G 4G25G 2G 5G14
   2828401.78846   4612814.65546  24587448.6664   24587453.1004
     -2847.8484
  11349929.16845   8906286.87345  25404187.7424   25404192.0734
     -4107.6234
  -4288152.78247  -1366629.62746  24206247.6104   24206251.7314
       592.7894
  -2610522.32147  -1921298.66946  23690351.7454   23690352.5144
     -1954.1774
  17388430.44947  13584775.56347  23189902.9734   23189907.3574
     -4212.0544
  17675311.89043  18117775.24645  25755945.9464   25755949.5494
     -4876.9844
 06  4 29  1 17 45.0050000  0  6G 1G 4G25G 2G 5G14
   2871188.12446   4646154.68346  24595590.6894   24595594.3954
     -2857.0824
  11411597.30145   8954339.93445  25415922.8164   25415926.2514
     -4114.9134
  -4296995.44947  -1373520.00546  24204564.8874   24204568.6104
       586.1374
  -2581129.74747  -1898395.36846  23695944.9794   23695946.0744
     -1964.9344
  17451650.33147  13634037.80047  23201933.3264   23201937.9614
     -4217.3644
  17748491.85043  18174798.60145  25769871.6274   25769876.2964
     -4880.4654
 06  4 29  1 18  0.0050000  0  6G 1G 4G25G 2G 5G14
   2914111.75546   4679601.66646  24603758.8294   24603762.7414
     -2866.1594
  11473373.69745   9002477.38645  25427678.4684   25427684.7564
     -4122.0514
  -4305739.10047  -1380333.22746  24202901.0014   24202905.2064
       579.5784
  -2551576.92247  -1875367.19546  23701568.6934   23701569.6214
     -1975.5404
  17514948.70547  13683361.20746  23213978.5964   23213982.9254
     -4222.5154
  17821723.06543  18231861.89945  25783807.0874   25783810.1554
     -4883.7834
 06  4 29  1 18 15.0050000  0  6G 1G 4G25G 2G 5G14
   2957173.22046   4713156.05146  24611953.1794   24611957.1594
     -2875.3754
  11535258.68345   9050699.41345  25439454.8134   25439459.4784
     -4129.3174
  -4314382.77547  -1387068.55746  24201256.1444   24201260.0434
       572.8844
  -2521863.15447  -1852213.61446  23707223.0324   23707224.6964
     -1986.3014
  17578326.12747  13732746.19946  23226038.9104   23226043.5884
     -4227.8104
  17895005.85943  18288965.30745  25797752.4154   25797755.9484
     -4887.2494
 06  4 29  1 18 30.0050000  0  6G 1G 4G25G 2G 5G14
   3000372.09146   4746817.51946  24620173.6334   24620177.1514
     -2884.4334
  11597251.95445   9099005.87145  25451251.7684   25451255.5254
     -4136.4164
  -4322926.36447  -1393725.89646  24199630.3504   24199634.0724
       566.2934
  -2491988.70647  -1828934.82546  23712907.9544   23712909.7354
     -1996.9294
  17641782.21847  13782192.48846  23238114.2074   23238119.0464
     -4232.9734
  17968339.70843  18346108.53545  25811707.4384   25811709.4714
     -4890.5564
 06  4 29  1 18 45.0050000  0  6G 1G 4G25G 2G 5G14
   3043707.52046   4780585.37546  24628420.0574   24628424.2794
     -2893.6324
  11659352.39245   9147395.82545  25463069.1074   25463073.2764
     -4143.6494
  -4331370.28647  -1400305.57246  24198023.5184   24198027.2944
       559.5484
  -2461954.27347  -1805531.36746  23718623.3144   23718625.1764
     -2007.6794
  17705316.21647  13831699.49146  23250204.3254   23250208.8534
     -4238.2464
  18041723.56243  18403290.70945  25825671.9514   25825675.7854
     -4893.9554
 06  4 29  1 19  0.0050000  0  6G 1G 4G25G 2G 5G14
   3087180.27346   4814460.23946  24636692.6184   24636697.2584
     -2902.7284
  11721560.62645   9195869.75145  25474906.9604   25474911.9464
     -4150.7594
  -4339713.31247  -1406806.63046  24196435.9014   24196439.7814
       552.8694
  -2431758.89447  -1782002.50346  23724369.3004   23724371.3104
     -2018.3504
  17768928.91347  13881267.82246  23262309.4254   23262313.5144
     -4243.4314
  18115158.07843  18460512.41545  25839646.0834   25839652.0654
     -4897.2544
 06  4 29  1 19 15.0050000  0  6G 1G 4G25G 2G 5G14
   3130789.68446   4848441.59346  24644991.1654   24644995.1924
     -2911.8144
  11783875.93345   9244427.11945  25486765.1694   25486768.8544
     -4157.8824
  -4347955.71547  -1413229.28546  24194867.4204   24194871.0044
       546.1754
  -2401403.19847  -1758348.70946  23730145.8024   23730148.0354
     -2029.0104
  17832619.60647  13930896.92146  23274429.3604   23274433.9204
     -4248.6024
  18188642.32043  18517772.82545  25853629.6934   25853632.9434
     -4900.5654
 06  4 29  1 19 30.0050000  0  6G 1G 4G25G 2G 5G14
   3174534.90046   4882528.77146  24653315.5734   24653319.5634
     -2920.9514
  11846297.39245   9293067.19345  25498643.5574   25498647.9064
     -4165.0404
  -4356097.78447  -1419573.74646  24193318.0324   24193322.1504
       539.3664
  -2370887.86547  -1734570.51946  23735952.6684   23735954.4264
     -2039.7634
  17896387.54647  13980586.21346  23286563.9914   23286568.8264
     -4253.8514
  18262175.19543  18575071.13445  25867622.5934   25867627.6914
     -4903.8994
 06  4 29  1 19 45.0050000  0  6G 1G 4G25G 2G 5G14
   3218415.94046   4916721.76546  24661665.8344   24661669.6714
     -2929.8834
  11908824.85845   9341789.89345  25510542.1604   25510546.3844
     -4172.0014
  -4364139.14347  -1425839.73346  24191787.8024   24191792.1744
       532.7684
  -2340212.69647  -1710667.78946  23741789.9524   23741792.0814
     -2050.2924
  17960232.75947  14030335.71746  23298713.3354   23298718.2434
     -4258.8734
  18335756.52643  18632407.17045  25881624.6574   25881630.5854
     -4906.9904
 06  4 29  1 20  0.0050000  0  6G 1G 4G25G 2G 5G14
   3262433.60146   4951021.22746  24670042.0844   24670046.7114
     -2939.1374
  11971458.96145   9390595.68245  25522461.0604   25522467.4044
     -4179.2244
  -4372078.50947  -1432026.25046  24190276.9894   24190280.9964
       525.8194
  -2309376.77547  -1686639.80046  23747657.8404   23747659.8604
     -2061.1674
  18024156.01347  14080146.03546  23310877.5384   23310882.3854
     -4264.2314
  18409386.90443  18689781.50945  25895636.0724   25895640.8484
     -4910.3974
 06  4 29  1 20 15.0050000  0  6G 1G 4G25G 2G 5G14
   3306587.63346   4985426.94846  24678444.3124   24678449.8984
     -2948.1644
  12034199.48645   9439484.41945  25534400.2124   25534404.4984
     -4186.2554
  -4379915.68047  -1438133.13146  24188785.6184   24188789.7344
       519.0364
  -2278380.11947  -1662486.56046  23753556.3164   23753558.2694
     -2071.8184
  18088157.20847  14130017.08946  23323056.5794   23323061.5434
     -4269.3554
  18483066.01443  18747193.75645  25909656.7434   25909659.4174
     -4913.5734
 06  4 29  1 20 30.0050000  0  6G 1G 4G25G 2G 5G14
   3350878.09046   5019938.99446  24686872.5364   24686877.0104
     -2957.2824
  12097046.50945   9488456.07845  25546359.6024   25546364.2194
     -4193.3864
  -4387650.08646  -1444159.93046  24187313.7914   24187317.7384
       512.1674
  -2247222.56947  -1638207.94746  23759485.4054   23759486.9014
     -2082.5724
  18152236.44647  14179948.95846  23335250.4814   23335255.3184
     -4274.5834
  18556793.78343  18804643.87645  25923686.6664   25923690.3204
     -4916.8374
 06  4 29  1 20 45.0050000  0  6G 1G 4G25G 2G 5G14
   3395303.62846   5054556.29346  24695326.4914   24695330.8534
     -2966.2264
  12159998.30445   9537509.42145  25558338.9194   25558343.7724
     -4200.2984
  -4395282.59347  -1450107.34446  24185861.3594   24185865.3254
       505.4124
  -2215905.35547  -1613804.93446  23765444.8834   23765446.6074
     -2093.1654
  18216392.38647  14229940.59846  23347458.9734   23347463.4674
     -4279.6354
  18630568.70243  18862130.84845  25937725.5984   25937729.8324
     -4919.8954
 06  4 29  1 21  0.0050000  0  6G 1G 4G25G 2G 5G14
   3439864.02346   5089278.68046  24703806.0864   24703810.5894
     -2975.1424
  12223054.63045   9586644.19345  25570338.1544   25570341.6544
     -4207.2154
  -4402813.02747  -1455975.20746  24184428.3524   24184432.4994
       498.6554
  -2184428.48947  -1589277.49246  23771434.7394   23771436.1334
     -2103.7564
  18280624.80047  14279991.81946  23359682.0234   23359686.3784
     -4284.6804
  18704390.25043  18919654.08545  25951773.3454   25951776.2124
     -4922.9664
 06  4 29  1 21 15.0050000  0  6G 1G 4G25G 2G 5G14
   3484559.34346   5124106.22246  24712311.3424   24712315.5734
     -2984.2084
  12286215.54745   9635860.49945  25582357.3084   25582361.6254
     -4214.2444
  -4410240.81247  -1461763.08746  24183014.8764   24183018.7174
       491.7264
  -2152791.75747  -1564625.49646  23777455.0144   23777456.3194
     -2114.4824
  18344933.90847  14330102.80146  23371919.6674   23371924.0234
     -4289.8574
  18778258.41343  18977213.64045  25965830.0224   25965833.5704
     -4926.1364
 06  4 29  1 21 30.0050000  0  6G 1G 4G25G 2G 5G14
   3529389.95946   5159039.16346  24720842.3384   24720847.1424
     -2993.1664
  12349481.28145   9685158.41745  25594396.3864   25594399.4314
     -4221.1714
  -4417565.10247  -1467470.32446  24181621.0994   24181625.2444
       484.8834
  -2120994.68247  -1539848.56546  23783505.8104   23783507.2014
     -2125.1174
  18409320.09348  14380273.85446  23384171.9744   23384175.9584
     -4294.9364
  18852173.43543  19034809.75345  25979895.5964   25979901.4944
     -4929.1904
 06  4 29  1 21 45.0050000  0  6G 1G 4G25G 2G 5G14
   3574355.17646   5194077.00946  24729398.9354   24729403.6654
     -3002.2284
  12412851.03845   9734537.43445  25606455.2604   25606459.0474
     -4228.1674
  -4424786.16547  -1473097.12046  24180246.9844   24180251.2704
       477.9024
  -2089037.70747  -1514947.02246  23789587.0294   23789587.8634
     -2135.8414
  18473782.69247  14430504.46146  23396438.8154   23396442.8534
     -4300.1034
  18926134.26943  19092441.56745  25993969.8664   25993975.1574
     -4932.3224
 06  4 29  1 22  0.0050000  0  6G 1G 4G25G 2G 5G14
   3619455.70246   5229220.27846  24737981.2834   24737985.6694
     -3011.1784
  12476325.46445   9783998.02145  25618534.0394   25618539.5544
     -4235.0874
  -4431902.81147  -1478642.56146  24178892.7474   24178897.1174
       470.9854
  -2056920.16347  -1489920.36146  23795698.8114   23795700.2534
     -2146.4964
  18538322.40847  14480795.14146  23408720.3334   23408724.3534
     -4305.1904
  19000141.49943  19150109.46445  26008052.9494   26008057.9614
     -4935.3034
 06  4 29  1 22 15.0050000  0  6G 1G 4G25G 2G 5G14
   3664689.94546   5264467.75946  24746589.0564   24746592.5064
     -3020.0634
  12539902.78745   9833538.76845  25630632.4434   25630638.5634
     -4241.9064
  -4438916.15947  -1484107.50346  24177558.1684   24177562.0204
       464.1224
  -2024643.34047  -1464769.59546  23801840.8854   23801842.1964
     -2157.0904
  18602937.72247  14531144.72346  23421016.2364   23421020.3994
     -4310.2044
  19074193.34843  19207812.14145  26022144.5634   26022149.7244
     -4938.2594
 06  4 29  1 22 30.0050000  0  6G 1G 4G25G 2G 5G14
   3710058.67646   5299820.01746  24755222.4154   24755226.2204
     -3029.0664
  12603583.72045   9883160.25745  25642750.5884   25642756.1834
     -4248.8704
  -4445824.95347  -1489490.97546  24176243.4814   24176247.4354
       457.0904
  -1992206.35947  -1439494.02546  23808013.4314   23808014.8544
     -2167.8064
  18667629.47647  14581553.86446  23433326.6764   23433330.7274
     -4315.3384
  19148290.46243  19265550.09345  26036244.8604   26036248.6464
     -4941.3364
 06  4 29  1 22 45.0050000  0  6G 1G 4G25G 2G 5G14
   3755561.79546   5335276.99346  24763881.3614   24763885.5774
     -3037.9844
  12667368.00445   9932862.28445  25654888.3864   25654894.7084
     -4255.6924
  -4452628.90047  -1494792.75046  24174948.7414   24174952.9034
       450.1334
  -1959609.12747  -1414093.58146  23814216.4724   23814218.1754
     -2178.4504
  18732397.62947  14632022.54546  23445651.6494   23445655.7404
     -4320.3764
  19222432.71643  19323323.23545  26050353.6744   26050359.1374
     -4944.2864
 06  4 29  1 23  0.0050000  0  6G 1G 4G25G 2G 5G14
   3801198.39046   5370837.96546  24772565.7194   24772570.4494
     -3046.8874
  12731254.78145   9982644.16545  25667045.6544   25667050.9574
     -4262.5384
  -4459328.28347  -1500013.04346  24173673.8944   24173677.8154
       443.1434
  -1926852.48847  -1388568.92646  23820449.8424   23820451.1864
     -2189.0874
  18797241.35047  14682550.10546  23457990.9974   23457995.1604
     -4325.4294
  19296619.00443  19381130.71145  26064470.8984   26064478.0504
     -4947.1944
 06  4 29  1 23 15.0050000  0  6G 1G 4G25G 2G 5G14
   3846968.40546   5406502.90646  24781275.4714   24781280.5704
     -3055.7554
  12795243.76645  10032505.71345  25679222.3584   25679228.1384
     -4269.3444
  -4465922.84847  -1505151.66246  24172418.9954   24172423.3774
       436.1484
  -1893936.33847  -1362919.97646  23826713.5584   23826715.2874
     -2199.7144
  18862160.61347  14733136.54046  23470344.7304   23470349.0194
     -4330.4584
  19370849.21643  19438972.45345  26078596.4874   26078600.9254
     -4950.1284
 06  4 29  1 23 30.0050000  0  6G 1G 4G25G 2G 5G14
   3892871.43046   5442271.50346  24790010.5384   24790015.5864
     -3064.7024
  12859334.66445  10082446.62445  25691418.4204   25691422.6894
     -4276.1664
  -4472412.42347  -1510208.46046  24171184.0654   24171188.4644
       429.0614
  -1860860.84047  -1337146.85846  23833007.6054   23833009.6604
     -2210.4164
  18927155.11547  14783781.58446  23482712.7904   23482716.9084
     -4335.5394
  19445122.55243  19496847.75045  26092730.2474   26092737.1594
     -4953.0704
 06  4 29  1 23 45.0050000  0  6G 1G 4G25G 2G 5G14
   3938907.72846   5478143.93546  24798770.9494   24798775.3664
     -3073.5404
  12923527.49145  10132467.00545  25703633.9374   25703638.2724
     -4282.9474
  -4478796.28647  -1515182.89846  24169969.2474   24169973.4254
       422.0504
  -1827625.51047  -1311249.19046  23839332.0604   23839334.5384
     -2221.0154
  18992225.11347  14834485.47046  23495095.2074   23495099.3924
     -4340.5164
  19519439.12043  19554756.72145  26106872.2364   26106875.7594
     -4955.8824
 06  4 29  1 24  0.0050000  0  6G 1G 4G25G 2G 5G14
   3985076.23646   5514119.39746  24807556.5124   24807561.4864
     -3082.2384
  12987821.10745  10182565.89345  25715868.6204   25715873.8744
     -4289.5214
  -4485075.06147  -1520075.44446  24168774.4184   24168778.3054
       415.1304
  -1794231.45647  -1285227.86446  23845686.7274   23845689.3304
     -2231.5084
  19057369.57447  14885247.36546  23507491.8014   23507496.2854
     -4345.3964
  19593797.66943  19612698.41645  26121022.2124   26121028.9534
     -4958.5564
 06  4 29  1 24 15.0050000  0  6G 1G 4G25G 2G 5G14
   4031376.98446   5550197.90246  24816367.2664   24816372.0944
     -3091.1344
  13052215.57445  10232743.38945  25728122.4944   25728125.1324
     -4296.3444
  -4491248.18247  -1524885.66046  24167599.7044   24167603.6904
       408.0084
  -1760678.40347  -1259082.63346  23852071.6524   23852074.0354
     -2242.1704
  19122588.67247  14936067.43546  23519902.5854   23519906.8094
     -4350.4264
  19668198.08243  19670672.78245  26135180.1704   26135187.3254
     -4961.4184
 06  4 29  1 24 30.0050000  0  6G 1G 4G25G 2G 5G14
   4077810.59346   5586379.93646  24825203.3054   24825206.9184
     -3099.9634
  13116711.07045  10282999.60645  25740395.5994   25740401.1284
     -4303.0374
  -4497314.67247  -1529612.80046  24166445.2894   24166448.9284
       400.9004
  -1726965.77447  -1232813.04746  23858486.9444   23858489.1304
     -2252.7864
  19187882.99647  14986946.12246  23532327.6864   23532332.1114
     -4355.4194
  19742640.81743  19728680.05045  26149346.1734   26149350.9344
     -4964.2204
 06  4 29  1 24 45.0050000  0  6G 1G 4G25G 2G 5G14
   4124376.60746   5622665.13346  24834064.5134   24834068.8894
     -3108.8354
  13181307.30745  10333334.33245  25752687.9004   25752693.0804
     -4309.7904
  -4503274.50447  -1534256.82546  24165311.1644   24165314.6844
       393.7444
  -1693093.80947  -1206419.31246  23864932.5554   23864934.5064
     -2263.4584
  19253252.15247  15037883.11746  23544767.0254   23544771.5444
     -4360.4494
  19817125.34443  19786719.95545  26163520.1244   26163525.4614
     -4967.0284
 06  4 29  1 25  0.0050000  0  6G 1G 4G25G 2G 5G14
   4171074.58646   5659053.16546  24842950.8644   24842955.9504
     -3117.5984
  13246003.81645  10383747.19945  25764999.2744   25765002.2014
     -4316.4404
  -4509127.56647  -1538817.63946  24164197.3624   24164201.1394
       386.6324
  -1659062.65847  -1179901.52446  23871408.4624   23871410.5164
     -2274.0564
  19318695.86747  15088878.21546  23557220.5594   23557225.3654
     -4365.4074
  19891651.02443  19844791.83445  26177701.8994   26177707.0914
     -4969.7494
 06  4 29  1 25 15.0050000  0  6G 1G 4G25G 2G 5G14
   4217903.71946   5695543.42346  24851862.1624   24851866.0184
     -3126.2384
  13310799.69145  10434237.43045  25777329.5464   25777333.3444
     -4322.9384
  -4514874.15447  -1543295.50446  24163103.8124   24163107.4164
       379.6244
  -1624872.97347  -1153260.22246  23877914.5444   23877916.4644
     -2284.5244
  19384213.33147  15139930.77946  23569688.1254   23569692.5714
     -4370.2184
  19966217.08343  19902895.24945  26191891.3824   26191894.8554
     -4972.3244
 06  4 29  1 25 30.0050000  0  6G 1G 4G25G 2G 5G14
   4264863.39046   5732135.36646  24860798.2514   24860800.9064
     -3134.9734
  13375694.14545  10484804.54545  25789678.5714   25789682.8604
     -4329.5584
  -4520514.43347  -1547690.52346  24162030.4914   24162034.0744
       372.4804
  -1590525.29147  -1126495.79346  23884450.6834   23884452.2714
     -2295.0984
  19449804.05347  15191040.43146  23582169.6204   23582173.9764
     -4375.1384
  20040822.65943  19961029.38345  26206088.3534   26206094.4454
     -4974.9924
 06  4 29  1 25 45.0050000  0  6G 1G 4G25G 2G 5G14
   4311953.60446   5768829.02646  24869759.2074   24869762.7274
     -3143.7704
  13440687.20945  10535448.47845  25802046.3874   25802050.0994
     -4336.2124
  -4526047.85847  -1552002.27346  24160977.5054   24160981.6564
       365.2524
  -1556019.34347  -1099608.03546  23891016.9514   23891019.1154
     -2305.7474
  19515468.11047  15242207.21046  23594665.0734   23594669.4874
     -4380.1234
  20115467.78743  20019194.46245  26220292.8874   26220300.8474
     -4977.7394
 06  4 29  1 26  0.0050000  0  6G 1G 4G25G 2G 5G14
   4359174.71446   5805624.68446  24878745.0934   24878747.9354
     -3152.4994
  13505779.19245  10586169.46945  25814433.0044   25814437.3734
     -4342.8084
  -4531473.59347  -1556230.11146  24159945.0034   24159949.4194
       358.0634
  -1521354.64447  -1072596.58646  23897613.4164   23897614.9574
     -2316.3344
  19581205.87547  15293431.42946  23607174.5474   23607178.9724
     -4385.0504
  20190152.49143  20077390.28445  26234504.9114   26234511.9984
     -4980.3594
 06  4 29  1 26 15.0050000  0  6G 1G 4G25G 2G 5G14
   4406526.75546   5842522.36446  24887755.8874   24887758.9834
     -3161.1984
  13570969.87445  10636967.40045  25826838.4144   25826841.2214
     -4349.3524
  -4536791.18447  -1560373.69046  24158933.0884   24158937.1454
       350.8644
  -1486531.18447  -1045461.41846  23904240.0874   23904241.6584
     -2326.8954
  19647017.51247  15344713.20246  23619698.0954   23619702.8434
     -4389.9394
  20264876.68443  20135616.90345  26248724.4154   26248730.0624
     -4982.9774
 06  4 29  1 26 30.0050000  0  6G 1G 4G25G 2G 5G14
   4454008.86646   5879521.39946  24896791.4494   24896795.7694
     -3169.7784
  13636258.41045  10687841.55945  25839262.4374   25839267.2754
     -4355.8034
  -4542001.09247  -1564433.35546  24157941.6714   24157946.0304
       343.7394
  -1451549.70947  -1018203.13046  23910896.8454   23910899.0974
     -2337.3394
  19712902.13947  15396051.87346  23632235.5264   23632239.6364
     -4394.7214
  20339639.38543  20193873.52545  26262951.3074   26262956.3954
     -4985.4204
 06  4 29  1 26 45.0050000  0  6G 1G 4G25G 2G 5G14
   4501620.11846   5916621.07646  24905851.5994   24905855.7364
     -3178.4204
  13701643.70145  10738791.13245  25851704.8764   25851709.7264
     -4362.2954
  -4547103.69747  -1568409.40146  24156970.6764   24156975.2544
       336.5534
  -1416410.94147   -990822.27446  23917583.5364   23917586.1134
     -2347.8654
  19778858.86847  15447446.72246  23644786.6754   23644790.8714
     -4399.5614
  20414439.26843  20252159.07145  26277185.2824   26277187.6004
     -4987.9194
 06  4 29  1 27  0.0050000  0  6G 1G 4G25G 2G 5G14
   4549361.05046   5953821.82146  24914936.3904   24914940.6164
     -3187.0604
  13767126.27545  10789816.47745  25864165.8194   25864168.7794
     -4368.7684
  -4552098.00047  -1572301.06246  24156020.2844   24156024.4174
       329.3304
  -1381114.17347   -963318.30346  23924300.2974   23924302.4634
     -2358.4054
  19844888.29347  15498898.20946  23657351.6524   23657355.9534
     -4404.3944
  20489276.82643  20310473.99745  26291426.4694   26291433.5284
     -4990.4294
 06  4 29  1 27 15.0050000  0  6G 1G 4G25G 2G 5G14
   4597232.73046   5991124.40846  24924046.0734   24924049.7934
     -3195.7754
  13832707.09645  10840918.40745  25876645.4364   25876649.5204
     -4375.3054
  -4556982.43247  -1576107.11346  24155090.8134   24155095.1754
       321.9854
  -1345658.13847   -935690.23046  23931047.3774   23931049.7494
     -2369.0074
  19910991.66047  15550407.31446  23669930.7134   23669934.8244
     -4409.3324
  20564153.06642  20368819.16345  26305674.9424   26305677.4374
     -4993.0144
 06  4 29  1 27 30.0050000  0  6G 1G 4G25G 2G 5G14
   4645233.98646   6028527.98746  24933180.4434   24933184.3554
     -3204.3024
  13898384.86445  10892095.85845  25889143.4954   25889147.8074
     -4381.6644
  -4561757.66847  -1579828.07446  24154182.1224   24154186.2394
       314.7904
  -1310044.06447   -907939.00346  23937824.5304   23937826.3954
     -2379.4584
  19977167.77747  15601973.11646  23682523.6084   23682528.0664
     -4414.0884
  20639066.73742  20427193.40745  26319930.5264   26319932.6814
     -4995.4124
 06  4 29  1 27 45.0050000  0  6G 1G 4G25G 2G 5G14
   4693363.92746   6066031.83546  24942339.3164   24942342.9164
     -3213.0094
  13964158.70645  10943348.19345  25901659.8674   25901664.6214
     -4388.1634
  -4566424.10747  -1583464.26346  24153294.1254   24153298.2724
       307.4034
  -1274272.50447   -880065.06346  23944631.6534   23944633.4044
     -2390.0834
  20043415.97547  15653595.07446  23695130.2234   23695134.7664
     -4419.0034
  20714016.83042  20485596.10345  26334192.9714   26334196.4604
     -4997.9354
 06  4 29  1 28  0.0050000  0  6G 1G 4G25G 2G 5G14
   4741622.89446   6103636.22746  24951522.7144   24951526.6924
     -3221.5894
  14030028.85345  10994675.57245  25914194.5684   25914198.8064
     -4394.5454
  -4570980.96747  -1587015.05446  24152426.9964   24152431.3764
       300.1154
  -1238343.08547   -852068.11046  23951468.8064   23951470.3494
     -2400.5844
  20109736.52847  15705273.42046  23707750.6024   23707755.3474
     -4423.8174
  20789003.45042  20544027.12245  26348462.4434   26348470.3124
     -5000.3394
 06  4 29  1 28 15.0050000  0  6G 1G 4G25G 2G 5G14
   4790010.53646   6141340.89446  24960730.5724   24960734.4434
     -3230.1924
  14095994.90545  11046077.67045  25926747.4794   25926752.0744
     -4400.9824
  -4575428.09947  -1590480.35346  24151580.7444   24151584.4534
       292.7424
  -1202255.96347   -823948.28346  23958335.9604   23958337.5774
     -2411.1304
  20176129.22147  15757007.98846  23720384.7034   23720389.1514
     -4428.6444
  20864026.08542  20602486.23445  26362738.8464   26362741.1314
     -5002.7594
 06  4 29  1 28 30.0050000  0  6G 1G 4G25G 2G 5G14
   4838527.60546   6179146.39746  24969963.0634   24969967.4884
     -3238.7324
  14162057.54345  11097555.02445  25939318.7944   25939321.2994
     -4407.3344
  -4579764.23547  -1593859.16246  24150755.6054   24150759.4574
       285.4204
  -1166010.20847   -795704.84346  23965233.2874   23965234.6224
     -2421.6144
  20242594.89447  15808799.41746  23733032.6884   23733037.1564
     -4433.4174
  20939085.40343  20660974.05745  26377022.2354   26377028.6894
     -5005.1264
 06  4 29  1 28 45.0050000  0  6G 1G 4G25G 2G 5G14
   4887173.17046   6217052.04246  24979219.9764   24979223.7544
     -3247.2724
  14228215.70445  11149106.82245  25951908.2824   25951912.2864
     -4413.6774
  -4583989.81147  -1597151.81546  24149951.5074   24149955.9554
       278.0484
  -1129606.61947   -767338.40546  23972160.6424   23972162.2054
     -2432.1294
  20309132.70647  15860647.04746  23745694.3944   23745698.9274
     -4438.2124
  21014180.42442  20719489.62345  26391312.3174   26391319.6404
     -5007.4784
 06  4 29  1 29  0.0050000  0  6G 1G 4G25G 2G 5G14
   4935946.27946   6255057.04446  24988501.1764   24988505.1704
     -3255.7554
  14294468.51445  11200732.35845  25964515.7674   25964520.7044
     -4419.9794
  -4588105.29947  -1600358.68346  24149168.3654   24149172.5074
       270.7284
  -1093045.94747   -738849.58446  23979117.9054   23979119.6984
     -2442.5644
  20375741.73547  15912550.16246  23758369.6614   23758374.6704
     -4442.9434
  21089309.95942  20778031.96444  26405608.9874   26405617.4774
     -5009.7394
 06  4 29  1 29 15.0060000  0  6G 1G 4G25G 2G 5G14
   4984850.31646   6293164.07946  24997807.2824   24997811.4764
     -3264.2794
  14360820.24645  11252435.00445  25977142.0974   25977147.6514
     -4426.3064
  -4592110.30447  -1603479.46146  24148406.2344   24148410.1894
       263.3104
  -1056325.57547   -710236.30946  23986105.5704   23986107.6904
     -2453.0814
  20442426.68347  15964512.44646  23771059.3854   23771063.8984
     -4447.7214
  21164479.07442  20836605.30545  26419913.2454   26419914.9484
     -5012.0804
 06  4 29  1 29 30.0060000  0  6G 1G 4G25G 2G 5G14
   5033877.86046   6331367.35646  25007136.8844   25007141.8304
     -3272.7344
  14427261.27545  11304207.19945  25989785.4244   25989789.0294
     -4432.5074
  -4596004.76547  -1606514.10846  24147665.1374   24147668.9354
       255.9464
  -1019451.18247   -681503.01646  23993122.5534   23993124.5184
     -2463.5164
  20509177.82347  16016526.31946  23783761.7224   23783766.2934
     -4452.4454
  21239676.67643  20895200.84145  26434222.9534   26434226.9534
     -5014.3064
 06  4 29  1 29 45.0060000  0  6G 1G 4G25G 2G 5G14
   5083032.91946   6369669.98546  25016490.7514   25016495.0934
     -3281.2384
  14493796.51045  11356052.82745  26002446.6364   26002450.7504
     -4438.8144
  -4599787.75847  -1609461.88846  24146945.2434   24146949.4934
       248.5024
   -982419.43647   -652647.10946  24000169.4784   24000171.2624
     -2474.0104
  20576000.38847  16068595.84546  23796477.6504   23796482.2874
     -4457.2044
  21314908.51543  20953823.09745  26448539.1494   26448540.6144
     -5016.5654
 06  4 29  1 30  0.0060000  0  6G 1G 4G25G 2G 5G14
   5132314.31746   6408071.06746  25025868.7014   25025872.2264
     -3289.6324
  14560424.94145  11407971.07045  26015125.5914   26015129.9094
     -4444.9734
  -4603459.87047  -1612323.26646  24146246.4694   24146250.4864
       241.1124
   -945231.33347   -623669.36646  24007246.1514   24007247.6184
     -2484.4194
  20642893.31247  16120720.19046  23809206.9564   23809211.1444
     -4461.8654
  21390173.12343  21012470.78445  26462861.5734   26462869.3794
     -5018.7014
 06  4 29  1 30 15.0060000  0  6G 1G 4G25G 2G 5G14
   5181722.35746   6446570.85246  25035270.7314   25035275.2264
     -3298.1564
  14627146.52245  11459961.91745  26027822.2734   26027826.9804
     -4451.2934
  -4607020.40947  -1615097.71246  24145568.9274   24145572.9104
       233.5744
   -907886.39847   -594569.42046  24014352.6654   24014353.9764
     -2494.9504
  20709857.01647  16172899.68246  23821949.7214   23821954.3564
     -4466.6664
  21465470.67543  21071144.18745  26477190.3074   26477193.5904
     -5020.9794
 06  4 29  1 30 30.0060000  0  6G 1G 4G25G 2G 5G14
   5231257.53846   6485169.68546  25044696.9444   25044701.6154
     -3306.5784
  14693961.87945  11512025.80345  26040536.8244   26040541.2284
     -4457.4874
  -4610468.37147  -1617784.43246  24144912.8034   24144916.9824
       226.1084
   -870383.98247   -565346.75346  24021489.1304   24021490.7354
     -2505.3944
  20776892.01747  16225134.73446  23834706.0514   23834710.4804
     -4471.3714
  21540801.67742  21129843.63145  26491525.3704   26491533.4904
     -5023.1594
 06  4 29  1 30 45.0060000  0  6G 1G 4G25G 2G 5G14
   5280918.06146   6523866.17546  25054147.0314   25054151.5464
     -3314.9244
  14760869.00545  11564161.20045  26053268.8374   26053273.4764
     -4463.5754
  -4613805.01847  -1620384.40846  24144277.8654   24144282.0364
       218.6774
   -832725.89147   -536002.79146  24028655.2314   24028657.3344
     -2515.7874
  20843996.66147  16277424.06746  23847475.6314   23847479.9924
     -4476.0044
  21616164.10142  21188567.51745  26505866.3654   26505875.4714
     -5025.2354
 06  4 29  1 31  0.0060000  0  5G 1G 4G25G 2G 5
   5330704.62646   6562660.92146  25063621.0964   25063624.8004
     -3323.3304
  14827868.60545  11616368.68445  26066018.4064   26066022.6724
     -4469.7494
  -4617029.17647  -1622896.73646  24143664.3204   24143668.1784
       211.1694
   -794911.09247   -506536.72446  24035851.1504   24035852.9984
     -2526.2304
  20911171.74047  16329768.26846  23860258.6244   23860263.5854
     -4480.7084
 06  4 29  1 31 15.0060000  0  5G 1G 4G25G 2G 5
   5380615.87646   6601552.79146  25073118.9134   25073123.5404
     -3331.6114
  14894959.25245  11668647.06745  26078785.3204   26078789.1834
     -4475.7664
  -4620141.65247  -1625322.04046  24143072.0384   24143075.8174
       203.7134
   -756941.00047   -476949.63746  24043076.6094   24043078.3734
     -2536.5654
  20978415.96647  16382166.35346  23873054.7884   23873059.3654
     -4485.3014
 06  4 29  1 31 30.0060000  0  5G 1G 4G25G 2G 5
   5430652.46646   6640542.34146  25082640.5884   25082645.3394
     -3340.0154
  14962141.62545  11720996.92345  26091569.6504   26091572.9594
     -4481.9554
  -4623141.36347  -1627659.47546  24142501.2234   24142505.1454
       196.1334
   -718814.78347   -447240.90346  24050331.7804   24050334.3024
     -2547.0274
  21045730.01747  16434618.85246  23885864.2434   23885868.6484
     -4490.0094
 06  4 29  1 31 45.0060000  0  5G 1G 4G25G 2G 5
   5480814.29046   6679629.48646  25092186.0544   25092191.0064
     -3348.2994
  15029415.52945  11773418.12445  26104371.4524   26104376.9154
     -4487.9784
  -4626027.85447  -1629908.68246  24141951.9554   24141955.7704
       188.6554
   -680532.32047   -417410.41246  24057616.6804   24057618.9684
     -2557.3764
  21113113.97347  16487125.82146  23898686.9994   23898691.6404
     -4494.6044
 06  4 29  1 32  0.0060000  0  5G 1G 4G25G 2G 5
   5531100.85946   6718813.81046  25101755.2774   25101759.3424
     -3356.5854
  15096780.33845  11825910.20345  26117190.5894   26117196.5034
     -4494.0314
  -4628801.17547  -1632069.71246  24141424.2334   24141427.7544
       181.1214
   -642093.92247   -387458.42446  24064931.2674   24064933.5474
     -2567.7524
  21180567.41547  16539686.92246  23911522.9724   23911527.6084
     -4499.2034
 06  4 29  1 32 15.0060000  0  5G 1G 4G25G 2G 5
   5581512.20546   6758095.39446  25111348.2414   25111353.8434
     -3364.8544
  15164236.12045  11878473.10845  26130027.0494   26130033.2884
     -4500.0114
  -4631460.80447  -1634142.15346  24140918.1394   24140921.5814
       173.5744
   -603499.47847   -357384.82646  24072275.5424   24072277.4434
     -2578.1044
  21248090.48847  16592302.28946  23924372.2064   23924376.9274
     -4503.8034
 06  4 29  1 32 30.0060000  0  5G 1G 4G25G 2G 5
   5632047.77546   6797473.73946  25120964.8544   25120969.2964
     -3373.2494
  15231782.06245                  26142880.6434
     -4506.1524
  -4634006.79147  -1636126.02846  24140433.6624   24140437.4534
       165.8634
   -564749.46347   -327190.00546  24079649.4234   24079651.0864
     -2588.5954
  21315682.70247  16644971.53846  23937234.5954   23937239.4254
     -4508.5174
 06  4 29  1 32 45.0060000  0  5G 1G 4G25G 2G 5
   5682708.30746   6836949.46046  25130605.2524   25130609.8724
     -3381.5544
  15299419.03645                  26155751.5634
     -4512.1804
  -4636437.88647  -1638020.38446  24139971.0494   24139974.8464
       158.2104
   -525843.00247   -296873.27746  24087053.0574   24087054.2954
     -2599.0104
  21383344.91447  16697695.32346  23950110.3124   23950115.2414
     -4513.1654
 06  4 29  1 33  0.0060000  0  5G 1G 4G25G 2G 5
   5733492.73546   6876521.73546  25140269.2294   25140272.8434
     -3389.7264
  15367145.76145                  26168639.5724
     -4518.0874
  -4638754.71047  -1639825.70346  24139530.1704   24139533.7294
       150.6654
   -486780.94747   -266435.31946  24094486.2994   24094488.2604
     -2609.2864
  21451076.08847  16750472.85446  23962999.1414   23963003.5484
     -4517.6744
 06  4 29  1 33 15.0060000  0  5G 1G 4G25G 2G 5
   5784401.10546   6916190.61046  25149956.7554   25149960.3464
     -3398.0514
  15434962.45345                  26181544.6974
     -4524.1624
  -4640956.72947  -1641541.56446  24139111.1304   24139114.8754
       142.9214
   -447563.32447   -235876.14446  24101949.1514   24101951.2394
     -2619.7394
  21518876.42247  16803304.27646  23975901.1154   23975905.9224
     -4522.3674
 06  4 29  1 33 30.0060000  0  5G 1G 4G25G 2G 5
   5835433.14046   6955955.80946  25159667.8244   25159671.3754
     -3406.2564
  15502868.57545                  26194466.8144
     -4530.0854
  -4643043.66747  -1643167.73846  24138713.9744   24138717.9934
       135.2744
   -408190.11147   -205195.73346  24109441.6204   24109443.6694
     -2630.0814
  21586745.69447  16856189.40446  23988816.2174   23988821.0894
     -4526.9234
 06  4 29  1 33 45.0060000  0  5G 1G 4G25G 2G 5
   5886587.97546   6995816.71246  25169402.2824   25169406.4874
     -3414.4084
  15570863.34345                  26207405.8214
     -4535.9404
  -4645015.93747  -1644704.57346  24138338.6384   24138342.3954
       127.6554
   -368662.03347   -174394.62946  24116963.5594   24116964.9924
     -2640.3644
  21654683.16847  16909127.69046  24001744.2914   24001749.1754
     -4531.4424
 06  4 29  1 34  0.0060000  0  5G 1G 4G25G 2G 5
   5937865.48846   7035773.22846  25179160.0884   25179163.8084
     -3422.6004
  15638946.42745     17687.10545  26220361.6164   26220366.5414
     -4541.8134
  -4646873.16147  -1646151.75646  24137985.2094   24137988.9614
       119.9594
   -328979.15647   -143472.91246  24124514.9604   24124516.1604
     -2650.6984
  21722688.72347  16962119.02146  24014685.3334   24014690.4434
     -4535.9844
 06  4 29  1 34 15.0060000  0  5G 1G 4G25G 2G 5
   5989263.77646   7075823.84746  25188940.8644   25188944.2534
     -3430.5994
  15707115.86845     70806.16645  26233333.8724   26233338.1964
     -4547.5084
  -4648616.75747  -1647510.39646  24137653.3914   24137657.0204
       112.4274
   -289143.18547   -112431.89146  24132095.4824   24132097.2854
     -2660.8374
  21790760.62247  17015162.05046  24027638.9944   24027643.4814
     -4540.3514
 06  4 29  1 34 30.0060000  0  5G 1G 4G25G 2G 5
   6040783.16646   7115968.83646  25198744.6744   25198749.7574
     -3438.6394
  15775372.02445    123992.76745  26246322.6244   26246327.5384
     -4553.2634
  -4650245.85947  -1648779.82246  24137343.3604   24137346.8584
       104.8014
   -249153.80447    -81271.33546  24139705.2014   24139707.2344
     -2671.0574
  21858899.34747  17068257.13946  24040605.3734   24040610.0744
     -4544.7824
 06  4 29  1 34 45.0060000  0  5G 1G 4G25G 2G 5
   6092424.21146   7156208.61746  25208571.6344   25208577.0154
     -3446.7904
  15843715.47745    177247.35945  26259327.9934   26259332.1924
     -4559.0964
  -4651759.42247  -1649959.22646  24137055.3194   24137058.8634
        97.0404
   -209010.20647    -49990.62446  24147344.2674   24147346.4294
     -2681.3804
  21927105.61047  17121404.87246  24053584.5964   24053589.1864
     -4549.3244
 06  4 29  1 35  0.0060000  0  5G 1G 4G25G 2G 5
   6144186.37746   7196542.76246  25218421.6274   25218425.0184
     -3454.8374
  15912145.42345    230569.39045  26272349.7834   26272353.2344
     -4564.8544
  -4653157.50247  -1651048.63146  24136789.2614   24136792.6134
        89.3664
   -168712.79147    -18590.03846  24155012.6284   24155014.4644
     -2691.6134
  21995378.80147  17174604.75146  24066576.5534   24066580.9894
     -4553.7684
 06  4 29  1 35 15.0060000  0  5G 1G 4G25G 2G 5
   6196068.81646   7236970.63646  25228294.5364   25228298.2904
     -3462.8394
  15980661.08845    283958.20345  26285387.9024   26285392.7154
     -4570.5614
  -4654440.39547  -1652048.29146  24136545.1324   24136548.9134
        81.6864
   -128262.27447     12929.84246  24162710.1344   24162712.3484
     -2701.8054
  22063718.27347  17227856.27246  24079581.1154   24079585.6304
     -4558.1754
 06  4 29  1 35 30.0060000  0  5G 1G 4G25G 2G 5
   6248071.45546   7277492.14546  25238190.3344   25238194.6144
     -3470.8024
  16049262.37345    337413.70645  26298442.2514   26298447.2594
     -4576.2194
  -4655607.73747  -1652957.89746  24136322.9914   24136326.6044
        74.0244
    -87658.55847     44569.09646  24170436.7824   24170438.6634
     -2711.9644
  22132124.07147  17281159.47646  24092598.3184   24092603.2124
     -4562.5364
 06  4 29  1 35 45.0060000  0  5G 1G 4G25G 2G 5
   6300193.68245   7318106.85246  25248108.8604   25248114.3484
     -3478.8464
  16117948.56845    390935.39245  26311512.8544   26311517.0474
     -4581.9534
  -4656659.64947  -1653777.57246  24136122.8094   24136126.7264
        66.2304
    -46902.09947     76327.38246  24178192.4894   24178194.2304
     -2722.2334
  22200595.68147  17334513.96346  24105628.0624   24105632.9214
     -4567.0134
 06  4 29  1 36  0.0060000  0  5G 1G 4G25G 2G 5
   6352436.19046   7358815.29646  25258050.2784   25258055.8384
     -3486.7984
  16186720.25145    444523.70445  26324599.7024   26324605.2474
     -4587.5754
  -4657594.94947  -1654506.37546  24135944.8254   24135948.7834
        58.5004
     -5992.28747    108205.15046  24185977.3754   24185978.4224
     -2732.3864
  22269133.84247  17387920.31546  24118670.4784   24118674.8384
     -4571.3804
 06  4 29  1 36 15.0060000  0  5G 1G 4G25G 2G 5
   6404797.75146   7399616.52746  25268014.3644   25268019.6304
     -3494.7604
  16255576.28645    498177.72945  26337702.6084   26337709.0304
     -4593.2104
  -4658414.36747  -1655144.87846  24135788.8904   24135792.6674
        50.7234
     35069.84547    140201.61346  24193791.2424   24193792.6244
     -2742.5794
  22337737.44147  17441377.65446  24131725.3444   24131730.4104
     -4575.7804
 06  4 29  1 36 30.0060000  0  5G 1G 4G25G 2G 5
   6457277.90646   7440510.16046  25278001.0114   25278005.5534
     -3502.5904
  16324516.10545    551897.04845  26350821.4124   26350825.8994
     -4598.7314
  -4659117.74347  -1655692.95846  24135655.0414   24135659.3084
        43.0674
     76284.08647    172316.60546  24201634.0664   24201635.0064
     -2752.6474
  22406406.21947  17494885.77546  24144792.6064   24144797.7914
     -4580.0444
 06  4 29  1 36 45.0060000  0  5G 1G 4G25G 2G 5
   6509876.73546   7481496.24646  25288010.2604   25288015.8164
     -3510.5334
  16393539.71945    605681.67545  26363956.1914   26363960.1934
     -4604.3574
  -4659704.62047  -1656150.25846  24135543.3604   24135547.0714
        35.2424
    117650.59147    204550.23946  24209505.8544   24209507.1804
     -2762.8354
  22475140.30347  17548444.78346  24157872.2834   24157877.3024
     -4584.4444
 06  4 29  1 37  0.0060000  0  5G 1G 4G25G 2G 5
   6562593.70646   7522574.40046  25298041.9914   25298046.0664
     -3518.4364
  16462646.61045    659531.15545  26377106.7804   26377112.4934
     -4609.9344
  -4660174.96147  -1656516.76746  24135453.8584   24135457.4944
        27.4304
    159169.10747    236902.32046  24217406.5724   24217407.6374
     -2773.0064
  22543939.30147  17602054.37646  24170964.3194   24170969.4574
     -4588.8064
 06  4 29  1 37 15.0060000  0  5G 1G 4G25G 2G 5
   6615429.74846   7563745.33746  25308096.3474   25308100.3064
     -3526.3264
  16531837.67345    713446.27545  26390273.4184   26390279.2734
     -4615.5124
  -4660527.38947  -1656791.37746  24135386.7944   24135390.4384
        19.5954
    200840.50547    269373.54746  24225336.3834   24225337.6374
     -2783.1524
  22612804.23547  17655715.34346  24184068.9284   24184074.3634
     -4593.1434
 06  4 29  1 37 30.0060000  0  5G 1G 4G25G 2G 5
   6668383.67846   7605008.12746  25318173.1384   25318178.0544
     -3534.2214
  16601111.69444    767425.97745  26403455.8144   26403461.5534
     -4621.0784
  -4660762.45447  -1656974.54746  24135342.0594   24135345.8644
        11.7364
    242663.81147    301963.13346  24233295.1034   24233296.3954
     -2793.3174
  22681734.09647  17709426.92646  24197185.8804   24197190.6744
     -4597.5184
 06  4 29  1 37 45.0060000  0  5G 1G 4G25G 2G 5
   6721456.19646   7646363.30846  25328272.5114   25328278.1654
     -3542.0664
  16670469.15344    821470.70745  26416654.0954   26416658.8254
     -4626.5734
  -4660879.06947  -1657065.41346  24135319.8694   24135323.4754
         3.8694
    284639.73647    334671.64346  24241282.8624   24241284.5244
     -2803.4314
  22750729.64047  17763189.66846  24210315.3224   24210319.7134
     -4601.8444
 06  4 29  1 38  0.0060000  0  5G 1G 4G25G 2G 5
   6774645.19345   7687809.24846  25338394.0524   25338399.5134
     -3549.8004
  16739907.98544    875578.88545  26429867.8324   26429872.1254
     -4631.9624
  -4660878.80847  -1657065.20846  24135319.9154   24135323.5954
        -3.9044
    326766.31347    367497.54146  24249299.2904   24249300.9824
     -2813.4504
  22819788.86247  17817002.04546  24223456.8834   24223461.6024
     -4606.0594
 06  4 29  1 38 15.0060000  0  5G 1G 4G25G 2G 5
   6827951.07546   7729346.30646  25348537.8074   25348541.6894
     -3557.6084
  16809428.62744    929750.79745  26443097.1614   26443101.8334
     -4637.3834
  -4660760.81947  -1656973.26746  24135342.3684   24135346.0084
       -11.7834
    369044.05347    400441.22746  24257344.4924   24257346.1814
     -2823.5454
  22888912.25447  17870864.41346  24236610.6324   24236614.7784
     -4610.3524
 06  4 29  1 38 30.0060000  0  5G 1G 4G25G 2G 5
   6881373.49046   7770974.16546  25358703.7334   25358707.0134
     -3565.4614
  16879030.58444    983986.06945  26456341.9504   26456349.5254
     -4642.9184
  -4660524.99147  -1656789.50846  24135387.2354   24135390.6174
       -19.7384
    411472.82547    433502.61446  24265418.4314   24265419.8814
     -2833.6964
  22958099.54647  17924776.58046  24249776.5344   24249780.9544
     -4614.7014
 06  4 29  1 38 45.0060000  0  5G 1G 4G25G 2G 5
   6934912.73945   7812693.04946  25368891.8854   25368896.5674
     -3573.1424
  16948714.23543   1038285.00345  26469602.2954   26469610.1694
     -4648.2474
  -4660170.38347  -1656513.17746  24135454.7134   24135458.0354
       -27.5774
    454052.90447    466681.88546  24273521.1584   24273522.5684
     -2843.6794
  23027351.27647  17978738.95646  24262954.7184   24262959.1014
     -4618.8794
 06  4 29  1 39  0.0060000  0  5G 1G 4G25G 2G 5
   6988566.93946   7854501.49446  25379101.9474   25379106.9084
     -3580.7194
  17018477.63044   1092646.02345  26482877.8404   26482883.1024
     -4653.4664
  -4659698.50147  -1656145.47946  24135544.5074   24135547.8194
       -35.3284
    496782.56347    499977.72346  24281652.3374   24281654.0894
     -2853.5804
  23096665.53347  18032750.05046  24276144.8024   24276149.3624
     -4622.9744
 06  4 29  1 39 15.0060000  0  5G 1G 4G25G 2G 5
   7042335.19846   7896398.81745  25389333.7164   25389337.6694
     -3588.4124
  17088319.62445   1147068.38945  26496168.3424   26496172.1164
     -4658.8144
  -4659109.72847  -1655686.70246  24135656.5394   24135659.9214
       -43.2044
    539661.10247    533389.56146  24289811.8474   24289813.2114
     -2863.5894
  23166041.57947  18086809.29046  24289346.6204   24289351.0194
     -4627.1864
 06  4 29  1 39 30.0060000  0  5G 1G 4G25G 2G 5
   7096217.58746   7938385.11145  25399587.2184   25399591.9494
     -3595.9354
  17158240.40845   1201552.10045  26509473.8344   26509475.7914
     -4663.9734
  -4658403.47147  -1655136.36246  24135790.9214   24135794.2894
       -50.9824
    582688.75847    566917.61146  24297999.7384   24298001.0404
     -2873.4614
  23235479.67447  18140916.89146  24302560.2454   24302565.4344
     -4631.2424
 06  4 29  1 39 45.0060000  0  5G 1G 4G25G 2G 5
   7150216.02546   7980461.82546  25409862.7894   25409867.8654
     -3603.7814
  17228241.90344   1256098.67445  26522794.6744   26522797.3764
     -4669.4734
  -4657577.23347  -1654492.54046  24135948.1424   24135951.8134
       -59.1114
    625867.56147    600563.41746  24306216.3834   24306217.1614
     -2883.6424
  23304981.84147  18195074.39146  24315786.0644   24315790.8704
     -4635.6444
 06  4 29  1 40  0.0060000  0  5G 1G 4G25G 2G 5
   7204328.57746   8022627.46445  25420160.0624   25420164.9394
     -3611.2484
  17298322.15344   1310706.63745  26536130.5164   26536136.9284
     -4674.5884
  -4656632.47047  -1653756.36546  24136127.9214   24136131.9984
       -66.8934
    669195.67647    634325.58146  24314461.4364   24314462.4114
     -2893.4614
  23374546.36247  18249280.49846  24329023.7484   24329029.0394
     -4639.6554
 06  4 29  1 40 15.0060000  0  5G 1G 4G25G 2G 5
   7258555.59646   8064882.28445  25430479.1404   25430483.0804
     -3618.9624
  17368481.41544   1365376.17245  26549481.4254   26549488.3644
     -4679.9294
  -4655568.33247  -1652927.15746  24136330.4114   24136335.2654
       -74.9424
    712673.57047    668204.44846  24322734.9954   24322736.2214
     -2903.5374
  23444173.58447  18303535.46246  24342273.3844   24342278.1024
     -4643.9184
 06  4 29  1 40 30.0060000  0  5G 1G 4G25G 2G 5
   7312896.10946   8107225.53846  25440819.8164   25440824.5904
     -3626.5104
  17438718.76844   1420106.60145  26562847.1914   26562852.2874
     -4685.1174
  -4654385.25847  -1652005.27446  24136555.5354   24136559.9764
       -82.8724
    756300.46447    702199.42446  24331036.9244   24331038.4684
     -2913.4644
  23513862.76247  18357838.70646  24355534.8184   24355539.5754
     -4648.0434
 06  4 29  1 40 45.0060000  0  5G 1G 4G25G 2G 5
   7367350.33946   8149657.38046  25451182.1274   25451186.8924
     -3634.0584
  17509034.35044   1474897.87845  26576227.8664   26576230.4994
     -4690.3174
  -4653082.54747  -1650990.17246  24136803.4234   24136807.4904
       -90.8434
    800076.74847    736310.80546  24339367.3014   24339369.3724
     -2923.3864
  23583614.23047  18412190.47946  24368808.0934   24368812.5744
     -4652.1624
 06  4 29  1 41  0.0060000  0  5G 1G 4G25G 2G 5
   7421917.88146   8192177.52946  25461565.9914   25461571.7144
     -3641.5434
  17579427.65644   1529749.86245  26589623.2954   26589630.6404
     -4695.4174
  -4651660.09347  -1649881.76346  24137074.1054   24137078.0384
       -98.7594
    844001.93847    770538.22346  24347726.0094   24347728.3404
     -2933.2394
  23653427.61547  18466590.51146  24382093.1444   24382097.5044
     -4656.2084
 06  4 29  1 41 15.0060000  0  5G 1G 4G25G 2G 5
   7476597.66846   8234785.11346  25471971.2294   25471975.2534
     -3649.0834
  17649897.75344   1584661.59045  26603033.3104   26603038.4544
     -4700.5704
  -4650118.51847  -1648680.53646  24137367.4454   24137371.2324
      -106.7744
    888075.19647    804881.02146  24356112.8904   24356114.9604
     -2943.1764
  23723301.97947  18521038.03546  24395389.8014   24395394.3424
     -4660.3334
 06  4 29  1 41 30.0060000  0  5G 1G 4G25G 2G 5
   7531390.08846   8277480.50446  25482397.9044   25482402.5314
     -3656.5784
  17720444.70944   1639633.24045  26616457.9484   26616462.7364
     -4705.6984
  -4648456.93247  -1647385.78946  24137683.6344   24137687.1024
      -114.7894
    932297.06147    839339.62446  24364528.0474   24364529.8734
     -2953.0734
  23793237.82247  18575533.47046  24408698.1554   24408702.5464
     -4664.4344
 06  4 29  1 41 45.0060000  0  5G 1G 4G25G 2G 5
   7586294.34846   8320263.08846  25492845.8714   25492848.9474
     -3663.9774
  17791067.90344   1694664.21945  26629897.0274   26629901.7274
     -4710.7254
  -4646675.61747  -1645997.75746  24138022.6164   24138026.0174
      -122.7444
    976666.74647    873913.41546  24372971.3224   24372972.5974
     -2962.8814
  23863234.49447  18630076.32046  24422018.0864   24422022.2914
     -4668.4484
 06  4 29  1 42  0.0060000  0  5G 1G 4G25G 2G 5
   7641311.12346   8363133.32346  25503315.2284   25503319.0454
     -3671.4754
  17861767.96043   1749755.19745  26643350.7694   26643354.2484
     -4715.8824
  -4644773.36647  -1644515.48046  24138384.6094   24138388.0614
      -130.8084
   1021185.02847    908602.97846  24381442.8734   24381444.3234
     -2972.7924
  23933292.82947  18684667.22546  24435349.7644   24435353.9584
     -4672.5614
 06  4 29  1 42 15.0060000  0  5G 1G 4G25G 2G 5
   7696439.70546   8406090.65346  25513805.8214   25513808.9914
     -3678.9554
  17932544.13343   1804905.41845  26656819.0774   26656816.7754
     -4720.9044
  -4642750.37947  -1642939.11946  24138769.5854   24138773.3304
      -138.8784
   1065851.29647    943407.85846  24389942.5814   24389943.6224
     -2982.6684
  24003412.21147  18739305.69646  24448693.0614   24448697.2024
     -4676.6374
 06  4 29  1 42 30.0060000  0  5G 1G 4G25G 2G 5
   7751680.72745   8449135.57245  25524317.7934   25524322.4734
     -3686.4854
  18003397.01543   1860115.40145  26670301.9854   26670302.5054
     -4726.0654
  -4640605.50547  -1641267.79246  24139177.7544   24139181.3044
      -147.0624
   1110666.50947    978328.79946  24398470.6444   24398471.7634
     -2992.6484
  24073593.46347  18793992.35746  24462048.1234   24462052.3574
     -4680.8144
 06  4 29  1 42 45.0060000  0  6G 1G23G 4G25G 2G 5
   7807033.50845   8492267.58746  25534851.0494   25534855.5554
     -3693.9474
      -850.70143                  26653423.0884
       424.9444
  18074325.87943   1915384.63044  26683799.3384   26683803.7374
     -4731.1404
  -4638338.95247  -1639501.65046  24139609.0834   24139612.7824
      -155.2114
   1155630.03047   1013365.29746  24407026.9254   24407028.4664
     -3002.5454
  24143835.97247  18848726.78146  24475414.8224   24475418.7394
     -4684.9174
 06  4 29  1 43  0.0060000  0  6G 1G23G 4G25G 2G 5
   7862496.38346   8535485.42146  25545405.3054   25545409.7734
     -3701.2034
     -7163.66343                  26652221.9214
       416.7084
  18145329.00443   1970711.80245  26697310.7764   26697317.5894
     -4736.0074
  -4635951.86947  -1637641.58446  24140063.3424   24140066.6194
      -163.1754
   1200740.19747   1048516.06746  24415611.1134   24415613.0294
     -3012.2434
  24214138.25947  18903507.76846  24488792.9074   24488797.1484
     -4688.8244
 06  4 29  1 43 15.0060000  0  6G 1G23G 4G25G 2G 5
   7918069.19145   8578788.93045  25555980.4204   25555984.5724
     -3708.5434
    -13351.79944                  26651044.5244
       408.3534
  18216406.37142   2026096.62644  26710836.2624   26710843.6914
     -4740.9834
  -4633443.96047  -1635687.36546  24140540.5924   24140544.1374
      -171.2664
   1245997.03847   1083781.11746  24424223.2084   24424225.1694
     -3022.0254
  24284500.29947  18958335.32146  24502182.3694   24502186.9044
     -4692.8114
 06  4 29  1 43 30.0060000  0  6G 1G23G 4G25G 2G 5
   7973752.23745   8622178.29945  25566576.5284   25566580.2144
     -3715.8084
    -19414.20444                  26649890.8954
       400.0274
  18287558.01242   2081539.49544  26724375.9914   26724380.5904
     -4745.8694
  -4630814.40047  -1633638.35146  24141040.9924   24141044.6434
      -179.2894
   1291400.85447   1119160.71646  24432863.2674   24432865.5364
     -3031.7514
  24354922.41047  19013209.68546  24515583.2684   24515587.5754
     -4696.7324
 06  4 29  1 43 45.0060000  0  6G 1G23G 4G25G 2G 5
   8029543.91645   8665652.35545  25577193.3454   25577198.7574
     -3723.1424
    -25351.79745                  26648761.1514
       391.5894
  18358782.47143   2137039.11645  26737929.6914   26737938.0414
     -4750.8054
  -4628064.23147  -1631495.36346  24141564.3434   24141567.9584
      -187.4564
   1336950.25847   1154653.75446  24441531.0334   24441532.9054
     -3041.5704
  24425403.21047  19068129.78246  24528995.3344   24528999.9324
     -4700.7604
 06  4 29  1 44  0.0060000  0  6G 1G23G 4G25G 2G 5
   8085445.04145   8709211.64145  25587830.9494   25587835.5734
     -3730.4194
    -31163.32445        -0.31655  26647655.2954   26647656.3174
       383.1994
  18430080.44943   2192595.90244  26751497.2994   26751499.4654
     -4755.7104
  -4625192.15147  -1629257.38146  24142110.8934   24142114.5834
      -195.5674
   1382646.27347   1190261.04046  24450226.6924   24450228.5734
     -3051.3044
  24495943.64447  19123096.33946  24542418.7334   24542423.1074
     -4704.7074
 06  4 29  1 44 15.0060000  0  6G 1G23G 4G25G 2G 5
   8141455.21745   8752855.90845  25598489.3184   25598494.9414
     -3737.6084
    -36848.46344     -4430.30745  26646573.4694   26646575.4044
       374.8204
  18501451.54743   2248209.70045  26765078.7474   26765085.3474
     -4760.4534
  -4622198.09747  -1626924.34446  24142680.6484   24142684.5294
      -203.6304
   1428488.53747   1225982.28046  24458950.1814   24458952.0934
     -3060.9814
  24566543.40947  19178109.13346  24555853.4194   24555857.8994
     -4708.5874
 06  4 29  1 44 30.0060000  0  6G 1G23G 4G25G 2G 5
   8197573.35645   8796584.33545  25609168.2584   25609173.9674
     -3744.8824
    -42407.74944     -8762.17145  26645515.5254   26645518.3544
       366.3514
  18572894.73243   2303879.72945  26778673.9144   26778677.1194
     -4765.3814
  -4619082.59647  -1624496.68146  24143273.5134   24143277.1594
      -211.8254
   1474476.03447   1261816.68846  24467701.3034   24467702.8844
     -3070.7434
  24637201.62047  19233167.45846  24569299.2364   24569303.7304
     -4712.5624
 06  4 29  1 44 45.0060000  0  6G 1G23G 4G25G 2G 5
   8253800.95845   8840398.04245  25619867.9904   25619872.0184
     -3752.1284
    -47839.20144    -12994.50545  26644481.9514   26644486.6474
       357.8614
  18644411.41642   2359607.03544  26792283.0234   26792285.2014
     -4770.2354
  -4615843.70947  -1621972.87046  24143889.8554   24143893.3584
      -220.0204
   1520610.36947   1297765.52046  24476480.3804   24476482.1324
     -3080.4874
  24707919.84647  19288272.55546  24582756.4664   24582761.0944
     -4716.5304
 06  4 29  1 45  0.0060000  0  6G 1G23G 4G25G 2G 5
   8310137.13345   8884296.35245  25630588.4194   25630594.3714
     -3759.3544
    -53143.25243    -17127.47745  26643472.6184   26643475.6044
       349.3594
  18716000.66342   2415390.83744  26805906.0364   26805911.6004
     -4775.0474
  -4612481.79047  -1619353.18646  24144529.6114   24144533.2164
      -228.2214
   1566890.78947   1333828.17946  24485287.2614   24485288.7824
     -3090.2264
  24778697.37747  19343423.86146  24596224.9954   24596229.9884
     -4720.4694
 06  4 29  1 45 15.0060000  0  6G 1G23G 4G25G 2G 5
   8366582.07045   8928279.41445  25641329.5424   25641334.6274
     -3766.6234
    -58318.81744    -21160.32645  26642487.7474   26642491.8474
       340.7224
  18787662.70241   2471231.23043  26819542.9304   26819553.9104
     -4779.8534
  -4608996.10847  -1616637.06446  24145192.9174   24145196.6284
      -236.5274
   1613317.73747   1370005.02446  24494122.0054   24494123.2724
     -3100.0284
  24849534.54947  19398621.65746  24609704.8564   24609709.8824
     -4724.4804
 06  4 29  1 45 30.0060000  0  6G 1G23G 4G25G 2G 5
   8423135.28345   8972346.85345  25652091.2794   25652095.3874
     -3773.7894
    -63365.88444    -25093.13445  26641527.3224   26641531.5154
       332.2054
  18859396.93241   2527128.01143  26833193.5364   26833197.0404
     -4784.6764
  -4605386.73547  -1613824.57246  24145879.7604   24145883.4674
      -244.7164
   1659890.63647   1406295.57846  24502984.5264   24502985.8574
     -3109.6934
  24920430.96847  19453865.61846  24623195.9844   24623200.9864
     -4728.3734
 06  4 29  1 45 45.0060000  0  6G 1G23G 4G25G 2G 5
   8479795.34445   9016497.51145  25662873.3544   25662876.7434
     -3780.9454
    -68285.41144    -28926.50445  26640591.1834   26640593.9144
       323.6564
  18931201.94442                  26846857.5364
     -4789.4174
  -4601654.58447  -1610916.39946  24146589.9684   24146593.5234
      -252.9694
   1706608.15047   1442698.83346  24511874.5674   24511875.7264
     -3119.3884
  24991385.35946  19509154.74146  24636698.1464   24636703.3114
     -4732.2904
 06  4 29  1 46  0.0070000  0  6G 1G23G 4G25G 2G 5
   8536567.23145   9060735.36145  25673676.6994   25673680.0864
     -3788.1784
    -73075.96744    -32659.37945  26639679.6054   26639681.3164
       314.9934
  19003083.68241                  26860536.0194
     -4794.2604
  -4597797.61047  -1607910.96346  24147323.9314   24147327.5734
      -261.3024
   1753474.86047   1479218.34546  24520792.9994   24520794.6574
     -3129.1394
  25062403.74946  19564493.71546  24650212.4824   24650217.6804
     -4736.2604
 06  4 29  1 46 15.0070000  0  5G 1G23G25G 2G 5
   8593441.94745   9105053.30445  25684499.6224   25684503.0344
     -3795.2584
    -77737.64144    -36291.83045  26638792.4964   26638794.2584
       306.4104
  -4593817.38947  -1604809.49446  24148081.3334   24148084.6394
      -269.5244
   1800483.10747   1515848.14246  24529738.3744   24529739.8464
     -3138.7684
  25133475.37246  19619874.18446  24663736.9644   24663741.9914
     -4740.0984
 06  4 29  1 46 30.0070000  0  5G 1G23G25G 2G 5
   8650424.89245   9149455.59445  25695343.0984   25695347.1244
     -3802.3644
    -82268.57444    -39822.40645  26637930.2484   26637934.7354
       297.7914
  -4589711.43147  -1601610.04046  24148862.6654   24148866.9734
      -277.8184
   1847637.70347   1552591.96946  24538711.6104   24538713.1764
     -3148.4194
  25204606.83346  19675301.28646  24677272.8354   24677278.2234
     -4743.9844
 06  4 29  1 46 45.0070000  0  5G 1G23G25G 2G 5
   8707513.77245   9193940.43145  25706206.7524   25706211.5264
     -3809.4034
    -86670.48244    -43252.50645  26637092.6034   26637096.8074
       289.2004
  -4585481.57247                  24149667.5694
      -286.0984
   1894936.40747                  24547712.2394
     -3158.0204
  25275795.92646  19730773.28546  24690819.6694   24690824.7204
     -4747.8234
 06  4 29  1 47  0.0070000  0  5G 1G23G25G 2G 5
   8764708.12045   9238507.48545  25717090.4774   25717096.3314
     -3816.4904
    -90943.36144    -46581.98745  26636279.5124   26636280.6054
       280.5034
  -4581127.78247                  24150496.0454
      -294.4134
   1942379.00247                  24556740.2644
     -3167.6684
  25347042.22046  19786289.88546  24704377.3964   24704382.2424
     -4751.6934
 06  4 29  1 47 15.0070000  0  5G 1G23G25G 2G 5
   8822008.60845   9283157.22645  25727994.3774   25728000.8724
     -3823.5694
    -95085.73044    -49809.74845  26635491.2644   26635493.5434
       271.8054
  -4576648.84947      1406.60146  24151348.3404   24151351.9874
      -302.7824
   1989966.43247                  24565795.8534
     -3177.3404
  25418346.62746  19841851.74346  24717946.1754   24717951.2534
     -4755.5764
 06  4 29  1 47 30.0070000  0  5G 1G23G25G 2G 5
   8879415.10345   9327889.51445  25738918.4534   25738924.1104
     -3830.6574
    -99097.49245    -52935.75545  26634727.8634   26634730.3484
       263.0624
  -4572044.37247      4994.51546  24152224.5344   24152228.4004
      -311.1794
   2037698.52447                  24574878.9744
     -3186.9664
  25489709.20546  19897458.93546  24731526.0144   24731531.0694
     -4759.4484
 06  4 29  1 47 45.0070000  0  5G 1G23G25G 2G 5
   8936928.03245   9372704.75245  25749862.8304   25749867.3424
     -3837.7554
   -102977.52144    -55959.18345  26633989.5404   26633990.1984
       254.2604
  -4567313.45347      8680.95146  24153124.7914   24153128.6974
      -319.6344
   2085575.62947     14933.12246  24583989.6824   24583990.9474
     -3196.6594
  25561130.46646  19953111.83246  24745117.0334   24745122.3774
     -4763.3904
 06  4 29  1 48  0.0070000  0  5G 1G23G25G 2G 5
   8994546.24945   9417602.03045  25760827.2314   25760831.1424
     -3844.7604
   -106726.38944    -58880.36045  26633276.1214   26633277.1564
       245.4944
  -4562456.79647     12465.35246  24154048.9814   24154052.6954
      -328.0154
   2133596.84647     52352.24546  24593127.8184   24593129.2174
     -3206.2554
  25632609.38546  20008809.66946  24758719.0204   24758724.4284
     -4767.2204
 06  4 29  1 48 15.0070000  0  5G 1G23G25G 2G 5
   9052270.27345   9462581.81345  25771811.8064   25771815.1244
     -3851.7774
   -110342.88944    -61698.39145  26632587.9184   26632589.9914
       236.6784
  -4557473.35347     16348.56446  24154997.3014   24155001.4514
      -336.4564
   2181762.77747     89884.13346  24602293.4814   24602294.9494
     -3215.8774
  25704146.70146  20064553.00346  24772332.1214   24772337.0174
     -4771.0984
 06  4 29  1 48 30.0070000  0  5G 1G23G25G 2G 5
   9110100.05845   9507643.97145  25782816.4944   25782820.0314
     -3858.8194
   -113826.57745    -64412.90045  26631924.9744   26631927.5484
       227.8294
  -4552362.72147     20330.87746  24155969.8244   24155973.8474
      -344.9374
   2230073.47447    127528.82146  24611486.6924   24611488.1124
     -3225.5174
  25775742.42946  20120341.87446  24785956.3694   24785961.2424
     -4774.9694
 06  4 29  1 48 45.0070000  0  5G 1G23G25G 2G 5
   9168035.18246   9552788.22045  25793841.2354   25793844.4744
     -3865.8844
   -117177.32145    -67023.90145  26631287.3304   26631286.7934
       218.9164
  -4547124.67147     24412.47246  24156966.5994   24156970.3024
      -353.5034
   2278528.70846    165286.13846  24620707.4004   24620709.3164
     -3235.2034
  25847396.36246  20176176.10646  24799591.6854   24799596.6464
     -4778.9114
 06  4 29  1 49  0.0070000  0  5G 1G23G25G 2G 5
   9226074.23345   9598013.45345  25804885.7584   25804888.9184
     -3872.7214
   -120395.91545    -69531.89645  26630674.8584   26630675.7114
       210.1784
  -4541760.20747     28592.57546  24157987.4224   24157990.8874
      -361.8384
   2327127.19746    203155.08046  24629955.3734   24629957.4094
     -3244.6534
  25919107.22846  20232054.69546  24813237.8294   24813242.6564
     -4782.6164
 06  4 29  1 49 15.0070000  0  5G 1G23G25G 2G 5
   9284217.63845   9643320.00845  25815950.1314   25815955.4464
     -3879.6704
   -123481.33445    -71936.13245  26630087.7524   26630089.4714
       201.2754
  -4536268.44047     32871.87846  24159032.4724   24159036.1244
      -370.3324
   2375869.32646    241135.95246  24639230.6834   24639232.7044
     -3254.2374
  25990875.57847  20287978.07546  24826894.9194   24826899.4914
     -4786.4234
 06  4 29  1 49 30.0070000  0  5G 1G23G25G 2G 5
   9342463.82945   9688706.66645  25827034.0394   25827038.3664
     -3886.4834
   -126434.53045    -74237.30845  26629525.7914   26629526.1784
       192.4934
  -4530650.34747     37249.61446  24160101.5664   24160104.8764
      -378.7404
   2424753.66047    279227.63946  24648533.0674   24648534.2564
     -3263.6784
  26062699.96647  20343945.11646  24840562.6704   24840566.5514
     -4790.1464
 06  4 29  1 49 45.0070000  0  5G 1G23G25G 2G 5
   9400811.78245   9734172.57045  25838137.3154   25838142.4644
     -3893.2994
   -129256.09245    -76435.90045  26628988.8534   26628990.6954
       183.6534
  -4524906.39947     41725.41946  24161194.6024   24161197.8254
      -387.1764
   2473779.40946    317429.51646  24657862.3544   24657863.7824
     -3273.1394
  26134579.66646  20399955.25846  24854240.9394   24854246.0024
     -4793.8654
 06  4 29  1 50  0.0070000  0  5G 1G23G25G 2G 5
   9459263.93945   9779719.70945  25849260.3984   25849264.0914
     -3900.2244
   -131942.85645    -78529.50145  26628477.5514   26628479.3484
       174.6704
  -4519033.77047     46301.49646  24162312.1244   24162315.0994
      -395.7484
   2522949.04346    355743.50646  24667219.0204   24667220.6724
     -3282.7164
  26206517.15046  20456010.42346  24867930.2194   24867935.2254
     -4797.7034
 06  4 29  1 50 15.0070000  0  5G 1G23G25G 2G 5
   9517819.52645   9825347.43545  25860403.1614   25860407.4554
     -3907.1624
   -134495.14345    -80518.28945  26627991.8584   26627993.3194
       165.6534
  -4513032.70647     50977.65446  24163454.0794   24163457.5634
      -404.3694
   2572261.85946    394169.06346  24676602.9304   24676604.3494
     -3292.2974
  26278511.76546  20512110.11846  24881630.3624   24881634.9384
     -4801.5624
 06  4 29  1 50 30.0070000  0  5G 1G23G25G 2G 5
   9576476.85045   9871054.44845  25871565.2504   25871570.3534
     -3913.9424
   -136914.00745    -82403.10045  26627531.5764   26627531.0334
       156.7414
  -4506904.40747     55752.95146  24164620.2514   24164623.7654
      -412.8694
   2621716.21046    432704.91046  24686013.7774   24686016.0794
     -3301.7424
  26350562.00846  20568253.16246  24895341.0864   24895345.8564
     -4805.2744
 06  4 29  1 50 45.0070000  0  5G 1G23G25G 2G 5
   9635235.42545   9916840.32245  25882746.6114   25882750.8454
     -3920.6314
   -139199.43045    -84183.95345  26627096.6754   26627098.3164
       147.8784
  -4500648.93447     60627.34846  24165810.6174   24165814.3084
      -421.3004
   2671311.77346    471350.79546  24695451.5044   24695453.3534
     -3311.0854
  26422667.50146  20624439.24046  24909062.3314   24909067.5644
     -4808.8914
 06  4 29  1 51  0.0070000  0  5G 1G23G25G 2G 5
   9694095.95245   9962705.63645  25893947.3564   25893952.5044
     -3927.3964
   -141350.20444    -85859.84645  26626687.3874   26626690.7444
       138.9104
  -4494264.94447     65601.88446  24167025.4424   24167029.4984
      -429.8704
   2721049.35046    510107.34846  24704916.2484   24704918.7764
     -3320.5434
  26494829.15046  20680669.08846  24922794.2494   24922798.7324
     -4812.6194
 06  4 29  1 51 15.0070000  0  5G 1G23G25G 2G 5
   9753057.24145  10008649.49545  25905167.2874   25905173.3484
     -3934.0954
   -143366.87245    -87431.29445  26626303.6024   26626306.8054
       129.9774
  -4487753.15347     70676.01246  24168264.5964   24168268.4214
      -438.3564
   2770927.85646    548973.70146  24714407.8114   24714410.5484
     -3329.9174
  26567045.89346  20736941.85646  24936536.6464   24936540.9754
     -4816.2614
 06  4 29  1 51 30.0070000  0  5G 1G23G25G 2G 5
   9812119.34245  10054671.88345  25916406.4324   25916411.3014
     -3940.8284
   -145248.66444    -88897.60045  26625945.4454   26625947.4984
       120.9644
  -4481113.05247     75850.12246  24169528.1674   24169531.6444
      -446.9574
   2820947.41646    587949.97646  24723926.2384   24723928.6944
     -3339.3424
  26639317.99846  20793257.76646  24950289.5834   24950293.9644
     -4819.9684
 06  4 29  1 51 45.0070000  0  5G 1G23G25G 2G 5
   9871281.99345  10100772.70345  25927664.7284   25927669.0374
     -3947.4394
   -146995.40745    -90258.68745  26625612.9924   26625613.2484
       111.9984
  -4474344.45447     81124.34346  24170816.1904   24170819.4974
      -455.4524
   2871108.00946    627036.14946  24733471.4804   24733473.3064
     -3348.6554
  26711645.24746  20849616.65146  24964053.0114   24964057.6894
     -4823.5714
 06  4 29  1 52  0.0070000  0  5G 1G23G25G 2G 5
   9930543.84945  10146950.78145  25938941.8814   25938945.0064
     -3954.0544
   -148607.89944    -91515.17345  26625306.0824   26625306.9254
       103.0524
  -4467448.12447     86498.11946  24172128.5184   24172132.3124
      -463.9914
   2921408.25746    666231.14146  24743043.3004   24743045.3304
     -3357.9774
  26784026.58746  20906017.68646  24977826.7364   24977831.3084
     -4827.1944
 06  4 29  1 52 15.0070000  0  5G 1G23G25G 2G 5
   9989904.59645  10193205.89545  25950237.8084   25950243.0744
     -3960.7024
   -150085.89044    -92666.84645  26625024.8044   26625027.0964
        94.0244
  -4460423.96047     91971.49346  24173465.1674   24173468.6434
      -472.5744
   2971847.97447    705534.80346  24752641.6764   24752643.5914
     -3367.3304
  26856461.71846  20962460.63646  24991610.6894   24991615.6244
     -4830.8334
 06  4 29  1 52 30.0070000  0  5G 1G23G25G 2G 5
  10049364.56245  10239538.33145  25961552.6314   25961557.5874
     -3967.2664
   -151428.41944    -93712.98845  26624769.3244   26624770.5194
        85.0104
  -4453271.12047     97545.13146  24174826.2974   24174829.7264
      -481.1214
   3022427.58346    744947.47946  24762266.6714   24762268.1464
     -3376.6004
  26928951.10946  21018945.84446  25005404.9684   25005409.6364
     -4834.3974
 06  4 29  1 52 45.0070000  0  5G 1G23G25G 2G 5
  10108923.61345  10285947.96745  25972886.3544   25972889.9944
     -3973.9034
   -152635.12344    -94653.27745  26624539.6894   26624540.3844
        75.9084
  -4445989.24147    103219.32746  24176211.9804   24176215.6744
      -489.7674
   3073147.04446    784469.12946  24771918.2864   24771919.6974
     -3385.9634
  27001494.84646  21075473.41546  25019209.6104   25019214.4034
     -4838.0504
 06  4 29  1 53  0.0070000  0  5G 1G23G25G 2G 5
  10168581.18945  10332434.35645  25984238.8134   25984243.0734
     -3980.4244
   -153705.96945    -95487.68345  26624335.9574   26624338.9964
        66.8814
  -4438578.18247    108994.17946  24177622.2544   24177625.9734
      -498.3534
   3124005.96747    824099.44946  24781596.4484   24781597.2834
     -3395.1864
  27074092.64646  21132043.12446  25033024.5354   25033029.1124
     -4841.6174
 06  4 29  1 53 15.0070000  0  6G 1G23G 7G25G 2G 5
  10228335.06445  10378995.78945  25995609.5714   25995614.3744
     -3986.8294
   -154642.70645    -96217.60645  26624157.7194   26624158.6034
        57.9364
     -3684.55143                  26701365.8054
      1842.6514
  -4431039.90747    114868.16146  24179056.7364   24179060.3434
      -506.8314
   3175002.00347    863836.62246  24791300.6924   24791302.1724
     -3404.3384
  27146742.24346  21188653.18546  25046849.2864   25046853.7534
     -4845.0644
 06  4 29  1 53 30.0070000  0  6G 1G23G 7G25G 2G 5
  10288187.07845  10425633.72345  26006999.0254   26007004.4264
     -3993.4054
   -155442.77145    -96841.06145  26624005.5274   26624005.8544
        48.7774
    -31311.29543                  26696107.6334
      1840.9424
  -4423371.97447    120843.17246  24180515.8904   24180519.6574
      -515.5084
   3226137.21647    903682.23246  24801031.4164   24801032.9234
     -3413.6554
  27219445.79146  21245305.26346  25060684.3074   25060689.0924
     -4848.7014
 06  4 29  1 53 45.0070000  0  6G 1G23G 7G25G 2G 5
  10348136.64845  10472347.63345  26018407.0854   26018412.9184
     -3999.8154
   -156106.20744    -97358.00345  26623879.2874   26623881.7564
        39.7704
    -58913.59243                  26690854.8734
      1839.4214
  -4415574.46947    126919.14946  24181999.7074   24182003.5484
      -524.0834
   3277411.15347    943635.94946  24810788.5314   24810790.0754
     -3422.8134
  27292202.77646  21301999.00146  25074529.5014   25074534.1914
     -4852.1674
 06  4 29  1 54  0.0070000  0  6G 1G23G 7G25G 2G 5
  10408183.11745  10519137.08945  26029833.5904   26029838.4874
     -4006.3314
   -156633.32044    -97768.72645  26623778.9404   26623781.6894
        30.5694
    -86491.88443                  26685606.7644
      1837.7324
  -4407647.71747    133095.84146  24183508.1164   24183511.8994
      -532.7824
   3328823.22447    983697.29746  24820571.9204   24820573.0184
     -3432.0904
  27365012.66046  21358733.95746  25088384.7524   25088389.0324
     -4855.7624
 06  4 29  1 54 15.0070000  0  6G 1G23G 7G25G 2G 5
  10468325.48845  10566001.29845  26041278.3074   26041282.9254
     -4012.7044
   -157024.15745    -98073.24745  26623704.5644   26623706.9534
        21.4684
   -114046.37243                  26680363.2074
      1836.1504
  -4399592.09547    139372.95246  24185041.0544   24185044.9084
      -541.3714
   3380372.58046   1023865.61346  24830381.4164   24830383.0554
     -3441.2204
  27437874.69746  21415509.53346  25102249.9464   25102255.0364
     -4859.2234
 06  4 29  1 54 30.0070000  0  6G 1G23G 7G25G 2G 5
  10528563.95245  10612940.31745  26052741.3234   26052746.8224
     -4019.0634
   -157278.22345    -98271.21845  26623656.2144   26623658.3214
        12.4144
   -141576.34943         1.19055  26675124.4454   26675130.9454
      1834.5464
  -4391406.85547    145751.05746  24186598.6514   24186602.1134
      -549.9664
   3432059.52546   1064141.14346  24840217.1074   24840218.9454
     -3450.3504
  27510789.26646  21472326.07746  25116125.1404   25116130.2224
     -4862.6924
 06  4 29  1 54 45.0070000  0  6G 1G23G 7G25G 2G 5
  10588898.00745  10659953.90145  26064222.5464   26064226.5834
     -4025.3924
   -157395.55845    -98362.67445  26623633.9024   26623635.2774
         3.3184
   -169081.90643    -21431.65745  26669890.3064   26669895.0674
      1832.9624
  -4383092.11947    152230.07846  24188180.8934   24188184.4954
      -558.5744
   3483883.54846   1104523.48146  24850078.8964   24850080.6004
     -3459.4494
  27583755.93446  21529183.21846  25130010.2694   25130015.3874
     -4866.1174
 06  4 29  1 55  0.0070000  0  6G 1G23G 7G25G 2G 5
  10649326.25245  10707040.81445  26075721.6754   26075725.8424
     -4031.7074
   -157376.95545    -98348.19045  26623637.4774   26623639.6284
        -5.8154
   -196564.11643    -42846.35745  26664660.5824   26664665.8534
      1831.3154
  -4374648.75247    158809.32146  24189787.6094   24189791.6474
      -567.2124
   3535843.36146   1145011.63646  24859966.5294   24859968.8744
     -3468.5464
  27656773.46646  21586079.98446  25143905.0524   25143910.1054
     -4869.5564
 06  4 29  1 55 15.0070000  0  6G 1G23G 7G25G 2G 5
  10709849.96945  10754202.14145  26087238.9544   26087243.4864
     -4038.0674
   -157220.48345    -98226.29145  26623667.2524   26623669.0934
       -15.0234
   -224020.95843    -64241.28145  26659435.7084   26659441.6944
      1829.6214
  -4366074.98447    165490.17946  24191419.1454   24191423.4184
      -575.9134
   3587940.30546   1185606.64446  24869880.2784   24869882.4874
     -3477.6914
  27729843.33046  21643017.52446  25157809.7914   25157814.8124
     -4873.0334
 06  4 29  1 55 30.0070000  0  6G 1G23G 7G25G 2G 5
  10770467.87245  10801436.86845  26098774.1954   26098777.8714
     -4044.3584
   -156926.86745    -97997.49745  26623723.1394   26623724.0534
       -24.1774
   -251453.22043    -85617.01645  26654215.4854   26654222.8624
      1827.9574
  -4357371.53647    172272.08946  24193075.3644   24193079.9744
      -584.5974
   3640173.35146   1226307.70846  24879819.9254   24879821.6954
     -3486.7674
  27802964.46346  21699995.00546  25171724.2964   25171729.2584
     -4876.4804
 06  4 29  1 55 45.0070000  0  6G 1G23G 7G25G 2G 5
  10831180.56845  10848745.46045  26110327.4934   26110331.6474
     -4050.6234
   -156494.96645    -97660.93345  26623805.3434   26623807.4474
       -33.3764
   -278859.78943   -106972.79945  26649000.1204   26649002.6834
      1826.2904
  -4348537.34447    179155.87146  24194756.4564   24194760.7684
      -593.2634
   3692543.07446   1267115.29346  24889785.5714   24889787.3444
     -3495.8254
  27876137.61846  21757013.03846  25185648.6854   25185653.6224
     -4879.8924
 06  4 29  1 56  0.0070000  0  6G 1G23G 7G25G 2G 5
  10891986.64545  10896126.77945  26121898.5064   26121902.7094
     -4056.8694
   -155925.58345    -97217.27445  26623913.7124   26623915.5624
       -42.5834
   -306241.55443   -128309.20145  26643789.4784   26643796.3574
      1824.5924
  -4339573.34747    186140.80647  24196462.2544   24196466.1014
      -601.9524
   3745048.14847   1308028.32246  24899776.9864   24899778.4604
     -3504.8714
  27949361.51546  21814070.60046  25199582.7354   25199588.0914
     -4883.3024
 06  4 29  1 56 15.0070000  0  6G 1G23G 7G25G 2G 5
  10952887.68045  10943582.11545  26133487.5814   26133492.3334
     -4063.2664
   -155216.60245    -96664.82745  26624048.6194   26624049.3384
       -51.9664
   -333596.46043   -149624.62645  26638583.9734   26638587.8734
      1822.7504
  -4330477.45847    193228.50847  24198193.1604   24198196.8744
      -610.8284
   3797690.32947   1349048.20346  24909794.4854   24909795.6704
     -3514.0844
  28022637.92046  21871169.07546  25213526.8044   25213532.0324
     -4886.8754
 06  4 29  1 56 30.0070000  0  6G 1G23G 7G25G 2G 5
  11013883.08045  10991110.99045  26145094.6484   26145099.3244
     -4069.4894
   -154368.00545    -96003.56045  26624210.1244   26624210.6024
       -61.2164
   -360924.69343   -170919.33245  26633383.5284   26633387.8934
      1820.9964
  -4321249.77647    200418.91547  24199949.1354   24199952.7304
      -619.5544
   3850469.00447   1390174.43246  24919837.9564   24919839.2484
     -3523.1034
  28095966.39646  21928308.13446  25227480.7934   25227485.7204
     -4890.2764
 06  4 29  1 56 45.0070000  0  6G 1G23G 7G25G 2G 5
  11074971.49545  11038712.37045  26156719.3734   26156723.1414
     -4075.5874
   -153380.69545    -95234.22545  26624398.0394   26624400.1634
       -70.4094
   -388227.09543   -192193.89145  26628188.0004   26628195.2264
      1819.3554
  -4311891.20047    207711.30947  24201730.0224   24201733.2324
      -628.2134
   3903383.00847   1431406.10546  24929907.1774   24929909.1234
     -3532.0474
  28169345.72146  21985486.80946  25241444.4484   25241449.0124
     -4893.5874
 06  4 29  1 57  0.0070000  0  6G 1G23G 7G25G 2G 5
  11136152.35845  11086385.77645  26168361.6484   26168364.8104
     -4081.8054
   -152254.73745    -94356.85145  26624612.3114   26624613.6384
       -79.6874
   -415503.58844   -213448.26845  26622997.4764   26623003.6224
      1817.5534
  -4302401.81747    215105.62646  24203535.8024   24203539.3174
      -636.9964
   3956431.87046   1472742.87546  24940002.0454   24940003.5434
     -3541.0854
  28242775.57346  22042704.88146  25255417.7064   25255422.2524
     -4897.0134
 06  4 29  1 57 15.0070000  0  6G 1G23G 7G25G 2G 5
  11197425.82445  11134131.29645  26180021.5814   26180027.8364
     -4087.9584
   -150989.33245    -93370.83345  26624853.1004   26624853.3954
       -88.9904
   -442753.65743   -234682.09045  26617811.9264   26617817.8624
      1815.8124
  -4292780.96047    222602.40446  24205366.5894   24205370.3704
      -645.7584
   4009615.80046   1514184.89046  24950122.6244   24950124.1934
     -3550.0704
  28316256.15246  22099962.47846  25269400.6374   25269405.1264
     -4900.3604
 06  4 29  1 57 30.0070000  0  6G 1G23G 7G25G 2G 5
  11258791.34645  11181948.56945  26191699.0714   26191704.0844
     -4094.1794
   -149584.26245    -92275.92945  26625120.4824   26625123.4884
       -98.4114
   -469977.30643   -255895.24745  26612631.4044   26612635.2854
      1813.9374
  -4283028.63947    230201.60647  24207222.4014   24207226.2864
      -654.6244
   4062934.34446   1555731.79546  24960268.8314   24960270.4654
     -3559.1404
  28389787.15546  22157259.35546  25283393.1414   25283397.2464
     -4903.8144
 06  4 29  1 57 45.0070000  0  6G 1G23G 7G25G 2G 5
  11320249.75145  11229838.19845  26203394.2434   26203399.8104
     -4100.1894
   -148038.30645    -91071.30445  26625414.6694   26625416.0024
      -107.6404
   -497173.08344   -277086.71445  26607456.1934   26607461.0594
      1812.2314
  -4273143.51547    237904.30046  24209103.4774   24209107.2934
      -663.3144
   4116388.38746   1597384.30046  24970440.8224   24970441.9294
     -3567.9994
  28463369.67846  22214596.36546  25297395.4394   25297400.6594
     -4907.0914
 06  4 29  1 58  0.0070000  0  6G 1G23G 7G25G 2G 5
  11381799.59745  11277799.08045  26215106.7634   26215112.6324
     -4106.3414
   -146352.41945    -89757.63545  26625735.4864   26625736.5374
      -117.0364
   -524341.95644   -298257.22345  26602286.0674   26602291.0734
      1810.3764
  -4263126.60547    245709.68146  24211009.6314   24211013.6454
      -672.1664
   4169976.54847   1639141.30246  24980638.3354   24980639.8294
     -3576.9814
  28537002.28746  22271972.40746  25311407.2834   25311411.9054
     -4910.4854
 06  4 29  1 58 15.0070000  0  6G 1G23G 7G25G 2G 5
  11443440.30545  11325830.78045  26226836.6344   26226841.0604
     -4112.3874
   -144526.70745    -88334.97745  26626082.9024   26626084.5364
      -126.3864
   -551484.12243   -319406.93145  26597121.0214   26597127.2334
      1808.5964
  -4252977.99947    253617.68346  24212940.8464   24212944.6814
      -680.9534
   4223698.40847   1681002.48746  24990861.2814   24990862.7834
     -3585.9024
  28610684.62546  22329387.20546  25325428.5864   25325432.9724
     -4913.8044
 06  4 29  1 58 30.0070000  0  6G 1G23G 7G25G 2G 5
  11505171.56345  11373933.05745  26238583.7234   26238587.7444
     -4118.2944
   -142560.80845    -86803.09845  26626457.0444   26626458.6454
      -135.5854
   -578599.32243   -340535.59945  26591961.1494   26591965.7174
      1806.9104
  -4242697.56547    261628.41846  24214897.1474   24214900.9644
      -689.6304
   4277553.73746   1722967.66546  25001109.6214   25001111.2574
     -3594.6604
  28684416.57246  22386840.66346  25339459.3294   25339464.3184
     -4916.9784
 06  4 29  1 58 45.0070000  0  6G 1G23G 7G25G 2G 5
  11566993.20945  11422105.74645  26250348.0114   26250352.8834
     -4124.4634
   -140454.42445    -85161.73545  26626857.8804   26626861.2584
      -145.1474
   -605687.16044   -361642.97945  26586806.5234   26586812.1494
      1804.9194
  -4232284.92247    269742.16546  24216878.6034   24216882.6454
      -698.6214
   4331542.44246   1765036.78146  25011383.3304   25011385.1604
     -3603.7124
  28758198.02646  22444332.68646  25353499.4964   25353504.7154
     -4920.4444
 06  4 29  1 59  0.0070000  0  6G 1G23G 7G25G 2G 5
  11628905.38045  11470349.01345  26262129.5104   26262134.7784
     -4130.5164
   -138206.77345    -83410.31845  26627285.5834   26627288.5714
      -154.5904
   -632746.96343   -382728.48945  26581657.2004   26581662.9264
      1803.0284
  -4221739.46247    277959.40546  24218885.3314   24218889.1824
      -707.4994
   4385664.69346   1807209.94546  25021682.4644   25021684.3364
     -3612.6204
  28832029.38746  22501863.58746  25367549.1654   25367554.2234
     -4923.7794
 06  4 29  1 59 15.0070000  0  6G 1G23G 7G25G 2G 5
  11690908.09945  11518662.83645  26273928.2364   26273933.2134
     -4136.3064
   -135817.20245    -81548.32345  26627740.3124   26627743.2924
      -163.8224
   -659778.27143   -403791.76445  26576513.3254   26576518.7504
      1801.3444
  -4211060.65447    286280.56046  24220917.4214   24220921.2504
      -716.1554
   4439920.72546   1849487.37046  25032007.0554   25032008.0904
     -3621.3034
  28905910.95446  22559433.64346  25381608.3894   25381612.9094
     -4926.8884
 06  4 29  1 59 30.0070000  0  6G 1G23G 7G25G 2G 5
  11752998.88845  11567045.27145  26285743.7394   26285750.2884
     -4142.3884
   -133287.95245    -79577.42945  26628221.5794   26628222.0534
      -173.3764
   -686783.07643   -424834.42945  26571374.4384   26571380.8034
      1799.3644
  -4200250.46447    294704.07946  24222974.5194   24222978.0184
      -725.1444
   4494308.14647   1891867.16646  25042356.6524   25042358.2284
     -3630.2824
  28979840.27846  22617040.90546  25395676.6744   25395681.3754
     -4930.2854
 06  4 29  1 59 45.0070000  0  6G 1G23G 7G25G 2G 5
  11815179.13945  11615497.38545  26297576.2064   26297581.5364
     -4148.3654
   -130616.89045    -77496.06245  26628729.8664   26628730.8754
      -182.8584
   -713759.38444   -445854.84945  26566241.0034   26566246.1364
      1797.4344
  -4189307.13347    303231.35646  24225056.9584   24225060.2044
      -734.0454
   4548828.38346   1934350.46346  25052731.5084   25052733.6634
     -3639.1404
  29053818.89146  22674686.55446  25409754.3214   25409759.4644
     -4933.5864
 06  4 29  2  0  0.0070000  0  6G 1G23G 7G25G 2G 5
  11877449.19845  11664019.48145  26309425.7874   26309429.6584
     -4154.2834
   -127802.99445    -75303.38845  26629265.3464   26629268.3034
      -192.3134
   -740706.44644   -466852.56245  26561113.1274   26561118.6674
      1795.5424
  -4178229.73947    311863.09346  24227164.9014   24227168.4904
      -742.9164
   4603481.70046   1976937.45746  25063131.6904   25063133.8544
     -3647.9504
  29127847.35846  22732371.05546  25423841.4624   25423846.4914
     -4936.8384
 06  4 29  2  0 15.0070000  0  6G 1G23G 7G25G 2G 5
  11939807.26645  11712610.15745  26321292.1204   26321296.5704
     -4160.2034
   -124847.65745    -73000.51145  26629827.7414   26629831.1094
      -201.8264
   -767625.54745   -487828.44045  26555990.5724   26555995.1984
      1793.5864
  -4167019.64747    320598.22846  24229298.1024   24229301.6394
      -751.8374
   4658266.56046   2019626.94346  25073556.8904   25073559.3914
     -3656.7804
  29201924.06946  22790093.15246  25437937.7894   25437943.3804
     -4940.1244
 06  4 29  2  0 30.0070000  0  6G 1G23G 7G25G 2G 5
  12002255.09345  11761270.77045  26333175.5744   26333179.9184
     -4166.1184
   -121748.56645    -70585.63445  26630417.4664   26630420.6324
      -211.3094
   -794514.36544   -508780.69045  26550873.8014   26550879.2344
      1791.6304
  -4155674.59847    329438.53246  24231456.9874   24231460.7914
      -760.7724
   4713184.79046   2062420.35746  25084007.4764   25084010.0394
     -3665.5964
  29276050.97446  22847854.35746  25452043.6634   25452048.5844
     -4943.3944
 06  4 29  2  0 45.0070000  0  6G 1G23G 7G25G 2G 5
  12064790.28545  11809999.47845  26345075.6224   26345079.7114
     -4171.9724
   -118507.79045    -68060.34645  26631034.1234   26631036.4074
      -220.8424
   -821374.90545   -529710.97245  26545762.4074   26545768.8174
      1789.7044
  -4144196.57547    338382.44046  24233641.1754   24233645.2874
      -769.6944
   4768233.96646   2105315.80746  25094482.9914   25094485.6324
     -3674.3544
  29350225.70446  22905652.82446  25466158.6374   25466164.0144
     -4946.6274
 06  4 29  2  1  0.0070000  0  6G 1G23G 7G25G 2G 5
  12127413.62145  11858796.88245  26356992.4464   26356997.0914
     -4177.8684
   -115123.72545    -65423.34045  26631678.0744   26631682.6494
      -230.4254
   -848205.71245   -550618.07245  26540656.6714   26540663.0034
      1787.6564
  -4132584.20047    347431.04746  24235850.9274   24235854.7004
      -778.6954
   4823414.90046   2148313.91446  25104983.5964   25104985.9814
     -3683.1734
  29424449.37546  22963489.42846  25480282.9454   25480288.4064
     -4949.9264
 06  4 29  2  1 15.0070000  0  6G 1G23G 7G25G 2G 5
  12190125.27745  11907663.07045  26368926.0854   26368928.8504
     -4183.6714
   -111595.72645    -62674.25645  26632349.4004   26632352.0594
      -239.9604
   -875006.16544   -571501.48345  26535556.6784   26535562.2344
      1785.7364
  -4120836.83747    356584.83246  24238086.3744   24238090.2974
      -787.6144
   4878728.01947   2191415.04946  25115509.3654   25115511.4024
     -3691.8954
  29498722.24946  23021364.38546  25494416.6064   25494421.4694
     -4953.1154
 06  4 29  2  1 30.0070000  0  6G 1G23G 7G25G 2G 5
  12252923.99145  11956597.11045  26380876.3284   26380879.6554
     -4189.3834
   -107924.55745    -59813.60045  26633047.9924   26633050.4494
      -249.4354
   -901777.12344   -592361.99045  26530462.2824   26530467.9004
      1783.8314
  -4108955.42547    365843.08546  24240347.3204   24240351.0644
      -796.4704
   4934172.08247   2234618.21446  25126060.0364   25126061.9034
     -3700.5294
  29573043.24746  23079276.82846  25508559.4274   25508564.4974
     -4956.2464
 06  4 29  2  1 45.0070000  0  6G 1G23G 7G25G 2G 5
  12315808.50245  12005598.06145  26392842.9064   26392846.6104
     -4195.2154
   -104111.00045    -56841.99545  26633773.7234   26633775.3924
      -259.0744
   -928519.19244   -613199.89645  26525373.3774   26525379.5464
      1781.7644
  -4096940.59947    375205.29046  24242633.6584   24242637.4944
      -805.5094
   4989745.85346   2277922.43246  25136635.3864   25136636.8184
     -3709.3134
  29647411.27146  23137225.92546  25522711.1894   25522715.9044
     -4959.5054
 06  4 29  2  2  0.0070000  0  6G 1G23G 7G25G 2G 5
  12378779.98045  12054666.70645  26404826.0314   26404829.4964
     -4200.9374
   -100153.24345    -53758.03145  26634526.8474   26634528.5814
      -268.6214
   -955230.69245   -634013.99745  26520290.3274   26520297.1034
      1779.8124
  -4084790.74947    384672.70946  24244945.6774   24244949.4664
      -814.4414
   5045450.67846   2321328.78246  25147235.6714   25147237.7744
     -3717.9674
  29721827.73646  23195212.75446  25536872.1474   25536876.4864
     -4962.6464
 06  4 29  2  2 15.0070000  0  6G 1G23G 7G25G 2G 5
  12441836.46945  12103801.60645  26416825.3244   26416829.8594
     -4206.6194
    -96052.62045    -50562.72845  26635307.1794   26635309.3464
      -278.1534
   -981912.98444   -654805.38245  26515212.8524   26515219.4024
      1777.8254
  -4072507.26347    394244.26446  24247283.1424   24247286.9984
      -823.3794
   5101284.79146   2364835.87546  25157860.5544   25157862.1854
     -3726.5974
  29796290.86646  23253235.95946  25551041.9964   25551047.9274
     -4965.7874
 06  4 29  2  2 30.0070000  0  6G 1G23G 7G25G 2G 5
  12504977.67645  12153002.45945  26428840.7434   26428842.9454
     -4212.2794
    -91808.93245    -47255.97345  26636114.7024   26636116.2734
      -287.7334
  -1008565.86844   -675573.80345  26510140.9574   26510146.9404
      1775.8134
  -4060090.02147    403920.03546  24249646.0554   24249649.9094
      -832.3554
   5157247.90346   2408443.47746  25168509.9754   25168512.0344
     -3735.2344
  29870800.60846  23311295.47246  25565220.7314   25565226.4754
     -4968.9164
 06  4 29  2  2 45.0070000  0  6G 1G23G 7G25G 2G 5
  12568204.64045  12202270.22145  26440872.4964   26440876.9754
     -4217.9634
    -87420.70045    -43836.51745  26636949.7234   26636951.9594
      -297.3584
  -1035187.87044   -696318.21545  26505074.9694   26505081.6544
      1773.8074
  -4047537.36347    413701.32746  24252034.7494   24252038.4484
      -841.3204
   5213341.10346   2452152.46346  25179184.1364   25179185.6334
     -3743.8594
  29945358.05646  23369392.18046  25579408.5394   25579413.8444
     -4972.0624
 06  4 29  2  3  0.0080000  0  6G 1G23G 7G25G 2G 5
  12631521.19845  12251607.81545  26452921.3504   26452924.4284
     -4223.7024
    -82887.46445    -40304.13845  26637812.3634   26637813.6114
      -307.0694
  -1061780.65744   -717039.83945  26500014.5404   26500021.1084
      1771.6694
  -4034848.54047    423588.72646  24254449.3564   24254452.6514
      -850.4284
   5269567.88446   2495965.51146  25189883.7124   25189885.6434
     -3752.5654
  30019968.00446  23427529.79446  25593606.3474   25593610.9764
     -4975.2714
 06  4 29  2  3 15.0080000  0  6G 1G23G 7G25G 2G 5
  12694918.74545  12301008.51145  26464985.5524   26464989.1854
     -4229.2684
    -78209.39745    -36658.90245  26638702.5634   26638701.7294
      -316.6504
  -1088340.20044   -737735.54545  26494960.3904   26494966.2094
      1769.6434
  -4022024.87847    433581.19346  24256889.6194   24256893.3514
      -859.3704
   5325920.78546   2539876.85646  25200607.3034   25200609.0174
     -3761.1084
  30094620.53246  23485700.57946  25607812.2704   25607816.8754
     -4978.3564
 06  4 29  2  3 30.0080000  0  6G 1G23G 7G25G 2G 5
  12758400.60845  12350474.86345  26477065.8084   26477070.4684
     -4234.8034
    -73386.45345    -32900.73845  26639620.3314   26639621.4804
      -326.2434
  -1114868.76645   -758407.11945  26489912.1294   26489917.9444
      1767.6554
  -4009065.90647    443679.09546  24259355.6224   24259359.0634
      -868.3344
   5382402.53346   2583888.59546  25211355.4274   25211357.4904
     -3769.6224
  30169319.94146  23543907.90546  25622027.1094   25622032.2844
     -4981.3954
 06  4 29  2  3 45.0080000  0  6G 1G23G 7G25G 2G 5
  12821964.71845  12400005.29945  26489161.7244   26489165.1244
     -4240.3684
    -68420.32345    -29031.04245  26640565.3464   26640568.4564
      -335.8784
  -1141367.86245   -779055.71545  26484869.4884   26484874.8574
      1765.6014
  -3995973.23847    453881.17046  24261847.0764   24261850.7704
      -877.3394
   5439011.09946   2627999.14946  25222127.6884   25222129.4194
     -3778.1574
  30244064.36546  23602150.29746  25636250.5234   25636255.4124
     -4984.4784
 06  4 29  2  4  0.0080000  0  6G 1G23G 7G25G 2G 5
  12885612.72345  12449601.12445  26501273.6164   26501277.8584
     -4245.9754
    -63308.80645    -25047.98645  26641538.0064   26641539.9434
      -345.6074
  -1167835.30445   -799679.66745  26479832.8664   26479837.8004
      1763.4674
  -3982744.77147    464189.07146  24264364.3734   24264368.3584
      -886.4094
   5495748.24246   2672209.89946  25232924.4094   25232926.6744
     -3786.7404
  30318855.54746  23660429.12146  25650482.8424   25650487.5174
     -4987.6174
 06  4 29  2  4 15.0080000  0  6G 1G23G 7G25G 2G 5
  12949344.15245  12499261.96345  26513401.4104   26513404.2294
     -4251.5574
    -58051.76445    -20951.58445  26642538.3894   26642540.1684
      -355.3554
  -1194271.01445   -820278.92945  26474802.3064   26474808.4294
      1761.2754
  -3969380.53747    474602.77246  24266907.4984   24266911.7674
      -895.5034
   5552613.57346   2716520.52846  25243745.5274   25243747.8894
     -3795.3314
  30393693.20546  23718744.16746  25664724.0004   25664729.0544
     -4990.7444
 06  4 29  2  4 30.0080000  0  6G 1G23G 7G25G 2G 5
  13013159.50645  12548988.22045  26525545.1474   26525549.4774
     -4257.0924
    -52648.15745    -16740.98945  26643566.6564   26643567.4944
      -365.0834
  -1220674.02045   -840852.67645  26469777.9584   26469781.7014
      1759.1724
  -3955879.51847    485123.04446  24269476.6564   24269480.5334
      -904.5714
   5609607.80846   2760931.61046  25254591.1704   25254593.3294
     -3803.8594
  30468578.03846  23777095.97546  25678974.1314   25678979.1164
     -4993.8364
 06  4 29  2  4 45.0080000  0  6G 1G23G 7G25G 2G 5
  13077057.67045  12598778.96845  26537704.6284   26537707.3354
     -4262.5734
    -47098.50745    -12416.58545  26644622.7214   26644623.1274
      -374.7814
  -1247044.85344   -861401.31745  26464759.6744   26464765.1434
      1757.0474
  -3942242.28447    495749.46846  24272071.7354   24272075.4864
      -913.6224
   5666729.89946   2805442.32146  25265461.1494   25265462.8354
     -3812.3324
  30543509.15046  23835483.83046  25693233.0614   25693237.6974
     -4996.8834
 06  4 29  2  5  0.0080000  0  6G 1G23G 7G25G 2G 5
  13141037.52445  12648633.34345  26549879.6224   26549882.5004
     -4268.0284
    -41403.70945     -7979.06845  26645706.3814   26645709.0544
      -384.4874
  -1273384.22045   -881925.42745  26459747.4144   26459754.1044
      1754.9194
  -3928469.59547    506481.43647  24274692.5834   24274696.6324
      -922.6844
   5723978.72146   2850051.79446  25276355.2514   25276356.5694
     -3820.7954
  30618485.52546  23893906.96346  25707500.5894   25707505.9124
     -4999.9154
 06  4 29  2  5 15.0080000  0  6G 1G23G 7G25G 2G 5
  13205099.59145  12698551.85245  26562070.2584   26562075.0714
     -4273.5794
    -35562.61145     -3427.55545  26646817.8334   26646820.5894
      -394.3224
  -1299691.07844   -902424.22745  26454741.3404   26454746.6584
      1752.6554
  -3914560.48747    517319.69547  24277339.3994   24277343.5124
      -931.8584
   5781354.80946   2894760.42346  25287273.5564   25287275.3754
     -3829.3514
  30693507.87646  23952365.91846  25721776.8504   25721781.0774
     -5003.0694
 06  4 29  2  5 30.0080000  0  6G 1G23G 7G25G 2G 5
  13269242.56345  12748533.36745  26574276.2504   26574280.1154
     -4278.9394
    -29576.03444      1237.32045  26647956.9834   26647959.3464
      -404.0094
  -1325966.28745   -922898.43245  26449741.3054   26449747.6184
      1750.5734
  -3900515.81347    528263.59446  24280012.0144   24280016.6014
      -940.8814
   5838856.95146   2939567.26246  25298215.8614   25298218.0854
     -3837.7194
  30768575.04446  24010859.79846  25736061.6264   25736066.0084
     -5006.0134
 06  4 29  2  5 45.0080000  0  7G 1G23G 7G25G 2G 5G16
  13333467.36145  12798578.61045  26586497.8424   26586501.2584
     -4284.3994
    -23442.48545      6016.70045  26649124.1264   26649127.8334
      -413.8444
  -1352208.27545   -943346.66245  26444747.5884   26444752.0474
      1748.3254
  -3886334.06247    539314.31346  24282710.7224   24282715.0924
      -950.0514
   5896486.27246   2984473.22846  25309182.3614   25309184.7584
     -3846.2144
  30843688.17546  24069389.48946  25750355.1684   25750359.5254
     -5009.0874
    -15462.25343                  27076529.3184
      1932.5664
 06  4 29  2  6  0.0080000  0  7G 1G23G 7G25G 2G 5G16
  13397773.47745  12848687.25845  26598734.8814   26598739.7204
     -4289.8004
    -17161.77545     10910.78245  26650319.2704   26650322.2744
      -423.6364
  -1378417.05045   -963769.05745  26439760.2004   26439765.9674
      1746.1364
  -3872015.35447    550471.75146  24285435.4804   24285440.0104
      -959.1734
   5954242.27146   3029477.88946  25320172.9794   25320175.0024
     -3854.6194
  30918846.97946  24127954.75446  25764657.4114   25764662.1334
     -5012.1204
    -44442.73543                  27071014.4484
      1931.4354
 06  4 29  2  6 15.0080000  0  7G 1G23G 7G25G 2G 5G16
  13462159.83945  12898858.41245  26610987.1834   26610990.9064
     -4295.1534
    -10734.56845     15918.98245  26651542.3434   26651544.5734
      -433.4104
  -1404593.16745   -984165.97745  26434779.0054   26434785.1334
      1743.9224
  -3857560.25247    561735.46346  24288186.2044   24288190.3264
      -968.2784
   6012123.84346   3074580.40146  25331187.4884   25331189.3464
     -3863.0164
  30994050.48946  24186554.87446  25778968.1734   25778972.7174
     -5015.1304
    -73406.49443                  27065502.8214
      1930.3014
 06  4 29  2  6 30.0080000  0  7G 1G23G 7G25G 2G 5G16
  13526627.38845  12949092.82545  26623254.9524   26623259.4294
     -4300.4744
     -4159.44145     21042.49445  26652793.5704   26652794.4424
      -443.2214
  -1430734.94044  -1004536.09245  26429804.3494   26429808.1124
      1741.7134
  -3842967.28747    573106.60147  24290963.1554   24290966.9844
      -977.3984
   6070132.12446   3119781.65146  25342226.1194   25342228.0254
     -3871.3714
  31069299.98046  24245190.82146  25793287.6924   25793292.8534
     -5018.0954
   -102352.11543                  27059994.6234
      1929.1484
 06  4 29  2  6 45.0080000  0  7G 1G23G 7G25G 2G 5G16
  13591175.46045  12999389.99845  26635538.0464   26635539.9194
     -4305.8294
      2563.52045     26281.13545  26654072.9254   26654075.0974
      -453.0674
  -1456842.90045  -1024879.90245  26424836.1654   26424843.0074
      1739.4464
  -3828236.73847    584584.95647  24293766.2924   24293770.1724
      -986.5684
   6128266.54746   3165081.18446  25353288.7474   25353290.6314
     -3879.7654
  31144594.82746  24303862.11146  25807615.8434   25807621.2184
     -5021.1024
   -131279.76243    -13521.46545  27054489.8174   27054494.5044
      1927.9484
 06  4 29  2  7  0.0080000  0  7G 1G23G 7G25G 2G 5G16
  13655802.26445  13049748.52945  26647836.0964   26647841.2124
     -4311.0744
      9433.01645     31633.99245  26655380.1744   26655381.9174
      -462.8584
  -1482918.18444  -1045198.30145  26419874.1594   26419880.4024
      1737.2654
  -3813369.92847    596169.47946  24296595.3464   24296598.9384
      -995.6714
   6186525.24546   3210477.55946  25364375.0254   25364375.6464
     -3888.0614
  31219933.51846  24362567.55946  25821952.3304   25821957.7484
     -5024.0294
   -160190.60543    -36049.37545  27048988.1994   27048991.9184
      1926.8414
 06  4 29  2  7 15.0080000  0  7G 1G23G 7G25G 2G 5G16
  13720508.42545  13100168.88845  26660149.2784   26660154.2564
     -4316.2854
     16450.23645     37101.94245  26656715.5184   26656717.3364
      -472.6524
  -1508959.62345  -1065490.29445  26414918.5784   26414924.1474
      1735.0644
  -3798365.75647    607861.03947  24299450.5544   24299454.4364
     -1004.7654
   6244909.10146   3255971.47846  25375485.1084   25375486.7514
     -3896.3334
  31295316.80346  24421307.75346  25836297.3074   25836302.3034
     -5026.9344
   -189083.56243    -58563.38945  27043490.0004   27043493.2604
      1925.6894
 06  4 29  2  7 30.0080000  0  7G 1G23G 7G25G 2G 5G16
  13785293.03945  13150650.38845  26672477.3694   26672483.0724
     -4321.6124
     23614.55245     42684.53645  26658078.8664   26658081.0414
      -482.5784
  -1534967.69744  -1085756.26245  26409969.3234   26409974.4614
      1732.7384
  -3783224.71347    619659.25847  24302331.8084   24302335.7274
     -1013.9904
   6303417.16646   3301562.15046  25386618.8294   25386620.4124
     -3904.7034
  31370743.93846  24480082.13446  25850650.6244   25850655.2724
     -5029.9574
   -217958.93443    -81063.63545  27037995.1854   27038000.6124
      1924.3864
 06  4 29  2  7 45.0080000  0  7G 1G23G 7G25G 2G 5G16
  13850154.79744  13201191.94645  26684820.1154   26684826.0894
     -4326.6794
     30925.49345     48381.38845  26659470.0734   26659471.7874
      -492.2794
  -1560943.02845  -1105996.76345  26405026.3144   26405030.4214
      1730.5924
  -3767947.60147    631563.50447  24305238.9444   24305242.6154
     -1023.0074
   6362048.28246   3347248.71146  25397775.9544   25397777.3894
     -3912.8334
  31446213.83546  24538889.83846  25865012.0774   25865017.6694
     -5032.7414
   -246817.32343   -103550.63145  27032503.5884   27032506.2564
      1923.3444
 06  4 29  2  8  0.0080000  0  7G 1G23G 7G25G 2G 5G16
  13915093.65644  13251793.63545  26697177.5254   26697184.4884
     -4331.7894
     38383.37145     54192.72745  26660889.2314   26660890.7004
      -502.0764
  -1586885.19744  -1126211.43645  26400089.6454   26400095.5234
      1728.4104
  -3752533.96547    643574.12547  24308172.0714   24308176.0504
     -1032.1124
   6420802.42346   3393031.14346  25408956.4904   25408958.6804
     -3921.0134
  31521726.67346  24597730.99246  25879381.7064   25879386.7124
     -5035.5884
   -275658.43343   -126024.28145  27027015.2494   27027019.6794
      1922.1784
 06  4 29  2  8 15.0080000  0  7G 1G23G 7G25G 2G 5G16
  13980109.50244  13302455.36245  26709549.6014   26709556.1064
     -4336.8834
     45988.65145     60118.95345  26662336.4404   26662338.7814
      -511.8854
  -1612793.79644  -1146399.91245  26395159.3764   26395163.6394
      1726.1644
  -3736983.50347    655691.37447  24311131.2254   24311135.0674
     -1041.2044
   6479679.59046   3438909.45046  25420160.4344   25420162.5974
     -3929.1784
  31597282.42246  24656605.57946  25893759.4884   25893764.2984
     -5038.4294
   -304481.84144   -148484.01845  27021530.3324   27021533.9744
      1921.0194
 06  4 29  2  8 30.0080000  0  7G 1G23G 7G25G 2G 5G16
  14045201.87745  13353176.68745  26721936.2574   26721940.4854
     -4342.1774
     53741.40845     66160.05745  26663811.7314   26663813.3534
      -521.9174
  -1638668.66044  -1166562.11145  26390235.5164   26390241.2344
      1723.7214
  -3721296.10747    667915.31447  24314116.4344   24314120.4844
     -1050.5324
   6538679.37046   3484883.27846  25431387.7244   25431390.4394
     -3937.5394
  31672880.94946  24715513.50246  25908145.3934   25908150.9334
     -5041.4694
   -333287.44444   -170929.94945  27016048.8074   27016052.3274
      1919.6134
 06  4 29  2  8 45.0080000  0  7G 1G23G 7G25G 2G 5G16
  14110371.10844  13403957.90045  26734337.5294   26734341.8444
     -4347.0984
     61642.42345     72316.71045  26665315.2684   26665316.8694
      -531.6204
  -1664509.06845  -1186697.47245  26385318.2134   26385322.8304
      1721.6004
  -3705471.12247    680246.47447  24317127.8354   24317131.4524
     -1059.5174
   6597802.14346   3530952.96146  25442638.4204   25442641.4754
     -3945.5484
  31748522.76146  24774455.16146  25922539.5664   25922545.1684
     -5044.1454
   -362074.33044   -193361.25245  27010570.8494   27010573.5994
      1918.5804
 06  4 29  2  9  0.0080000  0  7G 1G23G 7G25G 2G 5G16
  14175616.62244  13454798.54445  26746753.3054   26746759.8214
     -4352.2294
     69691.55045     78588.73245  26666847.0034   26666847.5534
      -541.5414
  -1690315.18145  -1206806.11645  26380407.4654   26380413.2464
      1719.2574
  -3689508.68647    692684.73447  24320165.4004   24320168.7784
     -1068.7504
   6657047.34246   3577118.03446  25453912.4294   25453915.3714
     -3953.7574
  31824207.26946  24833430.08146  25936941.8824   25936946.7524
     -5047.0524
   -390842.55444   -215778.09445  27005096.4754   27005098.6484
      1917.2494
 06  4 29  2  9 15.0080000  0  7G 1G23G 7G25G 2G 5G16
  14240938.29443  13505698.51745  26759183.4964   26759188.8124
     -4357.3304
     77889.32645     84976.61545  26668407.0244   26668408.9024
      -551.4984
  -1716086.33945  -1226887.52545  26375503.3674   26375508.7104
      1716.8954
  -3673408.34447    705230.45347  24323229.2054   24323232.4824
     -1077.9894
   6716415.01546   3623378.55146  25465209.7264   25465212.5054
     -3961.9464
  31899934.76646  24892438.52946  25951352.3744   25951357.6364
     -5049.9514
   -419591.62644   -238179.98645  26999625.7124   26999628.3464
      1915.9534
 06  4 29  2  9 30.0080000  0  7G 1G23G 7G25G 2G 5G16
  14306335.94243  13556657.68145  26771628.1954   26771635.6864
     -4362.3284
     86235.97545     91480.50945  26669995.3794   26669995.4564
      -561.3654
  -1741822.36545  -1246941.55145  26370605.9424   26370610.5084
      1714.6024
  -3657169.97647    717883.72547  24326319.2774   24326322.6144
     -1087.1184
   6775905.06346   3669734.40846  25476530.3024   25476532.8844
     -3970.0344
  31975705.09146  24951480.31746  25965771.0224   25965776.6234
     -5052.7344
   -448321.19643   -260566.64545  26994158.6624   26994161.7774
      1914.7044
 06  4 29  2  9 45.0080000  0  7G 1G23G 7G25G 2G 5G16
  14371809.90644  13607676.33745  26784087.5144   26784095.4314
     -4367.4764
     94732.48245     98101.13145  26671612.1974   26671614.3824
      -571.4354
  -1767522.22145  -1266967.37645  26365715.4144   26365720.8564
      1712.1084
  -3640792.59247    730645.31447  24329435.8134   24329439.5364
     -1096.4554
   6835518.04346   3716186.07146  25487874.2504   25487877.1934
     -3978.2964
  32051518.95146  25010556.03246  25980197.9654   25980203.0144
     -5055.7174
   -477030.26843   -282937.29445  26988695.4784   26988699.0044
      1913.2574
 06  4 29  2 10  0.0080000  0  7G 1G23G 7G25G 2G 5G16
  14437358.51044  13658753.07445  26796561.0384   26796566.2754
     -4372.3364
    103377.74645    104837.74645  26673257.3184   26673257.8944
      -581.2744
  -1793187.20245  -1286966.04245  26360831.4984   26360836.5584
      1709.8794
  -3624277.44347    743514.25947  24332578.5574   24332582.5704
     -1105.5614
   6895252.14646   3762732.09746  25499241.2634   25499244.2334
     -3986.2454
  32127374.77546  25069664.44946  25994632.8914   25994637.2904
     -5058.3834
   -505719.92543   -305292.86945  26983235.9754   26983241.9204
      1912.0204
 06  4 29  2 10 15.0080000  0  7G 1G23G 7G25G 2G 5G16
  14502981.60144  13709887.90945  26809048.7174   26809053.4834
     -4377.3264
    112171.95045    111690.37745  26674930.7674   26674932.0834
      -591.2254
  -1818816.94745  -1306937.28645  26355954.3184   26355959.1324
      1707.5004
  -3607624.30247    756490.73047  24335747.5534   24335751.4574
     -1114.7934
   6955107.28346   3809372.45346  25510631.3164   25510634.1404
     -3994.3554
  32203272.56746  25128805.56146  26009075.7904   26009080.6774
     -5061.2314
   -534389.92643   -327633.10445  26977780.2364   26977785.6244
      1910.6914
 06  4 29  2 10 30.0080000  0  7G 1G23G 7G25G 2G 5G16
  14568678.42644  13761080.22645  26821550.3514   26821553.5424
     -4382.2004
    121114.51345    118658.62745  26676632.4754   26676634.5544
      -601.0824
  -1844411.75245  -1326881.20645  26351083.7524   26351088.5354
      1705.1764
  -3590833.58647    769574.39847  24338942.7314   24338946.6804
     -1123.9274
   7015082.70646   3856106.54146  25522044.2544   25522047.4224
     -4002.3324
  32279211.61746  25187978.82546  26023526.5584   26023531.7574
     -5063.9424
   -563040.61243   -349958.32545  26972328.2104   26972332.2614
      1909.4464
 06  4 29  2 10 45.0080000  0  7G 1G23G 7G25G 2G 5G16
  14634448.08444  13812329.32045  26834065.8424   26834071.1014
     -4387.1324
    130205.47645    125742.48545  26678362.4314   26678364.4184
      -611.0984
  -1869971.75945  -1346798.08545  26346219.8114   26346224.7394
      1702.7764
  -3573905.58847    782765.04847  24342164.0254   24342167.8274
     -1133.1944
   7075177.70746   3902933.80546  25533479.9364   25533483.0574
     -4010.3994
  32355191.43846  25247183.88846  26037985.0854   26037989.7954
     -5066.7504
   -591672.22243   -372268.65845  26966879.7854   26966884.1544
      1908.0684
 06  4 29  2 11  0.0080000  0  7G 1G23G 7G25G 2G 5G16
  14700292.19044  13863636.35045  26846595.5514   26846602.3884
     -4392.0584
    139446.96545    132943.68445  26680121.0204   26680123.9554
      -621.0964
  -1895494.93845  -1366686.22245  26341362.8964   26341369.4124
      1700.3354
  -3556838.22947    796064.28147  24345411.8494   24345415.8624
     -1142.4514
   7135393.92446   3949855.52346  25544938.6924   25544942.1174
     -4018.4324
  32431213.75946  25306422.05046  26052451.6784   26052456.8884
     -5069.5494
   -620282.52443   -394562.36045  26961435.4444   26961441.4254
      1906.6484
 06  4 29  2 11 15.0080000  0  7G 1G23G 7G25G 2G 5G16
  14766210.61445  13915001.30745  26859139.4304   26859144.8714
     -4397.0404
    148839.19645    140262.30945  26681908.3164   26681909.5304
      -631.1814
  -1920981.04445  -1386545.50145  26336513.0514   26336518.3564
      1697.8444
  -3539631.27447    809472.29947  24348686.2254   24348690.3164
     -1151.7874
   7195731.32946   3996871.66946  25556420.4874   25556423.7354
     -4026.5304
  32507278.60046  25365693.33346  26066926.3584   26066932.3784
     -5072.3984
   -648871.10543   -416839.17145  26955995.2164   26955999.7304
      1905.1694
 06  4 29  2 11 30.0080000  0  7G 1G23G 7G25G 2G 5G16
  14832202.71844  13966423.70745  26871697.3594   26871703.6594
     -4401.9444
    158382.06045    147698.31345  26683724.2824   26683724.4054
      -641.2414
  -1946430.15345  -1406375.98345  26331670.2304   26331675.4294
      1695.3504
  -3522284.87247    822988.96947  24351987.1504   24351991.1184
     -1161.0934
   7256189.34746   4043981.78646  25567925.2424   25567928.1464
     -4034.5714
  32583385.56046  25424997.43246  26081409.0454   26081414.4604
     -5075.2214
   -677438.03843   -439099.09945  26950559.0644   26950564.7684
      1903.7454
 06  4 29  2 11 45.0080000  0  7G 1G23G 7G25G 2G 5G16
  14898267.39544  14017902.64845  26884269.1084   26884276.4274
     -4406.7484
    168074.88345    155251.16545  26685568.7564   26685570.1624
      -651.2124
  -1971842.74745  -1426177.94945  26326834.3154   26326838.8284
      1692.9294
  -3504799.76547    836613.73547  24355314.4604   24355318.4714
     -1170.3314
   7316766.86346   4091185.03646  25579452.7634   25579455.9954
     -4042.5184
  32659533.65846  25484333.59646  26095899.5574   26095905.2384
     -5077.9494
   -705984.02444   -461342.67245  26945126.9354   26945131.9254
      1902.3474
 06  4 29  2 12  0.0080000  0  7G 1G23G 7G25G 2G 5G16
  14964403.58443  14069437.33745  26896854.3884   26896859.9114
     -4411.4524
    177917.05245    162920.41945  26687441.6584   26687441.9824
      -661.1374
  -1997219.38244  -1445951.90245  26322005.2224   26322009.8834
      1690.5504
  -3487176.48647    850346.15447  24358668.0594   24358672.0594
     -1179.4984
   7377462.88446   4138480.62246  25591002.8374   25591006.1574
     -4050.3534
  32735722.06946  25543701.18346  26110397.7354   26110402.8504
     -5080.5814
   -734509.36943   -483570.21045  26939698.7264   26939702.4094
      1900.9914
 06  4 29  2 12 15.0080000  0  7G 1G23G 7G25G 2G 5G16
  15030611.76243  14121028.12745  26909453.3804   26909459.5624
     -4416.3134
    187909.69345    170706.89045  26689343.1634   26689344.6324
      -671.2414
  -2022559.04045  -1465697.04845  26317183.2074   26317188.3684
      1688.0024
  -3469414.21447    864186.88247  24362048.1124   24362051.8214
     -1188.8364
   7438277.87646   4185868.91846  25602575.5584   25602578.8154
     -4058.3474
  32811951.36946  25603100.62646  26124903.7214   26124909.5864
     -5083.3674
   -763013.20743   -505781.01345  26934274.6084   26934276.4614
      1899.4834
 06  4 29  2 12 30.0080000  0  7G 1G23G 7G25G 2G 5G16
  15096891.51943  14172674.69045  26922065.9514   26922072.7644
     -4421.0464
    198052.79445    178610.66145  26691273.3174   26691276.3784
      -681.2404
  -2047861.72145  -1485413.40945  26312368.2154   26312373.7044
      1685.5994
  -3451512.80247    878136.03447  24365454.6474   24365458.1614
     -1198.0814
   7499211.62446   4233349.74246  25614170.8924   25614173.0984
     -4066.2144
  32888221.49646  25662531.84546  26139417.4594   26139422.9734
     -5086.0284
   -791495.37444   -527974.93545  26928854.6294   26928859.7154
      1898.0814
 06  4 29  2 12 45.0080000  0  7G 1G23G 7G25G 2G 5G16
  15163242.36543  14224376.64145  26934692.0994   26934697.5314
     -4425.7164
    208346.40945    186631.62145  26693232.0964   26693234.2094
      -691.2254
  -2073127.22945  -1505100.79645  26307560.3124   26307566.1984
      1683.1594
  -3433472.20047    892193.64547  24368887.6574   24368891.2014
     -1207.3034
   7560263.87546   4280922.90446  25625788.7724   25625791.8934
     -4074.0494
  32964532.09546  25721994.62746  26153938.9134   26153944.3884
     -5088.6764
   -819955.63743   -550151.75145  26923438.8294   26923443.5854
      1896.6424
 06  4 29  2 13  0.0080000  0  7G 1G23G 7G25G 2G 5G16
  15229662.94244  14276132.85945  26947331.5014   26947337.3694
     -4430.3964
    218789.72845    194769.28045  26695219.3434   26695219.9154
      -701.2464
  -2098356.36145  -1524759.79645  26302759.3454   26302764.6784
      1680.6874
  -3415293.37147    906358.96647  24372346.9614   24372350.4154
     -1216.5504
   7621433.28946   4328587.37546  25637428.9494   25637431.4904
     -4081.9044
  33040882.07646  25781488.11146  26168467.8744   26168473.2494
     -5091.3374
   -848394.77543   -572312.04845  26918027.0314   26918032.1014
      1895.1954
 06  4 29  2 13 15.0080000  0  7G 1G23G 7G25G 2G 5G16
  15296152.56843  14327942.92745  26959984.0694   26959992.0004
     -4434.9134
    229382.44645    203023.36545  26697235.0264   26697236.9344
      -711.1514
  -2123549.38745  -1544390.71545  26297965.2514   26297971.9314
      1678.3504
  -3396976.64347    920631.73647  24375832.5104   24375836.1084
     -1225.6784
   7682719.07346   4376342.52046  25649091.2784   25649094.2654
     -4089.5564
  33117270.76746  25841011.72446  26183004.1844   26183008.9274
     -5093.8344
   -876813.02543   -594456.17545  26912619.1984   26912623.4154
      1893.8514
 06  4 29  2 13 30.0080000  0  7G 1G23G 7G25G 2G 5G16
  15362711.85843  14379807.34445  26972649.8834   26972654.8824
     -4439.6534
    240125.72845    211394.76645  26699279.4004   26699282.5804
      -721.2894
  -2148705.17345  -1563992.57845  26293178.2394   26293182.7064
      1675.7494
  -3378520.98147    935012.77447  24379344.5074   24379348.1344
     -1235.0564
   7744121.82246   4424188.79346  25660775.8754   25660778.3104
     -4097.4454
  33193699.09646  25900566.27746  26197548.0334   26197552.8334
     -5096.5964
   -905209.19443   -616583.01845  26907215.5704   26907218.8744
      1892.2704
 06  4 29  2 13 45.0080000  0  7G 1G23G 7G25G 2G 5G16
  15429340.88943  14431726.03645  26985328.9214   26985331.9514
     -4444.3184
    251020.08645    219883.87345  26701352.5054   26701354.3234
      -731.3934
  -2173823.13645  -1583564.98345  26288398.4594   26288403.9774
      1673.2204
  -3359925.86547    949502.47447  24382883.0404   24382886.6214
     -1244.3864
   7805641.79346   4472126.44146  25672482.7674   25672484.9624
     -4105.2924
  33270167.23246  25960151.80446  26212099.4614   26212104.4984
     -5099.2664
   -933582.72343   -638692.23345  26901816.2004   26901822.5344
      1890.7414
